[[{"header":{"parameterUnit":"m.s-1","parameterCategory":1,"la1":30.6,"la2":29.2853,"lo1":-89.7004,"lo2":-87.6739,"dy":0.0162,"dx":0.0183,"nx":112,"ny":82,"refTime":"2023-03-10T06:00:00:Z","depth":0,"parameterNumber":2,"parameterNumberName":"U-component_of_WINDS"},"data":[0.0,0.0,0.0,0.0,0.0,0.0,0.0,0.0,0.0,0.0,0.0,0.0,0.0,0.0,0.0,0.0,0.0,0.0,0.0,0.0,0.0,0.0,0.0,0.0,0.0,0.0,0.0,0.0,0.0,0.0,0.0,0.0,0.0,0.0,0.0,0.0,0.0,0.0,0.0,0.0,0.0,0.0,0.0,0.0,0.0,0.0,0.0,0.0,0.0,0.0,0.0,0.0,0.0,0.0,0.0,0.0,0.0,0.0,0.0,0.0,0.0,0.0,0.0,0.0,0.0,0.0,0.0,0.0,0.0,0.0,0.0,0.0,0.0,0.0,0.0,0.0,0.0,0.0,0.0,0.0,0.0,0.0,0.0,0.0,0.0,0.0,0.0,0.0,0.0,0.0,-3.2885,-3.2846,-3.3606,-3.3992,-3.371,-3.4253,-3.3131,-2.9638,0.0,0.0,0.0,0.0,0.0,0.0,0.0,0.0,0.0,0.0,0.0,0.0,0.0,0.0,0.0,0.0,0.0,0.0,0.0,0.0,0.0,0.0,0.0,0.0,0.0,0.0,0.0,0.0,0.0,0.0,0.0,0.0,0.0,0.0,0.0,0.0,0.0,0.0,0.0,0.0,0.0,0.0,0.0,0.0,0.0,0.0,0.0,0.0,0.0,0.0,0.0,0.0,0.0,0.0,0.0,0.0,0.0,0.0,0.0,0.0,0.0,0.0,0.0,0.0,0.0,0.0,0.0,0.0,0.0,0.0,0.0,0.0,0.0,0.0,0.0,0.0,0.0,0.0,0.0,0.0,0.0,0.0,0.0,0.0,0.0,0.0,0.0,0.0,0.0,0.0,0.0,0.0,0.0,0.0,0.0,0.0,0.0,0.0,0.0,0.0,0.0,0.0,0.0,0.0,-3.0748,-3.1949,-3.2794,-3.3393,-3.3685,-3.431,-3.3195,-2.971,0.0,0.0,0.0,0.0,0.0,0.0,0.0,0.0,0.0,0.0,0.0,0.0,0.0,0.0,0.0,0.0,0.0,0.0,0.0,0.0,0.0,0.0,0.0,0.0,0.0,0.0,0.0,0.0,0.0,0.0,0.0,0.0,0.0,0.0,0.0,0.0,0.0,0.0,0.0,0.0,0.0,0.0,0.0,0.0,0.0,0.0,0.0,0.0,0.0,0.0,0.0,0.0,0.0,0.0,0.0,0.0,0.0,0.0,0.0,0.0,0.0,0.0,0.0,0.0,0.0,0.0,0.0,0.0,0.0,0.0,0.0,0.0,0.0,0.0,0.0,0.0,0.0,0.0,0.0,0.0,0.0,0.0,0.0,0.0,0.0,0.0,0.0,0.0,0.0,0.0,0.0,0.0,0.0,0.0,0.0,0.0,0.0,0.0,0.0,0.0,0.0,0.0,0.0,-3.0397,-3.0483,-3.1728,-3.2185,-3.2586,-3.3064,-3.3685,-3.264,-2.933,-2.9674,0.0,0.0,0.0,0.0,0.0,0.0,0.0,0.0,0.0,0.0,0.0,0.0,0.0,0.0,0.0,0.0,0.0,0.0,0.0,0.0,0.0,0.0,0.0,0.0,0.0,0.0,0.0,0.0,0.0,0.0,0.0,0.0,0.0,0.0,0.0,0.0,0.0,0.0,0.0,0.0,0.0,0.0,0.0,0.0,0.0,0.0,0.0,0.0,0.0,0.0,0.0,0.0,0.0,0.0,0.0,0.0,0.0,0.0,0.0,0.0,0.0,0.0,0.0,0.0,0.0,0.0,0.0,0.0,0.0,0.0,0.0,0.0,0.0,0.0,0.0,0.0,0.0,0.0,0.0,0.0,0.0,0.0,0.0,0.0,0.0,0.0,0.0,0.0,0.0,0.0,0.0,0.0,0.0,0.0,0.0,0.0,0.0,0.0,0.0,0.0,0.0,0.0,-3.0875,-3.067,-3.1683,-3.1802,-3.2032,-3.2613,-3.3005,-3.1958,-2.9046,-2.8925,0.0,0.0,0.0,0.0,0.0,0.0,0.0,0.0,0.0,0.0,0.0,0.0,0.0,0.0,0.0,0.0,0.0,0.0,0.0,0.0,0.0,0.0,0.0,0.0,0.0,0.0,0.0,0.0,0.0,0.0,0.0,0.0,0.0,0.0,0.0,0.0,0.0,0.0,0.0,0.0,0.0,0.0,0.0,0.0,0.0,0.0,0.0,0.0,0.0,0.0,0.0,0.0,0.0,0.0,0.0,0.0,0.0,0.0,0.0,0.0,0.0,0.0,0.0,0.0,0.0,0.0,0.0,0.0,0.0,0.0,0.0,0.0,0.0,0.0,0.0,0.0,0.0,0.0,0.0,0.0,0.0,0.0,0.0,0.0,0.0,0.0,0.0,0.0,0.0,0.0,0.0,0.0,0.0,0.0,0.0,0.0,0.0,0.0,0.0,0.0,0.0,0.0,-3.0486,-3.0614,-3.1683,-3.1792,-3.2085,-3.2811,-3.2574,-3.1446,-2.9209,-2.7997,0.0,0.0,0.0,0.0,0.0,0.0,0.0,0.0,0.0,0.0,0.0,0.0,0.0,0.0,0.0,0.0,0.0,0.0,0.0,0.0,0.0,0.0,0.0,0.0,0.0,0.0,0.0,0.0,0.0,0.0,0.0,0.0,0.0,0.0,0.0,0.0,0.0,0.0,0.0,0.0,0.0,0.0,0.0,0.0,0.0,0.0,0.0,0.0,0.0,0.0,0.0,0.0,0.0,0.0,0.0,0.0,0.0,0.0,0.0,0.0,0.0,0.0,0.0,0.0,0.0,0.0,0.0,0.0,0.0,0.0,0.0,0.0,0.0,0.0,0.0,0.0,0.0,0.0,0.0,0.0,0.0,0.0,0.0,0.0,0.0,0.0,0.0,0.0,0.0,0.0,0.0,0.0,0.0,0.0,0.0,0.0,0.0,0.0,0.0,0.0,0.0,0.0,-3.0128,-3.0446,-3.0939,-3.0535,-3.0742,-3.1988,-3.1303,-3.0368,-2.9342,0.0,0.0,0.0,0.0,0.0,0.0,0.0,0.0,0.0,0.0,0.0,0.0,0.0,0.0,0.0,0.0,0.0,0.0,0.0,0.0,0.0,0.0,0.0,0.0,0.0,0.0,0.0,0.0,0.0,0.0,0.0,0.0,0.0,0.0,0.0,0.0,0.0,0.0,0.0,0.0,0.0,0.0,0.0,0.0,0.0,0.0,0.0,0.0,0.0,0.0,0.0,0.0,0.0,0.0,0.0,0.0,0.0,0.0,0.0,0.0,0.0,0.0,0.0,0.0,0.0,0.0,0.0,0.0,0.0,0.0,0.0,0.0,0.0,0.0,0.0,0.0,0.0,0.0,0.0,0.0,0.0,0.0,0.0,0.0,0.0,0.0,0.0,0.0,0.0,0.0,0.0,0.0,0.0,0.0,0.0,0.0,0.0,0.0,0.0,0.0,0.0,0.0,-3.0148,-3.0018,-3.0152,-3.0832,-2.9696,-2.955,-3.1181,-3.0274,-2.9591,-2.9558,0.0,0.0,0.0,0.0,0.0,0.0,0.0,0.0,0.0,0.0,0.0,0.0,0.0,0.0,0.0,0.0,0.0,0.0,0.0,0.0,0.0,0.0,0.0,0.0,0.0,0.0,0.0,0.0,0.0,0.0,0.0,0.0,0.0,0.0,0.0,0.0,0.0,0.0,0.0,0.0,0.0,0.0,0.0,0.0,0.0,0.0,0.0,0.0,0.0,0.0,0.0,0.0,0.0,0.0,0.0,0.0,0.0,0.0,0.0,0.0,0.0,0.0,0.0,0.0,0.0,0.0,0.0,0.0,0.0,0.0,0.0,0.0,0.0,0.0,0.0,0.0,0.0,0.0,0.0,0.0,0.0,0.0,0.0,0.0,0.0,0.0,0.0,0.0,0.0,0.0,0.0,0.0,0.0,0.0,0.0,0.0,0.0,0.0,0.0,0.0,0.0,0.0,-3.1705,-3.0203,-2.9738,-3.1579,-2.9518,-2.8727,-3.0527,-2.9631,-2.9249,0.0,0.0,0.0,0.0,0.0,0.0,0.0,0.0,0.0,0.0,0.0,0.0,0.0,0.0,0.0,0.0,0.0,0.0,0.0,0.0,0.0,0.0,0.0,0.0,0.0,0.0,0.0,0.0,0.0,0.0,0.0,0.0,0.0,0.0,0.0,0.0,0.0,0.0,0.0,0.0,0.0,0.0,0.0,0.0,0.0,0.0,0.0,0.0,0.0,0.0,0.0,0.0,0.0,0.0,0.0,0.0,0.0,0.0,0.0,0.0,0.0,0.0,0.0,0.0,0.0,0.0,0.0,0.0,0.0,0.0,0.0,0.0,0.0,0.0,0.0,0.0,0.0,0.0,0.0,0.0,0.0,0.0,0.0,0.0,0.0,0.0,0.0,0.0,0.0,0.0,0.0,0.0,0.0,0.0,0.0,0.0,0.0,0.0,0.0,0.0,0.0,0.0,0.0,-3.1157,-3.0426,-3.01,-3.0733,-2.914,-2.8487,-2.967,-2.8783,-2.8713,-3.003,0.0,0.0,0.0,0.0,0.0,0.0,0.0,0.0,0.0,0.0,0.0,0.0,0.0,0.0,0.0,0.0,0.0,0.0,0.0,0.0,0.0,0.0,0.0,0.0,0.0,0.0,0.0,0.0,0.0,0.0,0.0,0.0,0.0,0.0,0.0,0.0,0.0,0.0,0.0,0.0,0.0,0.0,0.0,0.0,0.0,0.0,0.0,0.0,0.0,0.0,0.0,0.0,0.0,0.0,0.0,0.0,0.0,0.0,0.0,0.0,0.0,0.0,0.0,0.0,0.0,0.0,0.0,0.0,0.0,0.0,0.0,0.0,0.0,0.0,0.0,0.0,0.0,0.0,0.0,0.0,0.0,0.0,0.0,0.0,0.0,0.0,0.0,0.0,0.0,0.0,0.0,0.0,0.0,0.0,0.0,0.0,0.0,0.0,0.0,0.0,0.0,0.0,-3.139,-3.0761,-3.0248,-3.0383,-2.926,-2.8598,-2.8866,-2.8587,-2.8791,-2.9693,0.0,0.0,0.0,0.0,0.0,0.0,0.0,0.0,0.0,0.0,0.0,0.0,0.0,0.0,0.0,0.0,0.0,0.0,0.0,0.0,0.0,0.0,0.0,0.0,0.0,0.0,0.0,0.0,0.0,0.0,0.0,0.0,0.0,0.0,0.0,0.0,0.0,0.0,0.0,0.0,0.0,0.0,0.0,0.0,0.0,0.0,0.0,0.0,0.0,0.0,0.0,0.0,0.0,0.0,0.0,0.0,0.0,0.0,0.0,0.0,0.0,0.0,0.0,0.0,0.0,0.0,0.0,0.0,0.0,0.0,0.0,0.0,0.0,0.0,0.0,0.0,0.0,0.0,0.0,0.0,0.0,0.0,0.0,0.0,0.0,0.0,0.0,0.0,0.0,0.0,0.0,0.0,0.0,0.0,0.0,0.0,0.0,0.0,0.0,0.0,0.0,0.0,-3.2136,-3.1085,-3.0267,-3.0475,-2.9728,-2.8922,-2.8258,-2.8879,-2.9264,-2.9141,0.0,0.0,0.0,0.0,0.0,0.0,0.0,0.0,0.0,0.0,0.0,0.0,0.0,0.0,0.0,0.0,0.0,0.0,0.0,0.0,0.0,0.0,0.0,0.0,0.0,0.0,0.0,0.0,0.0,0.0,0.0,0.0,0.0,0.0,0.0,0.0,0.0,0.0,0.0,0.0,0.0,0.0,0.0,0.0,0.0,0.0,0.0,0.0,0.0,0.0,0.0,0.0,0.0,0.0,0.0,0.0,0.0,0.0,0.0,0.0,-3.4193,-3.269,0.0,0.0,0.0,0.0,0.0,0.0,0.0,0.0,0.0,0.0,0.0,0.0,0.0,0.0,0.0,0.0,0.0,0.0,0.0,0.0,0.0,0.0,0.0,0.0,0.0,0.0,0.0,0.0,0.0,0.0,0.0,0.0,0.0,0.0,0.0,0.0,0.0,0.0,0.0,0.0,-3.233,-3.1127,-3.0421,-3.1175,-3.003,-2.9144,-2.8978,-2.9216,-2.9374,-2.9342,-2.8865,0.0,0.0,0.0,0.0,0.0,0.0,0.0,0.0,0.0,0.0,0.0,0.0,0.0,0.0,0.0,0.0,0.0,0.0,0.0,0.0,0.0,0.0,0.0,0.0,0.0,0.0,0.0,0.0,0.0,0.0,0.0,0.0,0.0,0.0,0.0,0.0,0.0,0.0,0.0,0.0,0.0,0.0,0.0,0.0,0.0,0.0,0.0,0.0,0.0,0.0,0.0,0.0,0.0,0.0,0.0,0.0,0.0,0.0,0.0,-3.6247,-3.5505,0.0,0.0,0.0,0.0,0.0,0.0,0.0,0.0,0.0,0.0,0.0,0.0,0.0,0.0,0.0,0.0,0.0,0.0,0.0,0.0,0.0,0.0,0.0,0.0,0.0,0.0,0.0,0.0,0.0,0.0,0.0,0.0,0.0,0.0,0.0,0.0,0.0,0.0,0.0,0.0,-3.2428,-3.1497,-3.0916,-3.1435,-3.0808,-3.0042,-2.9278,-2.9671,-2.9797,-2.9374,-2.885,0.0,0.0,0.0,0.0,0.0,0.0,0.0,0.0,0.0,0.0,0.0,0.0,0.0,0.0,0.0,0.0,0.0,0.0,0.0,0.0,0.0,0.0,0.0,0.0,0.0,0.0,0.0,0.0,0.0,0.0,0.0,0.0,0.0,0.0,0.0,0.0,0.0,0.0,0.0,0.0,0.0,0.0,0.0,0.0,0.0,0.0,0.0,0.0,0.0,0.0,0.0,0.0,0.0,-3.6034,-3.6606,-3.6169,-3.7031,-3.748,-3.7676,-3.8679,-3.8864,-3.835,-3.7137,0.0,0.0,0.0,0.0,0.0,0.0,0.0,0.0,0.0,0.0,0.0,0.0,0.0,0.0,0.0,0.0,0.0,0.0,0.0,0.0,0.0,0.0,-3.3586,-3.3621,-3.4641,-3.5138,-3.3451,0.0,0.0,0.0,0.0,0.0,0.0,0.0,0.0,0.0,0.0,0.0,-3.2216,-3.161,-3.1203,-3.1466,-3.1424,-3.0837,-2.9522,-3.0139,-3.0233,-2.9354,-2.9218,-2.8789,0.0,0.0,0.0,0.0,0.0,0.0,0.0,0.0,0.0,0.0,0.0,0.0,0.0,0.0,0.0,0.0,0.0,0.0,0.0,0.0,0.0,0.0,0.0,0.0,0.0,0.0,0.0,0.0,0.0,0.0,0.0,0.0,-3.6361,-3.6649,0.0,0.0,0.0,0.0,0.0,0.0,0.0,0.0,0.0,0.0,0.0,0.0,0.0,-3.397,-3.3471,-3.4869,-3.5329,-3.4835,-3.7145,-3.8553,-3.918,-4.0159,-4.1009,-4.1731,-4.1884,0.0,-3.8224,-3.8088,0.0,0.0,0.0,0.0,0.0,0.0,0.0,0.0,0.0,0.0,0.0,0.0,0.0,0.0,0.0,0.0,0.0,0.0,0.0,0.0,0.0,0.0,-3.4858,-3.4245,-3.4281,-3.4384,-3.4225,-3.4439,-3.4387,-3.3411,-3.3356,-3.3146,0.0,0.0,0.0,0.0,0.0,0.0,-3.1164,-3.0464,-3.0319,-3.1386,-3.0881,-3.0405,-3.0246,-3.0451,-3.0224,-2.9355,-2.8657,-2.8217,-2.8065,-2.7255,0.0,0.0,0.0,0.0,0.0,0.0,0.0,0.0,0.0,0.0,0.0,0.0,0.0,0.0,0.0,0.0,0.0,0.0,0.0,0.0,0.0,0.0,0.0,0.0,0.0,0.0,0.0,0.0,0.0,-3.3682,-3.5257,-3.5339,-3.5203,-3.449,0.0,0.0,0.0,0.0,0.0,0.0,0.0,0.0,0.0,-3.4477,-3.5134,-3.5518,-3.5622,-3.708,-3.7707,-3.745,-3.8916,-3.9603,-3.9556,-4.042,-4.0788,-4.0775,-4.1195,-4.0713,-3.9631,-3.941,-3.8791,-3.7897,0.0,0.0,0.0,0.0,-3.4991,-3.43,-3.4859,-3.483,-3.4522,-3.4567,0.0,0.0,0.0,0.0,0.0,0.0,0.0,-3.1948,-3.2311,-3.3588,-3.4778,-3.4676,-3.5019,-3.5401,-3.5467,-3.5572,-3.5203,-3.3686,-3.3671,-3.3644,-3.2854,-3.2287,0.0,0.0,0.0,-3.0599,-3.076,-2.9645,-2.9266,-3.033,-2.9413,-2.8746,-2.8766,-2.8967,-2.911,-2.9186,-2.8473,-2.8266,-2.8743,-2.7929,-2.7803,0.0,0.0,0.0,0.0,0.0,0.0,0.0,0.0,0.0,0.0,0.0,0.0,0.0,0.0,0.0,0.0,0.0,0.0,0.0,0.0,0.0,0.0,0.0,0.0,0.0,0.0,0.0,0.0,-3.4592,-3.545,-3.5045,-3.5676,-3.5228,0.0,0.0,0.0,0.0,0.0,0.0,-3.4536,-3.4777,-3.5203,-3.5833,-3.65,-3.7114,-3.7732,-3.8666,-3.9214,-3.9375,-3.9963,-3.9826,-3.9102,-4.0082,-3.9997,-3.9176,-4.0099,-4.047,-4.0416,-4.0129,-3.9612,-3.8957,-3.8114,-3.7327,-3.6665,-3.663,-3.5863,-3.5006,-3.6039,-3.6037,-3.5586,-3.5604,-3.5443,-3.4852,-3.2655,0.0,0.0,0.0,0.0,-3.1215,-3.1775,-3.2913,-3.3877,-3.3811,-3.4444,-3.4991,-3.4805,-3.4976,-3.4904,-3.3899,-3.3948,-3.39,-3.3126,-3.2277,0.0,-3.1362,-3.0594,-3.0005,-2.989,-2.8842,-2.8315,-2.8893,-2.8207,-2.7641,-2.7445,-2.7816,-2.8325,-2.8937,-2.869,-2.8733,-2.92,-2.8487,-2.8198,-2.8437,0.0,0.0,0.0,0.0,0.0,0.0,0.0,0.0,0.0,0.0,0.0,0.0,0.0,0.0,0.0,0.0,0.0,0.0,0.0,0.0,0.0,0.0,0.0,0.0,0.0,0.0,0.0,0.0,0.0,-3.8438,-3.9141,0.0,0.0,0.0,0.0,-3.5382,-3.4701,-3.4865,-3.6207,-3.628,-3.6623,-3.7353,-3.8154,-3.8844,-3.9469,-3.879,-3.8739,-3.931,-3.9409,-3.9033,-3.8316,-3.9826,-3.9723,-3.8441,-3.9877,-4.0099,-3.9474,-3.9652,-3.9499,-3.9103,-3.8295,-3.7602,-3.7084,-3.7141,-3.7068,-3.687,-3.6308,-3.6096,-3.6078,-3.615,-3.5616,-3.4623,-3.2957,-3.2855,0.0,0.0,-3.2255,-3.3121,-3.1785,-3.1999,-3.2248,-3.0853,-3.11,-3.144,-3.0759,-3.1464,-3.2727,-3.4485,-3.4243,-3.3464,-3.2592,0.0,-3.0945,-3.0126,-2.9313,-2.859,-2.8003,-2.7869,-2.7672,-2.7283,-2.785,-2.7976,-2.7269,-2.7981,-2.8509,-2.8624,-2.9494,-2.9704,-2.9042,-2.8365,-2.8424,-2.9317,-2.7715,0.0,0.0,0.0,0.0,0.0,0.0,0.0,0.0,0.0,0.0,0.0,0.0,0.0,0.0,0.0,0.0,0.0,0.0,0.0,0.0,0.0,0.0,0.0,0.0,0.0,0.0,0.0,0.0,-3.7943,-3.8212,0.0,-3.5802,-3.489,-3.4471,-3.4542,-3.5034,-3.551,-3.5916,-3.6632,-3.7169,-3.7438,-3.8076,-3.8723,-3.9322,-3.9056,-3.9225,-3.9831,-3.9831,-3.944,-3.8761,-3.9763,-3.9695,-3.8812,-3.9797,-3.9814,-3.9168,-3.9742,-4.0001,-4.0014,-3.9721,-3.9197,-3.8567,-3.8607,-3.7966,-3.708,-3.6824,-3.6433,-3.6038,-3.6061,-3.5538,-3.4614,-3.2997,-3.2681,-3.2643,-3.1593,-3.1315,-3.1403,-3.1673,-3.1498,-3.1219,-3.0941,-3.1078,-3.1201,-3.0937,-3.0426,-3.0332,-3.1459,-3.2293,-3.2702,-3.2384,-3.0779,-2.96,-2.9792,-2.8269,-2.7017,-2.68,-2.6808,-2.6765,-2.661,-2.6996,-2.7158,-2.6898,-2.732,-2.7861,-2.8422,-2.8889,-2.9257,-2.9509,-2.8827,-2.8606,-2.8936,-2.7829,-2.7838,0.0,0.0,0.0,0.0,0.0,0.0,0.0,0.0,0.0,0.0,0.0,0.0,0.0,0.0,0.0,0.0,0.0,0.0,0.0,0.0,0.0,0.0,0.0,0.0,0.0,-3.7428,-3.8508,-3.7526,-3.8269,-3.8115,-3.6301,-3.5882,-3.5683,-3.5537,-3.6085,-3.6383,-3.6307,-3.6797,-3.7104,-3.7104,-3.7474,-3.8094,-3.8961,-3.8925,-3.9305,-4.0152,-3.9917,-3.9412,-3.874,-3.9463,-3.9278,-3.8404,-3.9598,-3.9554,-3.8684,-3.9436,-3.9823,-4.0005,-4.0285,-4.0056,-3.9596,-3.9357,-3.8472,-3.7308,-3.6763,-3.627,-3.5866,-3.5866,-3.5543,-3.484,-3.3281,-3.3158,-3.3188,-3.139,-3.0876,-3.0794,-3.0568,-3.0296,-2.9987,-2.9711,-2.9657,-2.957,-2.9311,-2.8713,-2.8303,-2.8486,-2.974,-3.0782,-3.0722,-2.9139,-2.8066,-2.8755,-2.7012,-2.5762,-2.6156,-2.6227,-2.617,-2.5921,-2.6545,-2.6875,-2.662,-2.7034,-2.7569,-2.8156,-2.8612,-2.913,-2.9683,-2.9276,-2.9045,-2.9077,-2.8264,-2.8127,-2.8708,0.0,0.0,0.0,0.0,0.0,0.0,0.0,0.0,0.0,0.0,0.0,0.0,0.0,0.0,0.0,0.0,0.0,0.0,0.0,0.0,0.0,0.0,0.0,-3.6624,-3.8824,-3.9708,-3.7676,-3.9691,-4.0376,-3.8184,-3.8461,-3.8671,-3.8477,-3.7861,-3.7477,-3.7477,-3.6846,-3.6492,-3.6492,-3.6492,-3.7111,-3.8442,-3.8348,-3.8944,-4.0216,-3.9493,-3.8798,-3.8136,-3.8848,-3.8375,-3.7159,-3.9177,-3.9209,-3.7942,-3.8668,-3.8956,-3.9006,-3.9766,-4.0079,-4.0011,-3.9317,-3.8548,-3.7686,-3.6124,-3.56,-3.56,-3.5566,-3.5583,-3.5312,-3.3808,-3.4382,-3.4805,-3.1154,-3.114,-3.1565,-2.8601,-2.8399,-2.8568,-2.701,-2.6623,-2.6421,-2.5648,-2.6249,-2.6729,-2.5962,-2.6857,-2.7695,-2.7639,-2.6941,-2.6542,-2.6916,-2.5531,0.0,-2.5953,-2.6126,-2.5878,-2.5201,-2.6545,-2.721,-2.6533,-2.7239,-2.7764,-2.7842,-2.8802,-2.9405,-2.9485,-2.9616,-2.9693,-2.9737,-2.8917,-2.8501,-2.8479,0.0,0.0,0.0,0.0,0.0,0.0,0.0,0.0,0.0,0.0,0.0,0.0,0.0,0.0,0.0,0.0,0.0,0.0,0.0,0.0,0.0,-3.5172,-3.6507,-3.7537,-3.8642,-3.9594,-4.0328,-4.0176,-3.9923,-3.9794,-3.8637,-3.7817,-3.7784,-3.7153,-3.6769,-3.6769,-3.6599,-3.6492,-3.6492,-3.6492,-3.6893,-3.7686,-3.7673,-3.8049,-3.8851,-3.8628,-3.8432,-3.8253,-3.8448,-3.8334,-3.7976,-3.8532,-3.8259,-3.7445,-3.8177,-3.8177,-3.7814,-3.8875,-3.9639,-4.0079,-3.9876,-3.8988,-3.7686,-3.6124,-3.56,-3.5498,-3.4979,-3.5116,-3.5133,-3.3077,-3.3481,-3.4105,-3.1473,-3.0667,-3.0249,-2.888,-2.8255,-2.7883,-2.7427,-2.7326,-2.7259,-2.7039,-2.6353,-2.5849,-2.6101,-2.6066,-2.6477,-2.8051,-2.7203,-2.6376,-2.6476,-2.4695,-2.3444,-2.3772,-2.4399,-2.5008,-2.556,-2.6567,-2.7434,-2.8021,-2.833,-2.8505,-2.8517,-2.8858,-2.9071,-2.9119,-2.9174,-2.8939,-2.8361,-2.8682,-2.859,0.0,0.0,0.0,0.0,0.0,0.0,0.0,0.0,0.0,0.0,0.0,0.0,0.0,0.0,0.0,0.0,0.0,0.0,0.0,0.0,0.0,0.0,-3.5257,-3.6521,-3.7853,-3.8958,-4.0016,-4.1008,-4.0693,-4.0416,-4.0489,-3.9428,-3.8646,-3.8369,-3.7984,-3.7598,-3.7242,-3.6951,-3.6781,-3.6701,-3.6473,-3.6523,-3.6815,-3.7208,-3.7533,-3.7793,-3.7895,-3.7924,-3.7924,-3.7822,-3.7793,-3.7822,-3.7994,-3.7705,-3.7093,-3.7468,-3.7415,-3.7176,0.0,0.0,0.0,0.0,-3.8254,-3.734,-3.6055,-3.5594,-3.5431,-3.4693,-3.4875,-3.5054,-3.3122,-3.334,-3.3727,-3.117,-3.0163,-2.9544,-2.8201,-2.7493,-2.7122,-2.707,-2.6818,-2.6584,-2.6565,-2.5846,-2.5329,-2.5711,-2.5728,0.0,-2.7367,-2.6372,-2.5438,-2.5599,-2.3936,-2.2829,-2.3296,-2.3871,-2.4571,-2.549,-2.6361,-2.7268,-2.8206,-2.8339,0.0,0.0,0.0,-2.8883,-2.9399,-2.9088,0.0,0.0,0.0,-2.8456,-2.7505,-2.8097,0.0,0.0,-2.9263,-2.9711,0.0,0.0,0.0,0.0,0.0,0.0,0.0,0.0,0.0,0.0,0.0,0.0,0.0,0.0,0.0,0.0,-3.5139,-3.6591,-3.7814,-3.9365,-4.0366,-4.0307,-4.0882,-4.104,-4.0447,-4.0309,-4.0052,-3.9536,-3.9447,-3.9072,-3.8277,-3.768,0.0,0.0,0.0,-3.6224,-3.6068,-3.6876,-3.7193,-3.7041,-3.7222,-3.7298,-3.7298,-3.7117,-3.7011,-3.7041,-3.7442,-3.731,-3.6777,-3.668,-3.666,-3.6786,-3.7766,-3.8137,-3.8015,-3.7081,-3.6686,-3.6497,-3.5592,0.0,0.0,-3.4231,-3.451,-3.485,-3.315,-3.3188,-3.3215,-3.0363,-2.9563,-2.9061,-2.7003,-2.6468,-2.6434,-2.6213,-2.5729,-2.5312,-2.5243,-2.5209,-2.5209,-2.5209,-2.5739,-2.6202,-2.6202,-2.5095,-2.4309,-2.4579,-2.334,-2.2709,-2.363,-2.3824,-2.4191,-2.5024,-2.588,0.0,-2.7476,-2.7672,-2.7768,-2.7783,-2.8057,-2.8675,-2.9686,-2.9032,-2.876,-2.899,-2.8688,-2.7929,-2.6749,-2.7079,-2.6874,-2.6215,-2.7832,-2.8852,0.0,0.0,0.0,0.0,0.0,0.0,0.0,0.0,0.0,0.0,0.0,0.0,0.0,0.0,0.0,-3.5509,-3.5953,-3.6722,-3.8385,-3.8533,-3.8618,-3.9053,-3.9266,-3.9478,-3.9839,-3.9325,-3.9104,-3.9456,-3.9016,-3.8613,-3.8442,-3.8319,-3.7996,-3.7427,-3.7162,-3.6825,-3.6398,-3.643,-3.6476,-3.6631,-3.6662,0.0,-3.6662,-3.6631,-3.6523,-3.6368,-3.6461,-3.6384,-3.6183,-3.6152,-3.583,-3.549,-3.6638,-3.711,-3.6933,-3.5615,-3.4807,-3.4228,-3.3461,-3.3459,-3.3521,-3.1801,-3.2613,-3.3667,-3.065,-3.0497,0.0,-2.9229,-2.8312,-2.7613,-2.6597,-2.6293,-2.6107,-2.5493,-2.5674,-2.6006,-2.6005,-2.6005,-2.6005,-2.6005,-2.6103,-2.6202,-2.6202,-2.5475,-2.473,-2.4213,-2.341,-2.2735,-2.2351,-2.2355,-2.2799,-2.3818,-2.4603,-2.5481,-2.6493,-2.7136,-2.75,-2.7539,-2.7672,-2.7815,-2.7988,-2.7815,-2.719,-2.5971,-2.6497,-2.6071,-2.4607,-2.5293,-2.5566,-2.5438,-2.6296,-2.6633,0.0,0.0,0.0,0.0,0.0,0.0,0.0,0.0,0.0,0.0,0.0,-3.3746,-3.3988,0.0,-3.4778,-3.6019,-3.6409,-3.6856,-3.7774,-3.7898,-3.8131,-3.8716,-3.8782,-3.8943,-3.9235,-3.9187,-3.9239,-3.9414,-3.9436,-3.9183,-3.8629,-3.8376,-3.7887,-3.7136,-3.6835,-3.6547,-3.6258,-3.632,-3.6352,-3.6352,-3.646,-3.6492,-3.6492,-3.6336,-3.6195,-3.6085,-3.591,-3.5846,-3.5863,-3.5863,-3.5617,-3.5269,-3.5552,-3.5539,-3.5308,-3.4538,-3.4031,-3.3652,-3.286,-3.274,-3.262,-3.0941,-3.1402,-3.2227,-3.0171,-2.9986,-3.0272,-2.9386,-2.8449,-2.7575,-2.7074,-2.6499,-2.5966,-2.5594,-2.5682,-2.5848,-2.5848,-2.6026,-2.6086,-2.5722,-2.5937,-2.607,-2.5705,-2.5639,-2.5408,-2.4663,-2.3635,-2.282,-2.2438,-2.213,-2.2298,-2.3197,-2.3695,-2.4311,-2.521,-2.5653,-2.6073,-2.6617,-2.6333,-2.6355,-2.6874,-2.6554,-2.5892,-2.4916,-2.5466,-2.5115,-2.3808,-2.4292,-2.4342,-2.3959,-2.4284,-2.4784,0.0,0.0,0.0,0.0,0.0,0.0,0.0,-3.1813,-3.2595,-3.3409,-3.4296,-3.5096,-3.5625,-3.5723,-3.5934,-3.6553,-3.706,-3.7302,-3.7175,-3.7695,-3.8246,-3.86,-3.8639,-3.872,-3.8964,-3.9415,-3.9682,-3.9595,-4.0041,-3.9893,-3.8998,-3.8485,-3.7819,-3.6972,-3.6569,-3.6238,-3.6037,-3.6289,-3.632,-3.6196,-3.6352,-3.6398,-3.6398,-3.6132,-3.5973,-3.5941,-3.5619,-3.5554,-3.5671,-3.5671,-3.5514,-3.5235,-3.4562,-3.4074,-3.3697,-3.3598,-3.3367,-3.3048,-3.2273,-3.201,-3.1763,-3.0274,-3.0338,-3.0829,-2.9903,-2.9698,-2.9728,-2.9502,-2.8652,-2.7743,-2.7533,-2.6791,-2.6046,-2.5762,-2.5632,-2.5551,-2.5516,-2.5793,-2.5932,-2.5424,-2.5788,-2.6003,-2.5425,-2.5805,-2.5937,-2.5209,-2.41,-2.3272,-2.3123,-2.2637,-2.2483,-2.2917,-2.3211,-2.3591,-2.4192,-2.4242,-2.4603,-2.5412,-2.49,-2.497,-2.5841,-2.5299,-2.4772,-2.4358,-2.4635,-2.4259,-2.3257,-2.3415,-2.3154,-2.2542,-2.2523,-2.3244,-2.7864,-2.8655,-3.047,-3.159,-3.2017,-3.2445,0.0,-3.4393,-3.525,-3.594,-3.6847,-3.7512,-3.7583,-3.7597,-3.7807,-3.8494,-3.8649,-3.8494,-3.7878,-3.8355,-3.8605,-3.8062,-3.7992,-3.8428,-3.9499,-3.9671,-3.9824,-4.0158,-4.0264,-4.0176,-3.9854,-3.9237,-3.8554,-3.7883,-3.7251,-3.6662,-3.6179,-3.61,-3.6085,-3.6196,-3.61,-3.6068,-3.6068,-3.6005,-3.5894,-3.572,-3.5587,-3.5504,-3.5537,-3.5537,-3.5177,-3.4563,-3.3858,-3.3231,-3.2676,-3.2646,-3.1894,-3.0779,-3.0154,-3.0239,-3.0315,-2.8515,-2.9002,-2.9967,-2.81,-2.7859,-2.8252,-2.8202,-2.763,-2.7007,-2.6993,-2.6871,-2.6472,-2.5217,-2.5404,-2.5787,-2.5537,-2.554,-2.567,-2.6016,-2.6136,-2.6169,-2.6086,-2.6152,-2.5937,-2.5209,-2.4961,-2.463,-2.3967,-2.3818,-2.3553,-2.2973,-2.3503,-2.395,-2.4033,-2.4081,-2.4163,-2.4278,-2.4211,-2.4227,-2.4342,-2.4211,-2.3813,-2.3117,-2.3147,-2.278,-2.2003,-2.2015,-2.1997,-2.1913,-2.1899,-2.2125,-2.9241,-2.9165,-2.9624,-3.0968,-3.1501,-3.1888,-3.268,-3.4036,-3.5433,-3.6571,-3.7948,-3.9002,-3.9002,-3.9002,-3.8974,-3.893,-3.9197,-3.9226,-3.8552,-3.9043,-3.9211,-3.8538,-3.8777,-3.9082,-3.9213,-3.9211,-3.9284,-3.9589,-3.9702,-3.9405,-3.8531,-3.8451,-3.7883,-3.6708,-3.6503,-3.6326,-3.61,-3.6037,-3.6037,-3.6085,-3.6037,-3.6005,-3.6005,-3.5863,-3.575,-3.5572,-3.5522,-3.5504,-3.5504,-3.5504,-3.51,-3.4474,-3.4204,-3.3425,-3.2437,-3.2049,-3.1555,-3.0972,-3.0357,-3.0268,-3.0216,-2.8681,-2.8672,-2.9046,-2.7798,-2.7583,-2.7817,-2.8101,-2.7759,-2.737,-2.7636,-2.7203,-2.6474,-2.5511,-2.5407,-2.542,-2.4901,-2.4981,-2.5086,-2.4852,-2.5148,-2.5309,-2.489,-2.5164,-2.5341,-2.5035,-2.5044,-2.4994,-2.4679,-2.4265,-2.3719,-2.2973,-2.3172,-2.3189,-2.2758,-2.2739,-2.2937,-2.3369,-2.3003,-2.2937,-2.3385,-2.2956,-2.2559,-2.2261,-2.226,-2.2096,-2.1812,-2.1812,-2.1812,-2.1781,-2.1507,-2.1583,-2.9511,-2.9253,-2.9071,-3.0527,-3.14,-3.1954,-3.2295,-3.3834,-3.5579,-3.6836,-3.8442,-3.9717,-3.9985,-4.0168,-4.0083,-3.9507,-3.9887,-4.0013,-3.9282,-3.9535,-3.962,-3.9211,-3.9549,-3.9676,-3.9436,-3.9344,-3.9283,-3.9203,-3.9416,-3.9032,-3.7828,-3.7835,-3.7337,-3.6195,-3.6027,-3.5926,-3.5926,-3.5926,-3.5926,-3.5926,-3.5878,-3.5861,-3.5861,-3.5718,-3.5604,-3.5504,-3.5504,-3.5504,-3.5504,-3.5504,-3.51,-3.4488,-3.4309,-3.3514,-3.2407,-3.175,-3.1511,-3.1406,-3.0746,-3.0507,-3.0328,-2.922,-2.8742,-2.8502,-2.8034,-2.775,-2.766,-2.8002,-2.787,-2.7685,-2.8027,-2.7482,-2.6647,-2.5809,-2.5493,-2.519,-2.4445,-2.4533,-2.4602,-2.4181,-2.4535,-2.4725,-2.42,-2.4551,-2.4902,-2.4902,-2.4968,-2.5025,-2.5025,-2.4241,-2.3538,-2.3194,-2.2638,-2.2179,-2.1788,-2.1624,-2.1754,-2.2278,-2.1819,-2.177,-2.2294,-2.1803,-2.1525,-2.1525,-2.1525,-2.1525,-2.1525,-2.1525,-2.1509,-2.1462,-2.1118,-2.1086,-2.7418,-2.8203,-2.9016,-3.077,-3.2413,-3.3553,-3.3325,-3.482,-3.6454,-3.7245,-3.8352,-3.9505,-4.0488,-4.1151,-4.1362,-4.0744,-4.1151,-4.1137,-3.9929,-3.9774,-3.9774,-3.9746,-3.9774,-4.0013,-4.0589,-4.0656,-4.0328,-3.9553,-3.9803,-3.9632,-3.8804,-3.7898,-3.7389,-3.7345,-3.63,-3.572,-3.572,-3.572,-3.572,-3.572,-3.5572,-3.5504,-3.5504,-3.5504,-3.5504,-3.5504,-3.5504,-3.5504,-3.5504,-3.5504,-3.51,-3.4444,-3.3769,-3.311,-3.2407,-3.175,-3.1511,-3.1406,-3.0746,-3.0507,-3.0402,-2.9759,-2.9116,-2.8607,-2.8577,-2.8124,-2.76,-2.7625,-2.761,-2.76,-2.7625,-2.761,-2.724,-2.5914,-2.56,-2.5348,-2.4489,-2.4302,-2.4431,-2.4808,-2.4887,-2.4902,-2.4871,-2.4887,-2.4902,-2.4902,-2.4906,-2.491,-2.491,-2.3689,-2.307,-2.3699,-2.2028,-2.108,-2.1662,-2.1174,-2.0827,-2.0859,-2.0827,-2.0827,-2.0859,-2.0827,-2.0827,-2.0827,-2.0827,-2.0827,-2.0827,-2.0827,-2.0762,-2.0647,-2.063,-2.0531,-2.7933,-2.891,-3.0027,-3.1867,-3.29,-3.349,-3.3783,-3.5507,-3.7099,-3.7363,-3.8266,-3.8992,-3.8876,-3.9367,-3.9718,-3.9563,-4.0336,-4.0997,-4.0997,-4.0645,-4.0238,-3.9831,-4.014,-4.0308,-4.0112,-3.9729,-3.9359,-3.9065,-3.9016,-3.8693,-3.7996,-3.7649,-3.7297,-3.6944,-3.5929,-3.5433,-3.5587,-3.5587,-3.5587,-3.5587,-3.5537,-3.5504,-3.5504,-3.5504,-3.5504,-3.5504,-3.5504,-3.5504,-3.5504,-3.5504,-3.4831,-3.3799,-3.3589,-3.2826,-3.1809,-3.1585,-3.1511,-3.1466,-3.1241,-3.1152,-3.1047,-3.0417,-3.0043,-2.9699,-2.8861,-2.8442,-2.8184,-2.772,-2.76,-2.76,-2.76,-2.76,-2.727,-2.5929,-2.5615,-2.5287,-2.409,-2.3846,-2.3888,-2.4006,-2.4027,-2.4027,-2.4027,-2.4027,-2.4027,-2.4027,-2.4542,-2.4902,-2.4902,-2.4492,-2.392,-2.3225,-2.2923,-2.2323,-2.1204,-2.1282,-2.1219,-2.0826,-2.0794,-2.0794,-2.0794,-2.0794,-2.0794,-2.0794,-2.0794,-2.0794,-2.0794,-2.0712,-2.063,-2.0597,-2.0225,-2.0158,-2.8674,-2.9689,-3.0787,-3.2352,-3.3078,-3.3518,-3.3758,-3.5403,-3.6959,-3.7212,-3.7665,-3.8018,-3.7936,-3.8243,-3.8354,-3.7692,-3.8986,-4.0097,-4.0266,-4.0154,-4.0055,-4.0112,-4.0449,-4.0547,-4.0154,-3.9394,-3.8902,-3.8833,-3.8857,-3.8484,-3.7585,-3.7252,-3.686,-3.6354,-3.5541,-3.5097,-3.5067,-3.5359,-3.5504,-3.5504,-3.5504,-3.5504,-3.5504,-3.5504,-3.5504,-3.5504,-3.5504,-3.5504,-3.5489,-3.5235,-3.4622,-3.3799,-3.332,-3.2632,-3.1824,-3.1585,-3.1511,-3.1511,-3.1511,-3.1511,-3.1436,-3.0987,-3.0552,-3.0028,-2.9205,-2.8607,-2.8143,-2.772,-2.76,-2.76,-2.76,-2.76,-2.727,-2.5929,-2.5615,-2.5241,-2.3894,-2.3595,-2.3595,-2.3595,-2.3595,-2.3595,-2.3595,-2.3595,-2.3595,-2.3595,-2.4069,-2.4348,-2.4151,-2.3902,-2.3313,-2.2177,-2.2208,-2.1804,-2.0519,-2.0748,-2.081,-2.0441,-2.041,-2.041,-2.041,-2.041,-2.041,-2.041,-2.041,-2.0393,-2.0375,-2.0273,-2.0222,-2.0137,-1.9785,-1.9717,-2.9433,-3.0432,-3.1318,-3.2282,-3.3099,-3.363,-3.3331,-3.4653,-3.6116,-3.6726,-3.663,-3.6689,-3.7522,-3.7737,-3.7259,-3.5611,-3.7397,-3.8804,-3.8215,-3.8608,-3.9436,-4.0561,-4.0702,-4.0702,-4.0702,-3.9634,-3.8986,-3.8902,-3.9226,-3.8856,-3.7643,-3.6749,-3.6086,-3.5683,-3.5107,-3.4635,-3.4245,-3.5019,-3.5439,-3.5439,-3.5472,-3.5504,-3.5504,-3.5504,-3.5504,-3.5504,-3.5504,-3.5489,-3.54,-3.4741,-3.4474,-3.4279,-3.3006,-3.2497,-3.2363,-3.1735,-3.1511,-3.1511,-3.1511,-3.1511,-3.1496,-3.1466,-3.0642,-2.9636,-2.9577,-2.8663,-2.7645,-2.76,-2.76,-2.76,-2.76,-2.76,-2.727,-2.5929,-2.5615,-2.5241,-2.3894,-2.3595,-2.3595,-2.3595,-2.3595,-2.3595,-2.3595,-2.3595,-2.3595,-2.355,-2.355,-2.334,-2.2778,-2.2128,-2.1485,-2.0778,-2.0124,-1.9723,-1.9648,-1.9678,-1.9693,-1.9648,-1.9678,-1.9708,-1.9708,-1.9708,-1.9708,-1.9708,-1.9708,-1.9669,-1.9593,-1.9593,-1.9501,-1.9302,-1.9302,-1.9213,-3.0148,-3.1194,-3.2271,-3.2914,-3.3227,-3.3381,-3.3331,-3.4775,-3.5965,-3.5111,-3.5319,-3.5416,-3.4635,-3.5616,-3.6722,-3.7133,-3.8903,-4.0505,-4.1278,-4.0716,-4.035,-4.0659,-4.0702,-4.0702,-4.0702,-4.0407,-3.9859,-3.8986,-3.8402,-3.7862,-3.7323,-3.6495,-3.5807,-3.528,-3.4356,-3.3748,-3.3492,-3.4225,-3.461,-3.461,-3.5198,-3.5504,-3.5504,-3.5504,-3.5504,-3.5504,-3.5504,-3.522,-3.4726,-3.4578,-3.3903,-3.2976,-3.2647,-3.2183,-3.1735,-3.157,-3.1511,-3.1511,-3.1511,-3.1511,-3.1421,-3.0913,-3.0537,-3.0088,-2.9146,-2.8607,-2.8233,-2.775,-2.76,-2.76,-2.76,-2.76,-2.727,-2.5929,-2.5615,-2.5241,-2.3894,-2.3595,-2.3595,-2.3595,-2.3595,-2.3595,-2.3595,-2.3595,-2.3445,-2.3002,-2.2927,-2.2868,-2.2718,-2.2553,-2.1994,-2.0823,-2.0557,-2.0049,-1.9046,-1.9405,-1.9498,-1.8986,-1.9405,-1.9708,-1.9708,-1.9708,-1.9708,-1.9708,-1.9708,-1.9669,-1.9593,-1.9501,-1.9395,-1.9302,-1.9195,-1.912,-3.1478,-3.2677,-3.3944,-3.4252,-3.412,-3.3776,-3.3351,-3.4419,-3.5166,-3.3914,-3.4108,-3.4172,-3.3087,-3.4646,-3.6061,-3.5911,-3.8145,-4.014,-4.0899,-4.0575,-4.0393,-4.0674,-4.0926,-4.0997,-4.073,-4.0449,-4.0013,-3.9366,-3.8611,-3.787,-3.7159,-3.6183,-3.5344,-3.4641,-3.3826,-3.333,-3.3192,-3.363,-3.3973,-3.4312,-3.4758,-3.5166,-3.5504,-3.5504,-3.5504,-3.5504,-3.5504,-3.5295,-3.4876,-3.4292,-3.3784,-3.329,-3.2422,-3.2004,-3.1899,-3.1615,-3.1511,-3.1511,-3.1511,-3.1511,-3.1391,-3.0731,-3.0118,-2.9535,-2.8816,-2.8382,-2.8094,-2.7705,-2.76,-2.76,-2.76,-2.76,-2.727,-2.5929,-2.5615,-2.5241,-2.3894,-2.3595,-2.3595,-2.3595,-2.3595,-2.3595,-2.3595,-2.3595,-2.3385,-2.2793,-2.2703,-2.2493,-2.1889,-2.1814,-2.1306,-1.9974,-1.9806,-1.9525,-1.8762,-1.9046,-1.9226,-1.9136,-1.9498,-1.9708,-1.9708,-1.9708,-1.969,-1.965,-1.965,-1.9596,-1.9483,-1.9395,-1.9321,-1.9195,-1.9139,-1.9101,-3.2927,-3.412,-3.535,-3.535,-3.4897,-3.4247,-3.3325,-3.3743,-3.3971,-3.2907,-3.2896,-3.2884,-3.2252,-3.4028,-3.5259,-3.4112,-3.6712,-3.9015,-3.9352,-3.9746,-4.0154,-4.0533,-4.1109,-4.1221,-4.0519,-4.0041,-3.9718,-3.955,-3.9044,-3.8227,-3.6936,-3.5808,-3.4734,-3.3791,-3.3256,-3.2974,-3.2911,-3.3017,-3.3422,-3.4177,-3.4245,-3.471,-3.5504,-3.5504,-3.5504,-3.5504,-3.5504,-3.5444,-3.5265,-3.4023,-3.3784,-3.4038,-3.2213,-3.1854,-3.2288,-3.1705,-3.1511,-3.1511,-3.1511,-3.1451,-3.1256,-3.0612,-2.9624,-2.8697,-2.8517,-2.8053,-2.76,-2.76,-2.76,-2.76,-2.76,-2.7525,-2.7151,-2.5899,-2.5516,-2.5136,-2.3864,-2.3595,-2.3595,-2.3595,-2.3595,-2.3595,-2.3595,-2.3595,-2.3385,-2.2793,-2.2703,-2.2224,-2.0868,-2.0703,-2.021,-1.8972,-1.8747,-1.8702,-1.8702,-1.8702,-1.8957,-1.9528,-1.9648,-1.9708,-1.9708,-1.9708,-1.9672,-1.9593,-1.9593,-1.9501,-1.9302,-1.9302,-1.9228,-1.9101,-1.9101,-1.9101,-3.3158,-3.357,-3.4115,-3.4115,-3.3689,-3.3171,-3.2803,-3.2946,-3.2744,-3.123,-3.1482,-3.1723,-3.0965,-3.2047,-3.393,-3.6669,-3.8088,-3.9633,-4.1687,-4.1573,-4.0969,-4.0041,-4.0491,-4.0407,-3.9338,-3.9591,-3.9353,-3.8313,-3.8131,-3.7526,-3.6328,-3.5583,-3.4344,-3.2481,-3.1773,-3.1371,-3.1371,-3.1992,-3.2648,-3.3388,-3.4007,-3.471,-3.5504,-3.5504,-3.5504,-3.5504,-3.5504,-3.519,-3.4592,-3.3814,-3.3245,-3.2766,-3.1854,-3.157,-3.166,-3.154,-3.1511,-3.1511,-3.1511,-3.1137,-3.0582,-2.9953,-2.9621,-2.9232,-2.8109,-2.769,-2.76,-2.76,-2.76,-2.76,-2.76,-2.7195,-2.6572,-2.5794,-2.5173,-2.456,-2.3774,-2.3595,-2.3595,-2.3595,-2.3595,-2.3595,-2.3595,-2.3595,-2.3385,-2.2793,-2.2703,-2.2224,-2.0868,-2.0703,-2.0408,-1.96,-1.9031,-1.8702,-1.8702,-1.8702,-1.8747,-1.8867,-1.9393,-1.9708,-1.9708,-1.9708,-1.9672,-1.9593,-1.9593,-1.9501,-1.9302,-1.9302,-1.9228,-1.9101,-1.9101,-1.9101,-3.4343,-3.4653,-3.5009,-3.5009,-3.4736,-3.4174,-3.2795,-3.266,-3.2228,-3.0173,-3.0464,-3.0837,-3.0157,-3.1831,-3.3796,-3.5278,-3.74,-3.9197,-4.0027,-4.0716,-4.08,-3.9901,-4.0041,-3.9985,-3.9436,-3.9366,-3.8917,-3.7976,-3.7906,-3.7358,-3.6174,-3.4845,-3.3399,-3.1877,-3.1272,-3.0986,-3.0986,-3.1371,-3.1882,-3.2648,-3.3388,-3.4124,-3.4905,-3.5326,-3.5504,-3.5504,-3.5504,-3.5325,-3.4966,-3.4277,-3.3619,-3.2961,-3.2273,-3.1809,-3.1511,-3.1511,-3.1511,-3.1511,-3.1511,-3.1286,-3.0853,-2.9909,-2.934,-2.8876,-2.7899,-2.76,-2.76,-2.76,-2.76,-2.76,-2.76,-2.736,-2.6866,-2.5839,-2.4814,-2.3999,-2.367,-2.3595,-2.3595,-2.3595,-2.3595,-2.3595,-2.3595,-2.3595,-2.3385,-2.2793,-2.2703,-2.2224,-2.0868,-2.0703,-2.0453,-1.9768,-1.9091,-1.8837,-1.9181,-1.8897,-1.8852,-1.9196,-1.9528,-1.9708,-1.9708,-1.9708,-1.965,-1.9501,-1.9501,-1.9395,-1.9195,-1.9195,-1.9157,-1.9101,-1.9101,-1.9101,-3.5723,-3.6033,-3.6263,-3.6263,-3.6133,-3.5413,-3.3111,-3.2654,-3.2028,-2.9697,-2.9792,-3.0147,-2.9701,-3.1564,-3.322,-3.3276,-3.577,-3.7737,-3.7878,-3.9283,-4.0126,-3.9634,-3.9816,-3.9816,-3.9423,-3.9113,-3.8593,-3.7765,-3.7456,-3.6855,-3.5849,-3.3949,-3.2496,-3.1643,-3.1198,-3.0986,-3.0986,-3.0986,-3.1371,-3.211,-3.2684,-3.3408,-3.4312,-3.4938,-3.5359,-3.5504,-3.5504,-3.5504,-3.5444,-3.4788,-3.4114,-3.3425,-3.2766,-3.2079,-3.1511,-3.1511,-3.1511,-3.1511,-3.1511,-3.1511,-3.1286,-2.9998,-2.922,-2.8652,-2.7854,-2.76,-2.76,-2.76,-2.76,-2.76,-2.76,-2.748,-2.7091,-2.5884,-2.4807,-2.3984,-2.3849,-2.3819,-2.3774,-2.3625,-2.3595,-2.3595,-2.3595,-2.3595,-2.343,-2.2957,-2.2897,-2.2418,-2.1077,-2.0897,-2.0602,-1.9798,-1.9226,-1.9121,-1.9663,-1.9211,-1.9136,-1.9678,-1.9708,-1.9708,-1.9708,-1.9708,-1.9617,-1.9465,-1.9413,-1.9321,-1.9139,-1.9101,-1.9101,-1.9101,-1.9101,-1.9101,-3.6783,-3.6811,-3.6814,-3.6814,-3.6532,-3.5728,-3.3668,-3.2966,-3.2113,-2.9996,-2.9627,-2.9673,-2.9617,-2.9841,-3.0755,-3.2926,-3.3607,-3.4787,-3.7512,-3.8552,-3.9057,-3.9,-3.9929,-3.9943,-3.8243,-3.8593,-3.841,-3.7161,-3.6075,-3.5237,-3.475,-3.3133,-3.2013,-3.1593,-3.1198,-3.0986,-3.0986,-3.0986,-3.1371,-3.211,-3.2182,-3.2953,-3.4312,-3.438,-3.4791,-3.5504,-3.5504,-3.5504,-3.5444,-3.4788,-3.4114,-3.3425,-3.2766,-3.2079,-3.1511,-3.1511,-3.1511,-3.1511,-3.1511,-3.1511,-3.1286,-2.9998,-2.9577,-2.9277,-2.7989,-2.76,-2.76,-2.76,-2.76,-2.76,-2.76,-2.7151,-2.6497,-2.5779,-2.551,-2.5255,-2.4634,-2.4515,-2.4335,-2.3729,-2.3595,-2.3595,-2.3595,-2.3595,-2.358,-2.352,-2.352,-2.3056,-2.1769,-2.1605,-2.1111,-1.9842,-1.9648,-1.9633,-1.9693,-1.9648,-1.9633,-1.9708,-1.9708,-1.9708,-1.9708,-1.9708,-1.9654,-1.9574,-1.9465,-1.9358,-1.9284,-1.9157,-1.9101,-1.9101,-1.9101,-1.9101,-3.7174,-3.7324,-3.7281,-3.7281,-3.6776,-3.5885,-3.4235,-3.3178,-3.2044,-3.0368,-2.9806,-2.9602,-2.9602,-2.9602,-2.9926,-3.0923,-3.2342,-3.3621,-3.4478,-3.6079,-3.7496,-3.8201,-3.806,-3.806,-3.844,-3.8072,-3.7411,-3.6539,-3.5442,-3.4501,-3.3731,-3.2663,-3.185,-3.1272,-3.1099,-3.0986,-3.0986,-3.0986,-3.1161,-3.1431,-3.1869,-3.2398,-3.3024,-3.3891,-3.4461,-3.4791,-3.5279,-3.5504,-3.5489,-3.5205,-3.4696,-3.4099,-3.3799,-3.329,-3.2662,-3.2243,-3.2093,-3.2034,-3.1645,-3.1511,-3.1346,-3.0447,-2.9906,-2.9352,-2.8004,-2.76,-2.76,-2.76,-2.76,-2.76,-2.76,-2.7106,-2.6422,-2.5764,-2.5615,-2.5435,-2.4754,-2.4605,-2.453,-2.4246,-2.3879,-2.3595,-2.3595,-2.3595,-2.3595,-2.3595,-2.3281,-2.2733,-2.1814,-2.135,-2.0737,-1.9813,-1.9708,-1.9708,-1.9708,-1.9708,-1.9708,-1.9708,-1.9708,-1.9708,-1.9708,-1.9708,-1.9672,-1.9593,-1.9483,-1.9376,-1.9302,-1.9157,-1.9101,-1.9101,-1.9101,-1.9101,-3.7554,-3.8032,-3.8256,-3.8256,-3.7571,-3.6507,-3.4978,-3.3747,-3.2452,-3.071,-3.0085,-2.9806,-2.9634,-2.9602,-2.9602,0.0,-3.1078,-3.2202,-3.2145,-3.3775,-3.5433,-3.6669,-3.6206,-3.6427,-3.7932,-3.7271,-3.6581,-3.6131,-3.5097,-3.4136,-3.3287,-3.254,-3.1776,-3.1024,-3.0986,-3.0986,-3.0986,-3.0986,-3.0986,-3.1024,-3.1542,-3.1869,-3.2146,-3.3164,-3.3891,-3.4346,-3.4905,-3.5279,-3.5504,-3.5504,-3.51,-3.4503,-3.4503,-3.4099,-3.3425,-3.2766,-3.2512,-3.2392,-3.1735,-3.1511,-3.1391,-3.0731,-3.0088,-2.9397,-2.8244,-2.7764,-2.76,-2.76,-2.76,-2.76,-2.76,-2.7255,-2.6791,-2.6303,-2.6033,-2.5719,-2.5038,-2.4739,-2.4545,-2.4335,-2.3924,-2.3595,-2.3595,-2.3595,-2.3595,-2.3595,-2.3092,-2.2463,-2.1784,-2.1111,-2.0453,-1.9768,-1.9708,-1.9708,-1.9708,-1.9708,-1.9708,-1.9708,-1.9708,-1.9708,-1.9708,-1.9672,-1.965,-1.9593,-1.9465,-1.9358,-1.9302,-1.9157,-1.9045,-1.8917,-1.9045,-1.9101,-3.8043,-3.9082,-3.996,-3.996,-3.9184,-3.791,-3.6086,-3.4911,-3.3471,-3.1026,-3.0494,-3.0313,-2.9727,-2.9602,-2.9602,-2.9602,-2.9631,-3.008,-3.1316,-3.2047,-3.2904,-3.409,-3.4801,-3.5442,-3.6075,-3.6131,-3.6117,-3.6103,-3.4927,-3.4008,-3.3601,-3.2623,-3.1776,-3.1024,-3.0986,-3.0986,-3.0986,-3.0986,-3.0986,-3.0986,-3.1024,-3.1394,-3.211,-3.211,-3.2918,-3.4312,-3.4312,-3.4758,-3.5504,-3.5504,-3.51,-3.4503,-3.4503,-3.4099,-3.3425,-3.2766,-3.2512,-3.2392,-3.1735,-3.1511,-3.1391,-3.0731,-3.0088,-2.9487,-2.8801,-2.8139,-2.76,-2.76,-2.76,-2.76,-2.76,-2.7585,-2.7585,-2.757,-2.7076,-2.6393,-2.5734,-2.5068,-2.4395,-2.3744,-2.3595,-2.3595,-2.3595,-2.3595,-2.3595,-2.3595,-2.3092,-2.2463,-2.1784,-2.1111,-2.0453,-1.9768,-1.9708,-1.9708,-1.9708,-1.9708,-1.9708,-1.9708,-1.9708,-1.9708,-1.9708,-1.9647,-1.9593,-1.9593,-1.9395,-1.9302,-1.9302,-1.9157,-1.8898,-1.8519,-1.8898,-1.9101,-3.6506,-3.7312,-3.8026,-3.8026,-3.7218,-3.6227,-3.5583,-3.42,-3.2849,-3.1856,-3.1058,-3.0404,-3.0129,-2.982,-2.9602,-2.9602,-2.9968,-3.0375,-3.0769,-3.1738,-3.3016,-3.4711,-3.615,-3.695,-3.6764,-3.6356,-3.5934,-3.5513,-3.444,-3.3545,-3.3007,-3.2404,-3.1873,-3.1421,-3.1123,-3.0986,-3.0986,-3.0986,-3.0986,-3.0986,-3.0986,-3.1123,-3.1371,-3.1882,-3.2648,-3.3533,-3.3643,-3.4112,-3.4771,-3.4322,-3.4008,-3.3799,-3.3799,-3.3679,-3.3425,-3.2766,-3.2512,-3.2392,-3.1735,-3.1511,-3.1466,-3.1256,-3.0746,-3.0178,-2.9968,-2.8801,-2.76,-2.76,-2.76,-2.76,-2.76,-2.76,-2.748,-2.7031,-2.7106,-2.7106,-2.6422,-2.5764,-2.5217,-2.5016,-2.4223,-2.3595,-2.3595,-2.3595,-2.3595,-2.3595,-2.2697,-2.1934,-2.1724,-2.0707,-2.0109,-2.0363,-1.9974,-1.9708,-1.9708,-1.9708,-1.9708,-1.9708,-1.9708,-1.9708,-1.9708,-1.9672,-1.965,-1.9593,-1.9176,-1.9064,-1.9302,-1.8572,-1.8305,-1.85,-1.863,-1.8688,-3.5514,-3.6397,-3.7163,-3.7103,-3.6258,-3.5391,-3.5322,-3.3845,-3.2465,-3.2247,-3.1291,-3.0464,-3.0312,-2.9898,-2.9602,-2.9602,-2.994,-3.0347,-3.0825,-3.1569,-3.2651,-3.4267,-3.592,-3.675,-3.637,-3.5991,-3.5695,-3.5541,-3.4135,-3.3201,-3.3049,-3.2432,-3.1946,-3.1593,-3.1347,-3.1235,-3.1235,-3.1099,-3.0986,-3.0986,-3.0986,-3.0986,-3.1024,-3.1468,-3.2101,-3.2798,-3.2888,-3.3365,0.0,-3.3676,-3.3499,-3.3499,-3.3499,-3.3499,-3.3425,-3.2766,-3.2512,-3.2392,-3.1735,-3.1511,-3.1511,-3.1511,-3.0883,-3.0058,-2.9549,-2.8727,-2.7929,-2.766,-2.76,-2.76,-2.76,-2.76,-2.7495,-2.7091,-2.6926,-2.6746,-2.6303,-2.5495,-2.4852,-2.4852,-2.4178,-2.3595,-2.3595,-2.3595,-2.3595,-2.3595,-2.2727,-2.2089,-2.2089,-2.1145,-2.0513,-2.0673,-2.0187,-1.9757,-1.9505,-1.9457,-1.9457,-1.9406,-1.9406,-1.9332,-1.9184,-1.924,-1.9217,-1.9035,-1.8616,-1.8519,-1.8726,-1.7948,-1.7787,-1.8226,-1.8068,-1.8088,0.0,-3.6108,-3.7013,-3.691,-3.6009,-3.5193,-3.5193,-3.3782,0.0,-3.2274,-3.1349,-3.0524,-3.0372,-2.9929,-2.9602,-2.9602,-2.9602,-3.0052,-3.1316,-3.164,-3.2188,-3.3382,-3.452,-3.5245,-3.5152,-3.5147,-3.5321,-3.5859,-3.3918,-3.2938,-3.3468,-3.2609,-3.1946,-3.1666,-3.1593,-3.1593,-3.1556,-3.1198,-3.0986,-3.0986,-3.0986,-3.0986,-3.0986,-3.0986,-3.1394,-3.2119,-3.2118,-3.259,-3.3329,-3.3337,-3.3364,-3.3365,-3.3365,-3.3365,-3.3275,-3.2677,-3.2437,-3.2333,-3.172,-3.1466,-3.1421,-3.1376,-3.0567,-2.9367,-2.8064,-2.8053,-2.8397,-2.7779,-2.76,-2.76,-2.76,-2.76,-2.76,-2.76,-2.6602,-2.5674,-2.5674,-2.4627,-2.367,-2.367,-2.3625,-2.3595,-2.3595,-2.3595,-2.3595,-2.3595,-2.3092,-2.2703,-2.2703,-2.2054,-2.141,-2.0823,-2.0352,-1.9812,-1.9217,-1.9093,-1.8993,-1.8855,-1.8855,-1.8684,-1.8305,-1.8461,-1.8408,-1.8106,-1.7894,-1.7767,-1.772,-1.7372,-1.7393,-1.776,-1.7372,-1.7393,-3.4058,0.0,-3.4696,-3.4643,-3.443,-3.419,0.0,-3.3646,-3.316,-3.28,-3.1951,-3.119,-3.0881,-3.0174,-2.9602,-2.9602,-2.9602,-3.0052,-3.1316,-3.315,-3.4612,-3.5335,-3.5723,-3.5597,-3.4821,-3.4547,-3.425,-3.3847,-3.3106,-3.2616,-3.2477,-3.2246,-3.2055,-3.1982,-3.174,-3.1445,-3.1123,-3.1061,-3.0986,-3.0986,-3.0986,-3.0986,-3.0986,-3.0986,-3.1394,-3.2083,-3.1556,-3.183,-3.2611,-3.2101,-3.1928,-3.1974,-3.1974,-3.1974,-3.1944,-3.1795,-3.1735,-3.1705,-3.1555,-3.1152,-3.0672,-3.0193,-2.9834,-2.9457,-2.8607,-2.8113,-2.7809,-2.7645,-2.76,-2.76,-2.76,-2.76,-2.76,-2.76,-2.6971,-2.6363,-2.6363,-2.5315,-2.4365,-2.4365,-2.3947,-2.3595,-2.3595,-2.3595,-2.3595,-2.3595,-2.3092,-2.2703,-2.2703,-2.1665,-2.1062,-2.1425,-2.0452,-1.9771,-1.972,-1.8958,-1.8461,-1.8428,-1.8341,-1.8243,-1.8145,-1.8185,-1.8159,-1.8028,-1.7868,-1.7462,-1.6808,-1.706,-1.7261,-1.7344,-1.724,-1.7261,-3.372,-3.3848,-3.3949,-3.3848,-3.3797,-3.372,-3.3366,-3.298,-3.2602,-3.2401,-3.148,-3.0748,-3.0792,-3.0387,-2.994,-2.9659,-3.0333,-3.1232,-3.2202,-3.3445,-3.4425,-3.4915,-3.491,-3.4723,-3.4365,-3.3928,-3.3546,-3.3139,-3.2554,-3.2092,-3.1873,-3.1873,-3.1776,-3.1593,-3.1593,-3.1482,-3.1272,-3.1099,-3.0986,-3.0986,-3.0986,-3.0986,-3.0986,-3.0986,-3.1222,-3.1613,-3.1605,-3.1712,-3.1915,-3.1899,-3.1738,-3.1511,-3.1511,-3.1511,-3.1511,-3.1511,-3.1511,-3.1511,-3.1511,-3.1047,-3.0357,-2.943,-2.9131,-2.9011,-2.8323,-2.7899,-2.76,-2.76,-2.76,-2.76,-2.76,-2.76,-2.76,-2.76,-2.7091,-2.6512,-2.6213,-2.5322,-2.4515,-2.4201,-2.3849,-2.353,-2.3312,-2.3465,-2.3443,-2.2972,-2.2842,-2.2787,-2.2787,-2.2161,-2.1645,-2.1454,-2.0577,-1.9704,-1.8961,-1.8139,-1.7707,-1.7834,-1.778,-1.7646,-1.7469,-1.7612,-1.7571,-1.7318,-1.7235,-1.6964,-1.65,-1.6744,-1.6884,-1.6884,-1.6884,-1.6884,-3.3591,-3.3864,-3.4105,-3.3784,-3.3642,-3.3445,-3.3018,-3.2296,-3.1751,-3.1809,-3.0837,-3.0113,-3.0638,-3.052,-3.0217,-2.9827,-3.1316,-3.2757,-3.3388,-3.3463,-3.3529,-3.3611,-3.3463,-3.3451,-3.3634,-3.3213,-3.2878,-3.2779,-3.2035,-3.1556,-3.1519,-3.1519,-3.1347,-3.1024,-3.1347,-3.1519,-3.1519,-3.1161,-3.0986,-3.0986,-3.0986,-3.0986,-3.0986,-3.0986,-3.0934,-3.0904,-3.1705,-3.169,-3.1204,-3.2008,-3.2005,-3.1511,-3.1511,-3.1511,-3.1511,-3.1511,-3.1511,-3.1496,-3.1376,-3.0926,-3.0163,-2.8981,-2.8607,-2.8472,-2.7809,-2.76,-2.76,-2.76,-2.76,-2.76,-2.76,-2.76,-2.76,-2.76,-2.7091,-2.6408,-2.5749,-2.5022,-2.4328,-2.3708,-2.3486,-2.3275,-2.2957,-2.3143,-2.3084,-2.2221,-2.2489,-2.2777,-2.2777,-2.2626,-2.2091,-2.1063,-2.0428,-1.9433,-1.7767,-1.7227,-1.7018,-1.7167,-1.7167,-1.7026,-1.6675,-1.6926,-1.6905,-1.6522,-1.65,-1.65,-1.65,-1.65,-1.65,-1.65,-1.65,-1.65,-3.306,-3.3713,-3.4391,-3.3825,-3.3314,-3.3018,-3.3314,-3.2602,-3.1964,-3.2231,-3.1407,-3.0788,-3.1264,-3.0463,-2.9897,-3.0273,-3.1929,-3.3437,-3.42,-3.4796,-3.482,-3.3963,-3.3424,-3.285,-3.2061,-3.2148,-3.1984,-3.138,-3.1498,-3.1445,-3.1099,-3.1099,-3.1061,-3.0986,-3.1061,-3.1099,-3.1099,-3.1024,-3.0986,-3.0986,-3.0986,-3.0986,-3.0986,-3.0986,-3.0725,-3.0291,-3.0976,-3.0979,-3.06,-3.1293,-3.1543,-3.1511,-3.1511,-3.1511,-3.1511,-3.1511,-3.1511,-3.1421,-3.0838,-3.0253,-2.9594,-2.8846,-2.8607,-2.8472,-2.7809,-2.76,-2.76,-2.76,-2.76,-2.76,-2.76,-2.76,-2.76,-2.76,-2.7091,-2.6408,-2.5749,-2.476,-2.3935,-2.3649,-2.2905,-2.2452,-2.283,-2.2581,-2.2291,-2.2128,-2.2175,-2.2221,-2.2221,-2.134,-2.0577,-2.0294,-1.9258,-1.828,-1.7428,-1.7305,-1.7055,-1.6659,-1.6616,-1.6595,-1.6522,-1.6586,-1.6565,-1.65,-1.65,-1.65,-1.65,-1.65,-1.65,-1.65,-1.65,-1.65,-3.2749,-3.2925,-3.322,-3.3527,-3.3896,-3.4089,-3.362,-3.3126,-3.2553,-3.1797,-3.1183,-3.0824,-3.0937,-3.0825,-3.1175,-3.2618,-3.2707,-3.2854,-3.3584,-3.3305,-3.2793,-3.2176,-3.1847,-3.1553,-3.131,-3.1421,-3.1384,-3.1024,-3.1161,-3.1198,-3.1024,-3.0986,-3.0986,-3.0986,-3.0986,-3.0986,-3.0986,-3.0986,-3.0986,-3.0986,-3.0986,-3.0986,-3.0973,-3.066,-3.0348,-3.0111,-3.0529,-3.0602,-3.0441,-3.1157,-3.1483,-3.1511,-3.1511,-3.1511,-3.1467,-3.1087,-3.0778,-3.0425,-2.9682,-2.9041,-2.851,-2.8174,-2.8062,-2.8004,-2.769,-2.7382,-2.7126,-2.7126,-2.7357,-2.76,-2.76,-2.76,-2.76,-2.76,-2.7091,-2.6359,-2.5416,-2.4526,-2.3691,-2.2923,-2.2429,-2.2105,-2.2086,-2.2095,-2.1917,-2.142,-2.1565,-2.1732,-2.1732,-2.1152,-2.0539,-1.985,-1.9211,-1.833,-1.707,-1.6976,-1.6829,-1.6522,-1.65,-1.65,-1.65,-1.65,-1.65,-1.65,-1.65,-1.65,-1.65,-1.65,-1.65,-1.65,-1.65,-1.65,-3.2492,-3.2346,-3.2402,-3.2972,-3.3807,-3.4358,-3.3965,-3.3532,-3.2912,-3.1876,-3.1342,-3.1016,-3.082,-3.1239,-3.2165,-3.3764,-3.3027,-3.2438,-3.2995,-3.2025,-3.1175,-3.092,-3.0692,-3.0637,-3.0985,-3.0986,-3.0986,-3.0986,-3.0986,-3.0986,-3.0986,-3.0986,-3.0986,-3.0986,-3.0986,-3.0986,-3.0986,-3.0986,-3.0986,-3.0986,-3.0986,-3.0986,-3.096,-3.0529,-3.0153,-2.9938,-3.0229,-3.0239,-3.0025,-3.0896,-3.1276,-3.1278,-3.1278,-3.1161,-3.0999,-3.0807,-3.0177,-2.9362,-2.8934,-2.8397,-2.7882,-2.7695,-2.7733,-2.7784,-2.7493,-2.7074,-2.6669,-2.6537,-2.6826,-2.7214,-2.7357,-2.728,-2.724,-2.7534,-2.7111,-2.6342,-2.5301,-2.4592,-2.3837,-2.272,-2.2211,-2.189,-2.1651,-2.1708,-2.1527,-2.0823,-2.1021,-2.1229,-2.1229,-2.1021,-2.0465,-1.9413,-1.9193,-1.8528,-1.6997,-1.6856,-1.6771,-1.6513,-1.65,-1.65,-1.65,-1.65,-1.65,-1.65,-1.65,-1.65,-1.65,-1.65,-1.65,-1.65,-1.65,-1.65,-3.2188,-3.2641,-3.3168,-3.2248,-3.1797,-3.2213,-3.456,-3.3627,-3.2536,-3.3407,-3.2718,-3.184,-3.1633,-3.1563,-3.1582,-3.1711,-3.2427,-3.3009,-3.327,-3.2764,-3.2226,-3.1757,-3.1286,-3.0985,-3.1024,-3.0986,-3.0986,-3.0986,-3.0986,-3.0986,-3.0986,-3.0986,-3.0986,-3.0986,-3.0986,-3.0986,-3.0986,-3.0986,-3.0986,-3.0986,-3.0986,-3.0986,-3.0986,-3.0947,-3.0346,-2.9411,-3.0033,-2.9666,-2.8729,-3.0036,-3.0568,-3.0584,-3.0584,-3.0208,-2.9797,-3.0999,-3.0206,-2.8681,-2.9362,-2.9131,-2.8435,-2.7868,-2.8083,-2.8308,-2.7135,-2.6721,-2.659,-2.6014,-2.5906,-2.6054,-2.6616,-2.6336,-2.6215,-2.7316,-2.7148,-2.6484,-2.5717,-2.5216,-2.4677,-2.3837,-2.2537,-2.1691,-2.2162,-2.1442,-2.0774,-2.0699,-2.0724,-2.0749,-2.0749,-2.0265,-1.9569,-1.8758,-1.8673,-1.8303,-1.742,-1.7348,-1.7121,-1.6538,-1.65,-1.65,-1.65,-1.65,-1.65,-1.65,-1.65,-1.65,-1.65,-1.65,-1.65,-1.65,-1.65,-1.65,-3.1977,-3.2123,-3.2398,-3.19,-3.1375,-3.1611,-3.4025,-3.3998,-3.3374,-3.3157,-3.2744,-3.2177,-3.1349,-3.1567,-3.188,-3.188,-3.241,-3.2696,-3.2409,-3.2198,-3.1897,-3.1352,-3.1117,-3.0986,-3.0986,-3.0986,-3.0986,-3.0986,-3.0986,-3.0986,-3.0986,-3.0986,-3.0986,-3.0986,-3.0986,-3.0986,-3.0986,-3.0986,-3.0803,-3.0451,-3.0451,-3.0451,-3.0451,-3.0085,-2.9483,-2.8747,-2.9024,-2.8886,-2.8546,-2.9044,-2.9501,-2.9889,-2.9889,-2.9981,-3.0029,-2.9385,-2.8683,-2.7999,-2.7476,-2.6872,-2.6441,-2.6919,-2.7241,-2.7412,-2.7277,-2.6747,-2.6176,-2.631,-2.5865,-2.5425,-2.5987,-2.6256,-2.639,-2.6469,-2.6257,-2.5712,-2.4379,-2.3694,-2.3116,-2.2487,-2.1912,-2.1564,-2.1758,-2.1457,-2.1093,-2.0751,-2.0699,-2.0699,-2.0699,-2.0416,-1.9942,-1.9192,-1.8643,-1.8084,-1.7448,-1.741,-1.7137,-1.6538,-1.6861,-1.6886,-1.6513,-1.65,-1.65,-1.65,-1.65,-1.65,-1.65,-1.65,-1.65,-1.65,-1.65,-1.65,-3.1905,-3.1765,-3.1764,-3.1479,-3.1253,-3.1613,-3.3563,-3.3715,-3.3412,-3.3395,-3.2778,-3.1915,-3.094,-3.1318,-3.1762,-3.1578,-3.2043,-3.2228,-3.1615,-3.1536,-3.1418,-3.1026,-3.0986,-3.0986,-3.0986,-3.0986,-3.0986,-3.0986,-3.0986,-3.0986,-3.0986,-3.0986,-3.0895,-3.0725,-3.0895,-3.0817,-3.0487,-3.062,-3.0424,-2.9862,-2.9631,-2.9644,-2.9813,-2.9457,-2.8983,-2.842,-2.842,-2.8317,-2.8189,-2.8417,-2.8776,-2.9237,-2.9642,-2.9827,-2.9726,-2.8722,-2.8082,-2.7605,-2.6317,-2.5733,-2.5644,-2.6232,-2.6653,-2.6982,-2.7034,-2.6455,-2.581,-2.5851,-2.5328,-2.4806,-2.5175,-2.5575,-2.5881,-2.5795,-2.5493,-2.4857,-2.3699,-2.3152,-2.265,-2.1901,-2.1615,-2.1511,-2.1511,-2.1355,-2.1132,-2.0764,-2.0699,-2.0699,-2.0699,-2.0612,-2.0331,-1.9732,-1.8811,-1.81,-1.77,-1.7802,-1.7501,-1.655,-1.7225,-1.73,-1.6525,-1.65,-1.65,-1.65,-1.65,-1.65,-1.65,-1.65,-1.65,-1.65,-1.65,-1.65,-3.2005,-3.1694,-3.1542,-3.0931,-3.1268,-3.205,-3.3301,-3.2654,-3.2404,-3.4428,-3.2909,-3.1027,-3.052,-3.0853,-3.1014,-3.0507,-3.1191,-3.1602,-3.1065,-3.0986,-3.0986,-3.0986,-3.0986,-3.0986,-3.0973,-3.0986,-3.0986,-3.0973,-3.0986,-3.0986,-3.0973,-3.0973,-3.0712,-3.0113,-3.0673,-3.0424,-2.9323,-2.9849,-2.9836,-2.9297,-2.8708,-2.8721,-2.931,-2.931,-2.897,-2.8407,-2.842,-2.8059,-2.7556,-2.8222,-2.8468,-2.8629,-2.995,-2.9642,-2.8579,-2.9371,-2.8815,-2.7536,-2.6383,-2.6294,-2.6568,-2.5979,-2.6602,-2.7357,-2.6162,-2.5783,-2.555,-2.4434,-2.4112,-2.4112,-2.4112,-2.4096,-2.4382,-2.5506,-2.4915,-2.4081,-2.3984,-2.4046,-2.3743,-2.2536,-2.186,-2.1511,-2.1511,-2.1066,-2.0712,-2.0699,-2.0699,-2.0699,-2.0699,-2.0699,-2.0574,-2.0233,-1.9125,-1.8346,-1.8216,-1.8682,-1.8281,-1.6613,-1.7576,-1.7689,-1.6538,-1.65,-1.65,-1.65,-1.65,-1.65,-1.65,-1.65,-1.65,-1.65,-1.65,-1.65,-3.162,-3.1618,-3.1616,-3.0332,-3.0931,-3.1927,-3.2436,-3.2818,-3.3088,-3.319,-3.2057,-3.0915,-3.0484,-3.0742,-3.0902,-3.0471,-3.0863,-3.1182,-3.1013,-3.0986,-3.0986,-3.0986,-3.0986,-3.083,-3.0424,-3.0751,-3.0817,-3.0388,-3.0764,-3.0803,-3.0375,-3.0348,-3.0124,-2.9549,-2.9693,-2.9663,-2.931,-2.9444,-2.9235,-2.8669,-2.8499,-2.8499,-2.8682,-2.8682,-2.8333,-2.7798,-2.8203,-2.8059,-2.7497,-2.7321,-2.7452,-2.7762,-2.7341,-2.7511,-2.78,-2.6782,-2.6432,-2.6337,-2.5082,-2.4758,-2.4964,-2.5605,-2.5797,-2.5865,-2.6297,-2.5865,-2.5176,-2.4819,-2.4721,-2.4627,-2.4226,-2.3784,-2.3662,-2.441,-2.4658,-2.4393,-2.3152,-2.2884,-2.2683,-2.1877,-2.1615,-2.1511,-2.1511,-2.1368,-2.1145,-2.0764,-2.0699,-2.0687,-2.0562,-2.0562,-2.0423,-2.0093,-1.975,-1.932,-1.8819,-1.8556,-1.8066,-1.7187,-1.7061,-1.6839,-1.6513,-1.65,-1.65,-1.65,-1.65,-1.65,-1.65,-1.65,-1.65,-1.65,-1.65,-1.65,-3.1559,-3.1455,-3.1417,-3.0794,-3.1482,-3.2327,-3.2519,-3.2891,-3.2905,-3.2091,-3.1397,-3.0919,-3.0677,-3.0826,-3.0906,-3.0677,-3.0826,-3.0986,-3.0986,-3.0986,-3.0986,-3.0986,-3.079,-3.0516,-3.014,-3.0241,-3.0255,-3.0113,-3.0241,-3.0255,-3.0113,-2.9879,-2.9523,-2.897,-2.9192,-2.9052,-2.8595,-2.8804,-2.8621,-2.8033,-2.8033,-2.8033,-2.8033,-2.8033,-2.785,-2.7516,-2.7889,-2.7719,-2.7157,-2.6817,-2.6739,-2.6778,-2.6342,-2.6679,-2.7176,-2.5895,-2.5665,-2.5805,-2.4543,-2.4258,-2.4563,-2.5258,-2.526,-2.5149,-2.5822,-2.537,-2.4585,-2.4341,-2.4285,-2.4194,-2.3848,-2.3299,-2.3018,-2.3609,-2.3675,-2.3338,-2.2285,-2.2034,-2.1877,-2.1276,-2.1172,-2.1172,-2.1172,-2.1172,-2.108,-2.0751,-2.0699,-2.0687,-2.0587,-2.0587,-2.0448,-2.0118,-2.0093,-1.9788,-1.907,-1.8882,-1.8417,-1.7461,-1.7262,-1.7064,-1.6873,-1.6635,-1.65,-1.65,-1.65,-1.65,-1.65,-1.65,-1.65,-1.65,-1.65,-1.65,-3.1751,-3.1293,-3.1152,-3.1837,-3.2465,-3.2947,-3.3193,-3.2808,-3.2082,-3.1204,-3.0986,-3.0986,-3.0986,-3.0986,-3.0986,-3.0986,-3.0986,-3.096,-3.0921,-3.0908,-3.0895,-3.083,-3.0372,-2.9996,-2.9944,-2.9549,-2.947,-2.9905,-2.9536,-2.9483,-2.9918,-2.9483,-2.8957,-2.8355,-2.883,-2.8608,-2.7503,-2.8033,-2.8033,-2.749,-2.749,-2.749,-2.749,-2.749,-2.749,-2.749,-2.7438,-2.7157,-2.6693,-2.6588,-2.6242,-2.5842,-2.6361,-2.6606,-2.6579,-2.6022,-2.5835,-2.565,-2.4487,-2.4447,-2.492,-2.4977,-2.4943,-2.4851,-2.4914,-2.4502,-2.3892,-2.3232,-2.3104,-2.3197,-2.3065,-2.2675,-2.244,-2.2936,-2.2309,-2.1577,-2.1525,-2.1511,-2.1342,-2.0792,-2.0699,-2.0699,-2.0699,-2.0699,-2.0699,-2.0699,-2.0751,-2.0739,-2.0687,-2.0687,-2.0549,-2.0207,-2.0182,-1.9876,-1.9145,-1.9459,-1.9095,-1.7649,-1.7953,-1.7978,-1.7498,-1.6861,-1.6525,-1.6575,-1.6525,-1.65,-1.65,-1.65,-1.65,-1.65,-1.65,-1.65,-3.1793,-3.164,-3.1709,-3.1452,-3.1746,-3.2211,-3.2712,-3.2056,-3.1281,-3.105,-3.0986,-3.0986,-3.0986,-3.0986,-3.0986,-3.0986,-3.0986,-3.083,-3.0348,-3.0283,-3.015,-2.9742,-2.9536,-2.9274,-2.8804,-2.9078,-2.9131,-2.8778,-2.9114,-2.9118,-2.8778,-2.8669,-2.8307,-2.7699,-2.7837,-2.7751,-2.749,-2.762,-2.762,-2.749,-2.749,-2.749,-2.749,-2.749,-2.749,-2.7477,-2.7053,-2.6824,-2.6641,-2.5738,-2.5524,-2.5733,-2.4968,-2.4978,-2.5308,-2.4741,-2.45,-2.4474,-2.4181,-2.4171,-2.4361,-2.4835,-2.4361,-2.367,-2.4149,-2.3861,-2.3194,-2.2152,-2.2504,-2.2986,-2.2113,-2.1786,-2.1721,-2.1851,-2.2034,-2.2087,-2.1603,-2.1511,-2.1342,-2.0792,-2.0699,-2.0699,-2.0699,-2.0699,-2.0699,-2.0699,-2.1066,-2.1146,-2.0614,-2.0537,-2.041,-2.0093,-2.0042,-1.9927,-1.9648,-1.9334,-1.902,-1.8669,-1.838,-1.8154,-1.8028,-1.7039,-1.6713,-1.7209,-1.6748,-1.65,-1.65,-1.65,-1.65,-1.65,-1.65,-1.65,-3.2238,-3.1821,-3.1509,-3.1503,-3.1861,-3.2254,-3.228,-3.1823,-3.1313,-3.1039,-3.0986,-3.0986,-3.0986,-3.0986,-3.0986,-3.0986,-3.0764,-3.0477,-3.014,-2.9902,-2.9614,-2.9314,-2.9026,-2.876,-2.8446,-2.8412,-2.8425,-2.842,-2.8412,-2.8425,-2.842,-2.8124,-2.7706,-2.7144,-2.7392,-2.7372,-2.7118,-2.7118,-2.7262,-2.749,-2.6942,-2.6681,-2.6694,-2.7242,-2.7346,-2.7105,-2.6837,-2.6392,-2.5842,-2.524,-2.4988,-2.4918,-2.4318,-2.4295,-2.4517,-2.423,-2.4083,-2.4083,-2.4083,-2.4083,-2.4102,-2.4131,-2.3528,-2.2888,-2.3176,-2.3067,-2.2675,-2.2086,-2.2361,-2.2753,-2.2386,-2.1721,-2.1263,-2.1786,-2.176,-2.1485,-2.1184,-2.1132,-2.104,-2.0739,-2.0909,-2.1001,-2.0726,-2.0909,-2.1093,-2.1093,-2.1315,-2.1264,-2.0589,-2.0486,-2.0385,-2.0042,-1.999,-1.9952,-1.9798,-1.9547,-1.9271,-1.902,-1.8732,-1.8569,-1.8569,-1.7777,-1.7338,-1.741,-1.681,-1.65,-1.65,-1.65,-1.65,-1.65,-1.65,-1.65,-3.2688,-3.2058,-3.1474,-3.1912,-3.2267,-3.2411,-3.1902,-3.1732,-3.1523,-3.1078,-3.0986,-3.0986,-3.0986,-3.0986,-3.0986,-3.0986,-3.0503,-3.0061,-2.9957,-2.9483,-2.9127,-2.8987,-2.8543,-2.8229,-2.8229,-2.7798,-2.7699,-2.8203,-2.7798,-2.7699,-2.8203,-2.7693,-2.7157,-2.6719,-2.704,-2.7053,-2.6706,-2.6614,-2.687,-2.749,-2.6432,-2.5884,-2.5819,-2.6772,-2.6974,-2.6549,-2.6457,-2.5869,-2.4992,-2.4887,-2.4543,-2.4083,-2.4083,-2.4083,-2.4083,-2.4083,-2.4083,-2.4083,-2.4083,-2.4083,-2.4005,-2.3537,-2.2975,-2.2532,-2.2532,-2.2467,-2.2388,-2.2388,-2.2336,-2.2387,-2.2923,-2.1969,-2.1066,-2.2009,-2.1511,-2.0805,-2.0725,-2.0699,-2.0699,-2.0699,-2.1066,-2.125,-2.0896,-2.1276,-2.1629,-2.1525,-2.1603,-2.1368,-2.0627,-2.0486,-2.0322,-2.0067,-1.999,-1.9926,-1.9811,-1.9798,-1.9623,-1.9171,-1.9146,-1.9096,-1.9008,-1.8569,-1.8041,-1.7423,-1.6911,-1.66,-1.65,-1.65,-1.65,-1.65,-1.65,-1.65,-3.2674,-3.2625,-3.2891,-3.283,-3.2374,-3.1902,-3.1823,-3.1457,-3.1078,-3.0999,-3.0986,-3.0986,-3.0986,-3.0986,-3.0986,-3.0986,-3.0503,-2.9931,-2.947,-2.8917,-2.832,-2.779,-2.7659,-2.7607,-2.7607,-2.7542,-2.7529,-2.7594,-2.7542,-2.7529,-2.7607,-2.7092,-2.6784,-2.6706,-2.6269,-2.6242,-2.6706,-2.6177,-2.6446,-2.749,-2.687,-2.6308,-2.5806,-2.595,-2.5976,-2.5871,-2.545,-2.5136,-2.4966,-2.4439,-2.4178,-2.4083,-2.4083,-2.4083,-2.4083,-2.4083,-2.4083,-2.4083,-2.4083,-2.4083,-2.4083,-2.3992,-2.3589,-2.3106,-2.3106,-2.2779,-2.24,-2.2401,-2.2008,-2.176,-2.2362,-2.1956,-2.1433,-2.159,-2.1511,-2.1263,-2.0792,-2.0699,-2.0699,-2.0699,-2.0764,-2.0923,-2.1328,-2.1891,-2.21,-2.159,-2.1956,-2.189,-2.0793,-2.0423,-2.0207,-2.0182,-1.9965,-1.9837,-1.9798,-1.9798,-1.9773,-1.9698,-1.9698,-1.9472,-1.902,-1.8933,-1.8406,-1.7423,-1.7322,-1.7024,-1.65,-1.65,-1.65,-1.65,-1.65,-1.65,-3.2152,-3.2709,-3.3276,-3.2654,-3.2236,-3.1854,-3.1428,-3.1169,-3.0986,-3.0986,-3.0986,-3.0986,-3.0986,-3.0986,-3.0986,-3.0986,-3.0241,-2.9575,-2.9314,-2.849,-2.7811,-2.7529,-2.749,-2.749,-2.749,-2.749,-2.749,-2.749,-2.749,-2.7359,-2.7066,-2.685,-2.6562,-2.6216,-2.5955,-2.591,-2.619,-2.591,-2.6041,-2.6537,-2.5994,-2.562,-2.5328,-2.5014,-2.504,-2.5328,-2.511,-2.4626,-2.3995,-2.4073,-2.3887,-2.3613,-2.3981,-2.4083,-2.4083,-2.4083,-2.4083,-2.4083,-2.4083,-2.4083,-2.4031,-2.372,-2.3404,-2.3065,-2.2425,-2.2322,-2.2336,-2.1982,-2.1694,-2.1721,-2.2609,-2.1943,-2.1223,-2.1852,-2.1524,-2.0988,-2.0751,-2.0699,-2.0895,-2.1537,-2.138,-2.1525,-2.2766,-2.2897,-2.2753,-2.2505,-2.2412,-2.2073,-2.1147,-2.054,-2.0182,-2.0105,-1.9914,-1.9798,-1.9798,-1.9798,-1.9798,-1.9798,-1.9522,-1.9371,-1.9459,-1.8857,-1.8342,-1.7852,-1.7561,-1.7099,-1.65,-1.65,-1.65,-1.65,-1.65,-1.65,-3.1876,-3.2563,-3.3035,-3.2201,-3.2091,-3.1928,-3.0974,-3.1018,-3.1222,-3.1061,-3.0986,-3.0986,-3.0986,-3.0986,-3.0934,-3.079,-2.9928,-2.9258,-2.91,-2.8177,-2.749,-2.749,-2.749,-2.7438,-2.7327,-2.7411,-2.7438,-2.7327,-2.7411,-2.734,-2.6909,-2.6621,-2.6334,-2.6046,-2.5584,-2.5571,-2.6033,-2.6046,-2.5824,-2.5349,-2.5105,-2.4926,-2.4769,-2.4321,-2.4347,-2.4783,-2.4783,-2.4256,-2.3443,-2.39,-2.3822,-2.3456,-2.3913,-2.4083,-2.4083,-2.4083,-2.4083,-2.4083,-2.4083,-2.4083,-2.4018,-2.3561,-2.3446,-2.3234,-2.2256,-2.2139,-2.231,-2.1851,-2.1629,-2.1747,-2.2753,-2.2087,-2.1315,-2.2009,-2.1524,-2.0857,-2.0738,-2.0699,-2.1,-2.1982,-2.1799,-2.2008,-2.3587,-2.3393,-2.3041,-2.3197,-2.2595,-2.1968,-2.1419,-2.0669,-2.0156,-2.0067,-1.9888,-1.9798,-1.9798,-1.9798,-1.9798,-1.9798,-1.9409,-1.9309,-1.9597,-1.897,-1.848,-1.8216,-1.7802,-1.7237,-1.65,-1.65,-1.65,-1.65,-1.65,-1.65,-3.2172,-3.2282,-3.2101,-3.1714,-3.2074,-3.2082,-3.0513,-3.1143,-3.1846,-3.1161,-3.0986,-3.0986,-3.0986,-3.0986,-3.0803,-3.0231,-2.968,-2.9114,-2.8538,-2.7902,-2.749,-2.749,-2.749,-2.7314,-2.6798,-2.721,-2.7301,-2.6798,-2.7223,-2.7477,-2.7451,-2.6419,-2.6099,-2.6654,-2.5053,-2.4988,-2.6654,-2.6654,-2.5811,-2.4187,-2.4756,-2.4717,-2.4164,-2.4096,-2.4109,-2.4164,-2.4164,-2.4096,-2.4073,-2.4083,-2.407,-2.4073,-2.4083,-2.4083,-2.4083,-2.4083,-2.4083,-2.4083,-2.4083,-2.4083,-2.4083,-2.4044,-2.4044,-2.3926,-2.3287,-2.2766,-2.2375,-2.2349,-2.1956,-2.1655,-2.2283,-2.2388,-2.2179,-2.1668,-2.1511,-2.1315,-2.0805,-2.0699,-2.0857,-2.1433,-2.1525,-2.1864,-2.3039,-2.2792,-2.261,-2.3132,-2.2242,-2.1525,-2.1485,-2.0733,-2.0207,-2.0182,-1.9965,-1.9798,-1.9798,-1.9798,-1.9798,-1.9798,-1.9773,-1.9547,-1.9058,-1.9484,-1.9246,-1.8229,-1.8179,-1.7626,-1.65,-1.65,-1.65,-1.65,-1.65,-1.65,-3.2282,-3.2562,-3.264,-3.2746,-3.2669,-3.2174,-3.0705,-3.0921,-3.1281,-3.0572,-3.0725,-3.0986,-3.0986,-3.0986,-3.079,-3.0192,-2.9653,-2.91,-2.8499,-2.7889,-2.749,-2.749,-2.749,-2.7411,-2.7249,-2.7372,-2.7411,-2.7236,-2.7372,-2.7333,-2.7,-2.6595,-2.6295,-2.6138,-2.5537,-2.5511,-2.6125,-2.5406,-2.5092,-2.5166,-2.4674,-2.4504,-2.4648,-2.4282,-2.4083,-2.4083,-2.4083,-2.3874,-2.3535,-2.3926,-2.3861,-2.3548,-2.3939,-2.4083,-2.4083,-2.4083,-2.4083,-2.4083,-2.4083,-2.4083,-2.4083,-2.4083,-2.4083,-2.3913,-2.296,-2.2544,-2.2231,-2.1524,-2.1145,-2.1119,-2.1681,-2.1577,-2.1237,-2.104,-2.125,-2.1459,-2.125,-2.1511,-2.1943,-2.2505,-2.2582,-2.283,-2.3626,-2.3629,-2.3563,-2.3744,-2.2805,-2.2087,-2.2086,-2.0978,-2.0207,-2.0207,-1.9965,-1.9798,-1.9798,-1.9798,-1.9798,-1.9798,-1.9497,-1.9346,-1.9522,-1.9045,-1.8756,-1.8707,-1.8392,-1.7827,-1.7074,-1.6697,-1.671,-1.7074,-1.7074,-1.7262,-3.1898,-3.2292,-3.2572,-3.2872,-3.2991,-3.2635,-3.1217,-3.1245,-3.1454,-3.0876,-3.0897,-3.1035,-3.0985,-3.0986,-3.0738,-2.9967,-2.9523,-2.9,-2.8203,-2.7771,-2.749,-2.749,-2.749,-2.7425,-2.7262,-2.7385,-2.7425,-2.7262,-2.7385,-2.7333,-2.6987,-2.6811,-2.6353,-2.5563,-2.5903,-2.5837,-2.5232,-2.4687,-2.4687,-2.5206,-2.4448,-2.4321,-2.4661,-2.4282,-2.4083,-2.4083,-2.4083,-2.3861,-2.3522,-2.3926,-2.3848,-2.3535,-2.3926,-2.4083,-2.4083,-2.4083,-2.4083,-2.4083,-2.4083,-2.4083,-2.4083,-2.4083,-2.4083,-2.3913,-2.2947,-2.2531,-2.2231,-2.1472,-2.1275,-2.1341,-2.1707,-2.1381,-2.0975,-2.0975,-2.1237,-2.1564,-2.1773,-2.2126,-2.2557,-2.3106,-2.3182,-2.3378,-2.4008,-2.3785,-2.3589,-2.3757,-2.2818,-2.2113,-2.2113,-2.1146,-2.0412,-2.022,-1.9965,-1.9798,-1.9798,-1.9798,-1.9798,-1.9798,-1.9472,-1.9447,-1.9786,-1.912,-1.8882,-1.9259,-1.8732,-1.8304,-1.794,-1.734,-1.7287,-1.7664,-1.7664,-1.7852,0.0,0.0,0.0,-3.1987,-3.2925,-3.3391,-3.191,-3.2097,-3.2472,-3.2168,-3.1585,-3.1097,-3.1029,-3.1011,-3.0644,-2.9506,-2.931,-2.8869,-2.7686,-2.7503,-2.749,-2.749,-2.749,-2.7314,-2.6784,-2.7196,-2.7301,-2.6771,-2.721,-2.749,-2.749,-2.6987,-2.6196,-2.5083,-2.6091,-2.5824,-2.4122,-2.4704,-2.4691,-2.4083,-2.4141,-2.4112,-2.4083,-2.4112,-2.4112,-2.4083,-2.4083,-2.4083,-2.4083,-2.4083,-2.4083,-2.4083,-2.4083,-2.4083,-2.4083,-2.4083,-2.4083,-2.4083,-2.4083,-2.4083,-2.4083,-2.4083,-2.4083,-2.4008,-2.3365,-2.2818,-2.2388,-2.2388,-2.2375,-2.2375,-2.2374,-2.1943,-2.1485,-2.1485,-2.1498,-2.1668,-2.2256,-2.2401,-2.2571,-2.3132,-2.3221,-2.3391,-2.3995,-2.3173,-2.2597,-2.3106,-2.223,-2.1525,-2.1511,-2.125,-2.0874,-2.0284,-1.9978,-1.9798,-1.9798,-1.9798,-1.9798,-1.9798,-1.9798,-1.9798,-1.9798,-1.9798,-1.9798,-1.9798,-1.9284,-1.902,-1.902,-1.8456,-1.8216,-1.8229,-1.8218,-1.823,-3.2802,0.0,0.0,0.0,0.0,0.0,-3.1605,-3.1687,-3.1963,-3.1796,-3.192,-3.191,-3.1244,-3.1491,-3.1265,-2.9564,-2.931,-2.9013,-2.8255,-2.7798,-2.749,-2.749,-2.749,-2.7438,-2.7301,-2.7398,-2.7425,-2.7301,-2.7411,-2.749,-2.749,-2.6987,-2.6562,-2.6248,-2.5738,-2.524,-2.4769,-2.4936,-2.4693,-2.4112,-2.4935,-2.4907,-2.4112,-2.4563,-2.4505,-2.4083,-2.4083,-2.4083,-2.4083,-2.4083,-2.4083,-2.4083,-2.4083,-2.4083,-2.4083,-2.4083,-2.4083,-2.4083,-2.4083,-2.4083,-2.4083,-2.4083,-2.4083,-2.4008,-2.3365,-2.2818,-2.2388,-2.2387,-2.2086,-2.1747,-2.176,-2.1328,-2.0923,-2.0923,-2.1211,-2.1564,-2.1694,-2.21,-2.2688,-2.3652,-2.3835,-2.3757,-2.3483,-2.3197,-2.291,-2.2675,-2.1968,-2.1668,-2.21,-2.1133,-2.0553,-2.0835,-2.0231,-1.9798,-1.9798,-1.9798,-1.9798,-1.9798,-1.9798,-1.9798,-1.9798,-1.9798,-1.9798,-1.9798,-1.966,-1.9585,-1.9585,-1.8656,-1.8405,-1.8782,-1.8768,-1.8786,-3.2312,-3.2523,-3.2765,-3.3346,0.0,0.0,-3.1952,-3.1641,-3.156,-3.1861,-3.1982,-3.1877,-3.1323,-3.1477,-3.1231,-2.9935,-2.9684,-2.9431,-2.8878,-2.8255,-2.7889,-2.7889,-2.7889,-2.7798,-2.7516,-2.7745,-2.7785,-2.7516,-2.749,-2.7385,-2.7183,-2.7079,-2.67,-2.6012,-2.555,-2.5092,-2.4622,-2.4867,-2.4806,-2.4476,-2.5147,-2.5118,-2.4476,-2.4591,-2.4419,-2.4083,-2.4083,-2.4083,-2.4083,-2.4083,-2.4083,-2.4083,-2.4083,-2.4083,-2.4083,-2.4083,-2.4083,-2.4083,-2.4083,-2.4083,-2.4083,-2.4083,-2.4083,-2.4018,-2.3665,-2.3184,-2.2727,-2.274,-2.2322,-2.1864,-2.189,-2.1459,-2.1015,-2.0964,-2.1055,-2.1211,-2.1381,-2.1733,-2.2309,-2.321,-2.3365,-2.3191,-2.2908,-2.2551,-2.2251,-2.1979,-2.1863,-2.1719,-2.1497,-2.1171,-2.086,-2.0654,-2.0129,-1.9798,-1.9798,-1.9798,-1.9798,-1.9798,-1.9798,-1.9798,-1.9798,-1.9798,-1.9798,-1.9798,-1.9798,-1.9798,-1.9798,-1.9171,-1.8909,-1.9004,-1.9012,-1.8881,-3.0889,-3.1543,-3.2422,-3.2749,-3.2284,0.0,-3.2431,-3.1774,-3.1308,-3.2232,-3.1986,-3.1579,-3.1438,-3.1342,-3.1067,-3.0474,-3.0303,-3.003,-2.9388,-2.8852,-2.8512,-2.8512,-2.8512,-2.8255,-2.7646,-2.8085,-2.8137,-2.7542,-2.749,-2.7301,-2.6824,-2.7249,-2.6765,-2.5149,-2.5612,-2.5354,-2.4213,-2.4863,-2.5174,-2.509,-2.5174,-2.5118,-2.4977,-2.4447,-2.4171,-2.4083,-2.4083,-2.4083,-2.4083,-2.4083,-2.4083,-2.4083,-2.4083,-2.4083,-2.4083,-2.4083,-2.4083,-2.4083,-2.4083,-2.4083,-2.4083,-2.4083,-2.4083,-2.4083,-2.4083,-2.3655,-2.3106,-2.3013,-2.2662,-2.231,-2.2282,-2.1838,-2.1368,-2.1212,-2.0926,-2.0781,-2.1134,-2.129,-2.1538,-2.2073,-2.2201,-2.2225,-2.2268,-2.1612,-2.1132,-2.1198,-2.1639,-2.1612,-2.0566,-2.1258,-2.1434,-2.0295,-2.0027,-1.9874,-1.9811,-1.9798,-1.9798,-1.9798,-1.9798,-1.9798,-1.9798,-1.9798,-1.9798,-1.9798,-1.9798,-1.9798,-1.9798,-1.9798,-1.9526,-1.8987,-1.8934,-1.8602,-3.2106,-3.1948,-3.2089,-3.2837,-3.1903,0.0,-3.1526,-3.1394,-3.1425,-3.2379,-3.2795,-3.2808,-3.215,-3.2276,-3.2097,-3.0878,-3.1016,-3.0767,-2.95,-2.9218,-2.914,-2.914,-2.914,-2.8904,-2.8268,-2.8307,-2.8137,-2.7542,-2.749,-2.7438,-2.7333,-2.7438,-2.6929,-2.5694,-2.621,-2.5975,-2.4848,-2.5838,-2.6122,-2.566,-2.6136,-2.5892,-2.5005,-2.4863,-2.4563,-2.4083,-2.4083,-2.4083,-2.4083,-2.4083,-2.4083,-2.4083,-2.4083,-2.4083,-2.4083,-2.4083,-2.4083,-2.4083,-2.4083,-2.4083,-2.4083,-2.4083,-2.4083,-2.4083,-2.4083,-2.3367,-2.2453,-2.1969,-2.1773,-2.1655,-2.1536,-2.1108,-2.0655,-2.045,-2.0475,-2.0562,-2.0629,-2.068,-2.0731,-2.0848,-2.1588,-2.2068,-2.1588,-2.1288,-2.099,-2.0694,-2.0605,-2.0874,-2.1622,-2.1358,-2.1172,-2.1348,-2.086,-2.0339,-1.9849,-1.9798,-1.9798,-1.9798,-1.9798,-1.9798,-1.9798,-1.9798,-1.9798,-1.9798,-1.9798,-1.9798,-1.9798,-1.9798,-1.9526,-1.8987,-1.8509,-1.8201,-3.2206,-3.1821,-3.155,-3.1462,-3.0799,0.0,0.0,-3.0974,-3.123,-3.1899,-3.229,-3.2326,-3.1894,-3.1721,-3.1456,-3.0852,-3.1166,-3.1175,-3.0192,-2.9908,-2.9755,-2.9702,-2.9706,-2.9483,-2.8917,-2.9091,-2.8895,-2.802,-2.7659,-2.7372,-2.7118,-2.7333,-2.6981,-2.5832,-2.6386,-2.6139,-2.5002,-2.5841,-2.596,-2.5398,-2.5987,-2.5933,-2.5398,-2.5104,-2.4835,-2.4534,-2.4229,-2.4287,-2.4534,-2.4229,-2.4287,-2.4534,-2.4229,-2.4083,-2.4083,-2.4083,-2.4083,-2.4083,-2.4083,-2.4083,-2.4083,-2.4083,-2.4083,-2.4083,-2.4083,-2.3498,-2.2675,-2.2019,-2.1628,-2.129,-2.0862,-2.0553,-2.0322,-2.0144,-2.022,-2.0322,-2.0284,-2.0296,-2.0347,-2.0347,-2.0759,-2.1028,-2.0785,-2.0565,-2.0424,-2.0271,-2.0425,-2.0654,-2.0908,-2.0932,-2.0852,-2.0747,-2.0454,-2.0125,-1.9823,-1.9798,-1.9798,-1.9798,-1.9798,-1.9798,-1.9798,-1.9798,-1.9798,-1.9798,-1.9798,-1.9798,-1.9798,-1.9798,-1.9384,-1.8536,-1.824,-1.7804,-3.2097,-3.1601,-3.1085,-3.0557,-3.0076,-2.9901,0.0,0.0,0.0,-3.1434,-3.163,-3.1691,-3.1492,-3.108,-3.0842,-3.0937,-3.1292,-3.1449,-3.1176,-3.0803,-3.0534,-3.0401,-3.0444,-3.0249,-2.9575,-2.98,-2.9558,-2.8499,-2.7988,-2.7478,-2.6902,-2.7242,-2.702,-2.602,-2.6562,-2.6377,-2.5339,-2.5771,-2.5742,-2.5328,-2.5632,-2.5783,-2.5783,-2.5231,-2.5061,-2.5104,-2.4534,-2.4563,-2.4948,-2.4476,-2.4476,-2.4778,-2.4287,-2.4083,-2.4083,-2.4083,-2.4083,-2.4083,-2.4083,-2.4083,-2.4083,-2.4083,-2.4083,-2.407,-2.3952,-2.3574,-2.2996,-2.2237,-2.1665,-2.1094,-2.0361,-2.0156,-2.0131,-1.9978,-2.0054,-2.0131,-2.0016,-2.008,-2.0156,-2.0156,-2.0054,-2.0003,-2.0131,-1.9965,-1.9837,-1.999,-2.0396,-2.0522,-2.0064,-2.0508,-2.0636,-2.005,-1.9962,-1.9924,-1.9811,-1.9798,-1.9798,-1.9798,-1.9798,-1.9798,-1.9798,-1.9798,-1.9798,-1.9798,-1.9798,-1.9747,-1.9643,-1.9747,-1.9319,-1.8417,-1.8201,-1.7611,-3.257,-3.1624,-3.1132,-3.234,-3.1017,-2.9908,-3.175,0.0,-3.179,-3.1473,0.0,-3.244,-3.171,0.0,0.0,-3.1854,-3.1766,-3.1836,-3.2327,-3.1892,-3.1485,-3.1378,-3.1706,-3.1495,-3.0315,-2.9891,-2.9302,-2.8459,-2.8505,-2.8229,-2.7458,-2.7464,-2.7236,-2.6627,-2.7192,-2.7179,-2.6509,-2.657,-2.6563,-2.6484,-2.6041,-2.5783,-2.5783,-2.5231,-2.5272,-2.5687,-2.5132,-2.4948,-2.4977,-2.492,-2.462,-2.42,-2.4112,-2.4083,-2.4083,-2.4083,-2.4083,-2.4083,-2.4083,-2.4083,-2.4083,-2.4083,-2.4083,-2.3992,-2.3443,-2.3163,-2.2806,-2.1716,-2.1261,-2.095,-2.022,-2.0016,-1.999,-1.9862,-1.9926,-2.0016,-1.999,-2.0016,-2.0016,-2.0016,-1.9926,-1.9862,-2.0016,-1.9901,-1.9837,-1.999,-1.9951,-2.0114,-2.0699,-2.0747,-2.0693,-2.0603,-2.0591,-2.039,-1.9849,-1.9798,-1.9798,-1.9798,-1.9798,-1.9798,-1.9798,-1.9798,-1.9798,-1.9798,-1.9798,-1.9578,-1.9093,-1.9578,-1.9721,-1.9592,-1.8578,-1.8038,-3.3592,-3.2664,-3.1828,-3.201,-3.1116,-3.0391,-3.127,-3.1319,-3.1131,-3.0871,0.0,0.0,0.0,0.0,0.0,0.0,-3.2436,-3.2485,-3.2695,-3.2921,-3.2858,-3.2152,-3.2382,-3.2484,-3.218,-3.1654,-3.1151,-3.0733,-3.0209,-2.9537,-2.8712,-2.8278,-2.7802,-2.717,-2.78,-2.7664,-2.6715,-2.7099,-2.6897,-2.6176,-2.6283,-2.631,-2.631,-2.6082,-2.6109,-2.6283,-2.5715,-2.5674,-2.5947,-2.5272,-2.502,-2.5006,-2.4361,-2.4083,-2.4083,-2.4083,-2.4083,-2.4083,-2.4083,-2.4083,-2.4083,-2.4083,-2.4083,-2.3979,-2.3293,-2.3026,-2.2736,-2.1426,-2.1038,-2.0819,-2.0065,-1.9888,-1.9862,-1.9798,-1.9837,-1.9888,-1.9888,-1.9888,-1.9888,-1.9888,-1.9837,-1.9837,-1.9862,-1.9837,-1.9837,-1.9888,-1.9837,-1.9912,-2.0228,-2.0215,-2.0189,-2.0189,-2.0189,-2.0075,-1.9823,-1.9798,-1.9798,-1.9798,-1.9798,-1.9798,-1.9798,-2.0151,-2.015,-1.9811,-1.9809,-1.9529,-1.8987,-1.9225,-1.916,-1.8806,-1.8309,-1.7902,-3.4281,-3.35,-3.2594,-3.2311,-3.1794,-3.145,-3.1735,-3.1533,-3.1261,-3.1152,-3.1491,0.0,0.0,0.0,-3.2087,0.0,0.0,-3.2635,-3.2991,-3.3484,-3.351,-3.2722,-3.2919,-3.3249,-3.3643,-3.3259,-3.2828,-3.247,-3.1772,-3.0926,-2.9824,-2.9301,-2.8676,-2.7789,-2.8249,-2.801,-2.6963,-2.7258,-2.6884,-2.581,-2.6229,-2.6457,-2.6457,-2.6457,-2.6642,-2.6904,-2.631,-2.6203,-2.639,-2.5411,-2.5135,-2.5231,-2.4233,-2.3939,-2.4083,-2.4083,-2.4083,-2.4083,-2.4083,-2.4083,-2.4083,-2.4083,-2.3979,-2.3757,-2.3155,-2.2866,-2.2446,-2.124,-2.0866,-2.0673,-1.9975,-1.9798,-1.9798,-1.9798,-1.9798,-1.9798,-1.9798,-1.9798,-1.9798,-1.9798,-1.9798,-1.9798,-1.9798,-1.9798,-1.9798,-1.9798,-1.9798,-1.9798,-1.9798,-1.9798,-1.9798,-1.9798,-1.9936,-2.0037,-2.0037,-2.0175,-2.0263,-2.0263,-2.0263,-2.0263,-2.0263,-2.0704,-2.0717,-2.0275,-1.9949,-1.9533,-1.8976,-1.8834,-1.8429,-1.7875,-1.8011,-1.7793,-3.4281,-3.3697,-3.328,-3.4101,-3.3721,-3.3318,-3.4101,-3.3634,-3.3018,-3.301,-3.2662,-3.2378,-3.2373,-3.2057,0.0,0.0,0.0,0.0,0.0,-3.3301,-3.3009,-3.2988,-3.3395,-3.3772,-3.4055,-3.3991,-3.357,-3.2652,-3.2735,-3.216,-3.0552,-3.0435,-2.9817,-2.8495,-2.8498,-2.819,-2.7587,-2.7016,-2.6427,-2.5783,-2.581,-2.5837,-2.5837,-2.5837,-2.6469,-2.7549,-2.693,-2.6336,-2.5795,-2.5231,-2.4682,-2.4076,-2.3472,-2.3574,-2.4083,-2.4083,-2.4083,-2.4083,-2.4083,-2.4083,-2.4083,-2.4083,-2.3691,-2.3208,-2.3039,-2.2498,-2.1781,-2.1111,-2.0813,-2.0566,-1.9949,-1.9798,-1.9798,-1.9798,-1.9798,-1.9798,-1.9798,-1.9798,-1.9798,-1.9798,-1.9798,-1.9798,-1.9798,-1.9798,-1.9798,-1.9798,-1.9798,-1.9798,-1.9798,-1.9798,-1.9798,-1.9798,-2.0327,-2.0666,-2.0666,-2.1157,-2.1443,-2.1443,-2.1443,-2.1443,-2.1443,-2.1455,-2.1455,-2.1443,-2.0367,-1.9507,-1.8912,-1.8389,-1.782,-1.723,-1.7847,-1.7793,-3.434,-3.41,-3.3934,-3.4364,-3.4229,-3.4083,-3.4394,-3.3381,-3.2515,-3.3056,-3.2654,-3.2351,-3.2836,0.0,0.0,0.0,0.0,0.0,0.0,-3.358,-3.3503,-3.3596,-3.4128,-3.5002,-3.6283,-3.5707,-3.4953,-3.4237,-3.3355,-3.2542,-3.1856,-3.097,-3.0301,-2.9835,-2.9811,-2.933,-2.8269,-2.8096,-2.7492,-2.6404,-2.5987,-2.6014,-2.6404,-2.6404,-2.6826,-2.7545,-2.6593,-2.6266,-2.6293,-2.4964,-2.4518,-2.465,-2.4021,-2.3913,-2.4083,-2.4083,-2.4083,-2.4083,-2.4083,-2.3822,-2.3561,-2.3965,-2.3678,-2.3117,-2.2613,-2.2299,-2.1841,-2.0627,-2.0269,-2.0166,-1.9887,-1.9798,-1.9798,-1.9798,-1.9798,-1.9798,-1.9798,-1.9798,-1.9798,-1.9798,-1.9798,-1.9798,-1.9798,-1.9798,-1.9798,-1.9798,-2.0125,-2.0264,-1.9849,-2.0451,-2.0778,-2.044,-2.0905,-2.1232,-2.1232,-2.1408,-2.1493,-2.1493,-2.1493,-2.1493,-2.1493,-2.1493,-2.1345,-2.0981,-1.9825,-1.9136,-1.897,-1.7982,-1.7396,-1.7202,-1.7424,-1.7396,-3.4265,-3.4088,-3.3915,-3.4353,-3.4435,-3.4419,-3.4473,-3.3443,-3.2617,-3.3163,-3.2895,-3.2531,-3.2395,-3.3294,0.0,0.0,0.0,0.0,0.0,-3.3662,-3.3702,-3.4333,-3.4987,-3.5782,-3.678,-3.6746,-3.616,-3.4797,-3.4118,-3.3321,-3.2328,-3.1602,-3.1006,-3.0517,-3.0515,-2.9885,-2.8609,-2.8623,-2.7984,-2.6709,-2.631,-2.631,-2.6695,-2.6463,-2.6788,-2.7555,-2.6574,-2.6345,-2.6573,-2.5044,-2.4655,-2.4935,-2.4094,-2.39,-2.4083,-2.4083,-2.4083,-2.4083,-2.4083,-2.3691,-2.3248,-2.3639,-2.3234,-2.2517,-2.2016,-2.1743,-2.1366,-2.0296,-1.999,-1.9965,-1.9824,-1.9798,-1.9798,-1.9798,-1.9798,-1.9798,-1.9798,-1.9798,-1.9798,-1.9798,-1.9798,-1.9798,-1.9798,-1.9798,-1.9798,-1.9798,-2.0125,-2.0327,-2.0125,-2.0767,-2.1169,-2.1006,-2.1455,-2.1857,-2.2058,-2.2071,-2.2071,-2.2071,-2.2071,-2.2071,-2.2071,-2.1828,-2.1539,-2.1181,-1.9844,-1.9164,-1.9211,-1.8072,-1.7424,-1.7202,-1.7424,-1.7296]},{"header":{"parameterUnit":"m.s-1","parameterCategory":1,"la1":30.6,"la2":29.2853,"lo1":-89.7004,"lo2":-87.6739,"dy":0.0162,"dx":0.0183,"nx":112,"ny":82,"refTime":"2023-03-10T06:00:00:Z","depth":0,"parameterNumber":3,"parameterNumberName":"V-component_of_WINDS"},"data":[0.0,0.0,0.0,0.0,0.0,0.0,0.0,0.0,0.0,0.0,0.0,0.0,0.0,0.0,0.0,0.0,0.0,0.0,0.0,0.0,0.0,0.0,0.0,0.0,0.0,0.0,0.0,0.0,0.0,0.0,0.0,0.0,0.0,0.0,0.0,0.0,0.0,0.0,0.0,0.0,0.0,0.0,0.0,0.0,0.0,0.0,0.0,0.0,0.0,0.0,0.0,0.0,0.0,0.0,0.0,0.0,0.0,0.0,0.0,0.0,0.0,0.0,0.0,0.0,0.0,0.0,0.0,0.0,0.0,0.0,0.0,0.0,0.0,0.0,0.0,0.0,0.0,0.0,0.0,0.0,0.0,0.0,0.0,0.0,0.0,0.0,0.0,0.0,0.0,0.0,0.7592,0.5239,0.1761,-0.2191,-0.6629,-0.8342,-1.0208,-1.2504,0.0,0.0,0.0,0.0,0.0,0.0,0.0,0.0,0.0,0.0,0.0,0.0,0.0,0.0,0.0,0.0,0.0,0.0,0.0,0.0,0.0,0.0,0.0,0.0,0.0,0.0,0.0,0.0,0.0,0.0,0.0,0.0,0.0,0.0,0.0,0.0,0.0,0.0,0.0,0.0,0.0,0.0,0.0,0.0,0.0,0.0,0.0,0.0,0.0,0.0,0.0,0.0,0.0,0.0,0.0,0.0,0.0,0.0,0.0,0.0,0.0,0.0,0.0,0.0,0.0,0.0,0.0,0.0,0.0,0.0,0.0,0.0,0.0,0.0,0.0,0.0,0.0,0.0,0.0,0.0,0.0,0.0,0.0,0.0,0.0,0.0,0.0,0.0,0.0,0.0,0.0,0.0,0.0,0.0,0.0,0.0,0.0,0.0,0.0,0.0,0.0,0.0,0.0,0.0,0.6676,0.3006,0.1109,-0.1714,-0.6129,-0.7842,-0.9793,-1.2382,0.0,0.0,0.0,0.0,0.0,0.0,0.0,0.0,0.0,0.0,0.0,0.0,0.0,0.0,0.0,0.0,0.0,0.0,0.0,0.0,0.0,0.0,0.0,0.0,0.0,0.0,0.0,0.0,0.0,0.0,0.0,0.0,0.0,0.0,0.0,0.0,0.0,0.0,0.0,0.0,0.0,0.0,0.0,0.0,0.0,0.0,0.0,0.0,0.0,0.0,0.0,0.0,0.0,0.0,0.0,0.0,0.0,0.0,0.0,0.0,0.0,0.0,0.0,0.0,0.0,0.0,0.0,0.0,0.0,0.0,0.0,0.0,0.0,0.0,0.0,0.0,0.0,0.0,0.0,0.0,0.0,0.0,0.0,0.0,0.0,0.0,0.0,0.0,0.0,0.0,0.0,0.0,0.0,0.0,0.0,0.0,0.0,0.0,0.0,0.0,0.0,0.0,0.0,0.7579,0.5615,0.2846,0.1194,-0.1423,-0.5719,-0.7506,-0.9321,-1.1553,-1.252,0.0,0.0,0.0,0.0,0.0,0.0,0.0,0.0,0.0,0.0,0.0,0.0,0.0,0.0,0.0,0.0,0.0,0.0,0.0,0.0,0.0,0.0,0.0,0.0,0.0,0.0,0.0,0.0,0.0,0.0,0.0,0.0,0.0,0.0,0.0,0.0,0.0,0.0,0.0,0.0,0.0,0.0,0.0,0.0,0.0,0.0,0.0,0.0,0.0,0.0,0.0,0.0,0.0,0.0,0.0,0.0,0.0,0.0,0.0,0.0,0.0,0.0,0.0,0.0,0.0,0.0,0.0,0.0,0.0,0.0,0.0,0.0,0.0,0.0,0.0,0.0,0.0,0.0,0.0,0.0,0.0,0.0,0.0,0.0,0.0,0.0,0.0,0.0,0.0,0.0,0.0,0.0,0.0,0.0,0.0,0.0,0.0,0.0,0.0,0.0,0.0,0.0,0.7093,0.4995,0.312,0.1458,-0.1084,-0.5092,-0.7053,-0.8788,-1.0536,-1.1723,0.0,0.0,0.0,0.0,0.0,0.0,0.0,0.0,0.0,0.0,0.0,0.0,0.0,0.0,0.0,0.0,0.0,0.0,0.0,0.0,0.0,0.0,0.0,0.0,0.0,0.0,0.0,0.0,0.0,0.0,0.0,0.0,0.0,0.0,0.0,0.0,0.0,0.0,0.0,0.0,0.0,0.0,0.0,0.0,0.0,0.0,0.0,0.0,0.0,0.0,0.0,0.0,0.0,0.0,0.0,0.0,0.0,0.0,0.0,0.0,0.0,0.0,0.0,0.0,0.0,0.0,0.0,0.0,0.0,0.0,0.0,0.0,0.0,0.0,0.0,0.0,0.0,0.0,0.0,0.0,0.0,0.0,0.0,0.0,0.0,0.0,0.0,0.0,0.0,0.0,0.0,0.0,0.0,0.0,0.0,0.0,0.0,0.0,0.0,0.0,0.0,0.0,0.7214,0.5329,0.312,0.1666,-0.056,-0.4101,-0.6332,-0.8132,-0.9526,-1.0887,0.0,0.0,0.0,0.0,0.0,0.0,0.0,0.0,0.0,0.0,0.0,0.0,0.0,0.0,0.0,0.0,0.0,0.0,0.0,0.0,0.0,0.0,0.0,0.0,0.0,0.0,0.0,0.0,0.0,0.0,0.0,0.0,0.0,0.0,0.0,0.0,0.0,0.0,0.0,0.0,0.0,0.0,0.0,0.0,0.0,0.0,0.0,0.0,0.0,0.0,0.0,0.0,0.0,0.0,0.0,0.0,0.0,0.0,0.0,0.0,0.0,0.0,0.0,0.0,0.0,0.0,0.0,0.0,0.0,0.0,0.0,0.0,0.0,0.0,0.0,0.0,0.0,0.0,0.0,0.0,0.0,0.0,0.0,0.0,0.0,0.0,0.0,0.0,0.0,0.0,0.0,0.0,0.0,0.0,0.0,0.0,0.0,0.0,0.0,0.0,0.0,0.0,0.7198,0.5266,0.3286,0.2068,-0.0067,-0.3751,-0.5802,-0.7536,-0.9041,0.0,0.0,0.0,0.0,0.0,0.0,0.0,0.0,0.0,0.0,0.0,0.0,0.0,0.0,0.0,0.0,0.0,0.0,0.0,0.0,0.0,0.0,0.0,0.0,0.0,0.0,0.0,0.0,0.0,0.0,0.0,0.0,0.0,0.0,0.0,0.0,0.0,0.0,0.0,0.0,0.0,0.0,0.0,0.0,0.0,0.0,0.0,0.0,0.0,0.0,0.0,0.0,0.0,0.0,0.0,0.0,0.0,0.0,0.0,0.0,0.0,0.0,0.0,0.0,0.0,0.0,0.0,0.0,0.0,0.0,0.0,0.0,0.0,0.0,0.0,0.0,0.0,0.0,0.0,0.0,0.0,0.0,0.0,0.0,0.0,0.0,0.0,0.0,0.0,0.0,0.0,0.0,0.0,0.0,0.0,0.0,0.0,0.0,0.0,0.0,0.0,0.0,0.9074,0.7241,0.5249,0.3547,0.2305,0.0258,-0.3037,-0.4998,-0.6662,-0.8162,0.0,0.0,0.0,0.0,0.0,0.0,0.0,0.0,0.0,0.0,0.0,0.0,0.0,0.0,0.0,0.0,0.0,0.0,0.0,0.0,0.0,0.0,0.0,0.0,0.0,0.0,0.0,0.0,0.0,0.0,0.0,0.0,0.0,0.0,0.0,0.0,0.0,0.0,0.0,0.0,0.0,0.0,0.0,0.0,0.0,0.0,0.0,0.0,0.0,0.0,0.0,0.0,0.0,0.0,0.0,0.0,0.0,0.0,0.0,0.0,0.0,0.0,0.0,0.0,0.0,0.0,0.0,0.0,0.0,0.0,0.0,0.0,0.0,0.0,0.0,0.0,0.0,0.0,0.0,0.0,0.0,0.0,0.0,0.0,0.0,0.0,0.0,0.0,0.0,0.0,0.0,0.0,0.0,0.0,0.0,0.0,0.0,0.0,0.0,0.0,0.0,0.0,0.9391,0.7391,0.5344,0.3877,0.2323,0.047,-0.1901,-0.3868,-0.552,0.0,0.0,0.0,0.0,0.0,0.0,0.0,0.0,0.0,0.0,0.0,0.0,0.0,0.0,0.0,0.0,0.0,0.0,0.0,0.0,0.0,0.0,0.0,0.0,0.0,0.0,0.0,0.0,0.0,0.0,0.0,0.0,0.0,0.0,0.0,0.0,0.0,0.0,0.0,0.0,0.0,0.0,0.0,0.0,0.0,0.0,0.0,0.0,0.0,0.0,0.0,0.0,0.0,0.0,0.0,0.0,0.0,0.0,0.0,0.0,0.0,0.0,0.0,0.0,0.0,0.0,0.0,0.0,0.0,0.0,0.0,0.0,0.0,0.0,0.0,0.0,0.0,0.0,0.0,0.0,0.0,0.0,0.0,0.0,0.0,0.0,0.0,0.0,0.0,0.0,0.0,0.0,0.0,0.0,0.0,0.0,0.0,0.0,0.0,0.0,0.0,0.0,0.0,0.8458,0.7129,0.5647,0.4456,0.3031,0.1275,-0.1004,-0.3057,-0.4741,-0.5905,0.0,0.0,0.0,0.0,0.0,0.0,0.0,0.0,0.0,0.0,0.0,0.0,0.0,0.0,0.0,0.0,0.0,0.0,0.0,0.0,0.0,0.0,0.0,0.0,0.0,0.0,0.0,0.0,0.0,0.0,0.0,0.0,0.0,0.0,0.0,0.0,0.0,0.0,0.0,0.0,0.0,0.0,0.0,0.0,0.0,0.0,0.0,0.0,0.0,0.0,0.0,0.0,0.0,0.0,0.0,0.0,0.0,0.0,0.0,0.0,0.0,0.0,0.0,0.0,0.0,0.0,0.0,0.0,0.0,0.0,0.0,0.0,0.0,0.0,0.0,0.0,0.0,0.0,0.0,0.0,0.0,0.0,0.0,0.0,0.0,0.0,0.0,0.0,0.0,0.0,0.0,0.0,0.0,0.0,0.0,0.0,0.0,0.0,0.0,0.0,0.0,0.0,0.8191,0.7066,0.5811,0.4812,0.369,0.2062,-0.0283,-0.1936,-0.3503,-0.5036,0.0,0.0,0.0,0.0,0.0,0.0,0.0,0.0,0.0,0.0,0.0,0.0,0.0,0.0,0.0,0.0,0.0,0.0,0.0,0.0,0.0,0.0,0.0,0.0,0.0,0.0,0.0,0.0,0.0,0.0,0.0,0.0,0.0,0.0,0.0,0.0,0.0,0.0,0.0,0.0,0.0,0.0,0.0,0.0,0.0,0.0,0.0,0.0,0.0,0.0,0.0,0.0,0.0,0.0,0.0,0.0,0.0,0.0,0.0,0.0,0.0,0.0,0.0,0.0,0.0,0.0,0.0,0.0,0.0,0.0,0.0,0.0,0.0,0.0,0.0,0.0,0.0,0.0,0.0,0.0,0.0,0.0,0.0,0.0,0.0,0.0,0.0,0.0,0.0,0.0,0.0,0.0,0.0,0.0,0.0,0.0,0.0,0.0,0.0,0.0,0.0,0.0,0.8273,0.7141,0.5918,0.51,0.431,0.2849,0.0462,-0.0662,-0.2046,-0.3998,0.0,0.0,0.0,0.0,0.0,0.0,0.0,0.0,0.0,0.0,0.0,0.0,0.0,0.0,0.0,0.0,0.0,0.0,0.0,0.0,0.0,0.0,0.0,0.0,0.0,0.0,0.0,0.0,0.0,0.0,0.0,0.0,0.0,0.0,0.0,0.0,0.0,0.0,0.0,0.0,0.0,0.0,0.0,0.0,0.0,0.0,0.0,0.0,0.0,0.0,0.0,0.0,0.0,0.0,0.0,0.0,0.0,0.0,0.0,0.0,0.6801,0.547,0.0,0.0,0.0,0.0,0.0,0.0,0.0,0.0,0.0,0.0,0.0,0.0,0.0,0.0,0.0,0.0,0.0,0.0,0.0,0.0,0.0,0.0,0.0,0.0,0.0,0.0,0.0,0.0,0.0,0.0,0.0,0.0,0.0,0.0,0.0,0.0,0.0,0.0,0.0,0.0,0.765,0.7043,0.6432,0.5954,0.479,0.3514,0.2217,0.0414,-0.109,-0.2052,-0.3704,0.0,0.0,0.0,0.0,0.0,0.0,0.0,0.0,0.0,0.0,0.0,0.0,0.0,0.0,0.0,0.0,0.0,0.0,0.0,0.0,0.0,0.0,0.0,0.0,0.0,0.0,0.0,0.0,0.0,0.0,0.0,0.0,0.0,0.0,0.0,0.0,0.0,0.0,0.0,0.0,0.0,0.0,0.0,0.0,0.0,0.0,0.0,0.0,0.0,0.0,0.0,0.0,0.0,0.0,0.0,0.0,0.0,0.0,0.0,0.9459,0.7871,0.0,0.0,0.0,0.0,0.0,0.0,0.0,0.0,0.0,0.0,0.0,0.0,0.0,0.0,0.0,0.0,0.0,0.0,0.0,0.0,0.0,0.0,0.0,0.0,0.0,0.0,0.0,0.0,0.0,0.0,0.0,0.0,0.0,0.0,0.0,0.0,0.0,0.0,0.0,0.0,0.7487,0.7091,0.6642,0.6253,0.5467,0.4456,0.3206,0.1815,0.0683,-0.016,-0.1796,0.0,0.0,0.0,0.0,0.0,0.0,0.0,0.0,0.0,0.0,0.0,0.0,0.0,0.0,0.0,0.0,0.0,0.0,0.0,0.0,0.0,0.0,0.0,0.0,0.0,0.0,0.0,0.0,0.0,0.0,0.0,0.0,0.0,0.0,0.0,0.0,0.0,0.0,0.0,0.0,0.0,0.0,0.0,0.0,0.0,0.0,0.0,0.0,0.0,0.0,0.0,0.0,0.0,1.5481,1.5633,1.5213,1.5481,1.5621,1.5558,1.2801,1.1282,1.059,0.9604,0.0,0.0,0.0,0.0,0.0,0.0,0.0,0.0,0.0,0.0,0.0,0.0,0.0,0.0,0.0,0.0,0.0,0.0,0.0,0.0,0.0,0.0,1.0188,0.9443,0.9566,0.9374,0.7569,0.0,0.0,0.0,0.0,0.0,0.0,0.0,0.0,0.0,0.0,0.0,0.7623,0.7298,0.6882,0.6295,0.6002,0.5299,0.3952,0.3234,0.2446,0.1538,0.0191,-0.1068,0.0,0.0,0.0,0.0,0.0,0.0,0.0,0.0,0.0,0.0,0.0,0.0,0.0,0.0,0.0,0.0,0.0,0.0,0.0,0.0,0.0,0.0,0.0,0.0,0.0,0.0,0.0,0.0,0.0,0.0,0.0,0.0,1.6763,1.6269,0.0,0.0,0.0,0.0,0.0,0.0,0.0,0.0,0.0,0.0,0.0,0.0,0.0,1.6158,1.5475,1.6632,1.6757,1.5967,1.6879,1.7417,1.7547,1.7358,1.7407,1.7606,1.7188,0.0,1.4102,1.3675,0.0,0.0,0.0,0.0,0.0,0.0,0.0,0.0,0.0,0.0,0.0,0.0,0.0,0.0,0.0,0.0,0.0,0.0,0.0,0.0,0.0,0.0,1.1663,1.0962,1.085,1.0718,1.0097,0.9268,0.8613,0.8408,0.8704,0.8959,0.0,0.0,0.0,0.0,0.0,0.0,0.8205,0.795,0.7489,0.6493,0.5933,0.5498,0.5163,0.4077,0.3177,0.2633,0.1753,0.0554,-0.1072,-0.1936,0.0,0.0,0.0,0.0,0.0,0.0,0.0,0.0,0.0,0.0,0.0,0.0,0.0,0.0,0.0,0.0,0.0,0.0,0.0,0.0,0.0,0.0,0.0,0.0,0.0,0.0,0.0,0.0,0.0,1.7862,1.7965,1.7716,1.7552,1.7055,0.0,0.0,0.0,0.0,0.0,0.0,0.0,0.0,0.0,1.8817,1.8583,1.844,1.8494,1.9457,1.9734,1.9339,1.9989,2.0233,2.0155,2.0263,2.0225,2.0163,2.0371,1.9802,1.8533,1.6576,1.5085,1.4028,0.0,0.0,0.0,0.0,1.3213,1.2995,1.312,1.2806,1.2395,1.2326,0.0,0.0,0.0,0.0,0.0,0.0,0.0,1.2949,1.2403,1.2725,1.3003,1.2194,1.2101,1.219,1.1996,1.1558,1.0847,0.95,0.9695,0.9926,0.9498,0.9487,0.0,0.0,0.0,0.9538,0.9002,0.8571,0.8116,0.7527,0.6655,0.6045,0.5853,0.488,0.4221,0.4102,0.3024,0.2039,0.1224,-0.0152,-0.1275,0.0,0.0,0.0,0.0,0.0,0.0,0.0,0.0,0.0,0.0,0.0,0.0,0.0,0.0,0.0,0.0,0.0,0.0,0.0,0.0,0.0,0.0,0.0,0.0,0.0,0.0,0.0,0.0,1.9771,1.9802,1.9526,1.9877,1.9678,0.0,0.0,0.0,0.0,0.0,0.0,2.1319,2.0999,2.1048,2.1744,2.1233,2.1105,2.1402,2.1932,2.2074,2.1826,2.2095,2.2019,2.1674,2.2161,2.2114,2.166,2.217,2.2145,2.1546,1.9033,1.7585,1.6939,1.6771,1.6424,1.599,1.6118,1.5873,1.554,1.5764,1.5622,1.5335,1.5343,1.5273,1.5064,1.4241,0.0,0.0,0.0,0.0,1.4349,1.3569,1.3886,1.4163,1.3233,1.3222,1.3432,1.3317,1.3251,1.2661,1.0892,1.0867,1.1015,1.0484,1.0254,0.0,1.0418,1.0311,1.004,0.964,0.9198,0.8724,0.8217,0.7393,0.6764,0.6494,0.5912,0.557,0.5592,0.4512,0.3655,0.3198,0.1649,0.0554,0.0,0.0,0.0,0.0,0.0,0.0,0.0,0.0,0.0,0.0,0.0,0.0,0.0,0.0,0.0,0.0,0.0,0.0,0.0,0.0,0.0,0.0,0.0,0.0,0.0,0.0,0.0,0.0,0.0,0.0,2.2868,2.2712,0.0,0.0,0.0,0.0,2.2433,2.2374,2.2696,2.357,2.3673,2.3897,2.4315,2.466,2.445,2.3657,2.3307,2.2705,2.1902,2.1845,2.1636,2.1239,2.2019,2.1962,2.1254,2.2047,2.217,2.1768,2.1194,2.018,1.8914,1.8523,1.7935,1.7293,1.7171,1.7236,1.7291,1.6738,1.6545,1.6489,1.6284,1.6137,1.5915,1.5237,1.5408,0.0,0.0,1.517,1.5532,1.4653,1.4794,1.4909,1.4061,1.4132,1.4328,1.3937,1.3599,1.3264,1.2893,1.259,1.2387,1.2267,0.0,1.1763,1.1715,1.1436,1.0867,0.9916,0.9767,0.9259,0.7952,0.7887,0.7726,0.7275,0.7334,0.724,0.6938,0.6471,0.5639,0.4276,0.3107,0.2019,0.1056,0.006,0.0,0.0,0.0,0.0,0.0,0.0,0.0,0.0,0.0,0.0,0.0,0.0,0.0,0.0,0.0,0.0,0.0,0.0,0.0,0.0,0.0,0.0,0.0,0.0,0.0,0.0,0.0,0.0,2.5653,2.5532,0.0,2.432,2.3924,2.3913,2.4356,2.5047,2.5622,2.6094,2.6069,2.6087,2.6214,2.5804,2.5147,2.4274,2.411,2.3569,2.265,2.265,2.2428,2.2042,2.2611,2.2573,2.2071,2.2631,2.264,2.2273,2.2371,2.1945,2.122,2.1065,2.0677,2.0238,2.0205,1.9869,1.9457,1.9272,1.8966,1.871,1.8623,1.8401,1.8019,1.736,1.7331,1.7402,1.6798,1.6738,1.6697,1.6008,1.5833,1.565,1.4841,1.4782,1.484,1.4715,1.4148,1.3743,1.4048,1.3294,1.2635,1.2593,1.2085,1.1772,1.1924,1.1314,1.071,1.0355,1.0224,1.0007,0.9521,0.9,0.8628,0.8481,0.7963,0.7628,0.7649,0.7169,0.6721,0.6306,0.544,0.4787,0.4325,0.3787,0.3572,0.0,0.0,0.0,0.0,0.0,0.0,0.0,0.0,0.0,0.0,0.0,0.0,0.0,0.0,0.0,0.0,0.0,0.0,0.0,0.0,0.0,0.0,0.0,0.0,0.0,2.633,2.7341,2.7201,2.774,2.7819,2.6923,2.6733,2.6706,2.6901,2.7502,2.7917,2.8048,2.7792,2.7644,2.7644,2.704,2.6365,2.5604,2.5158,2.456,2.3769,2.363,2.3332,2.2934,2.3361,2.3252,2.2735,2.2977,2.2779,2.2334,2.2711,2.2703,2.2461,2.2561,2.249,2.2232,2.2098,2.16,2.1,2.0694,2.0416,2.0137,2.0137,1.9956,1.9611,1.8877,1.8856,1.8921,1.7895,1.7692,1.76,1.6683,1.6407,1.6197,1.5467,1.5274,1.523,1.5136,1.459,1.4188,1.4475,1.3632,1.2908,1.3001,1.2481,1.2058,1.1984,1.1292,1.0737,1.0601,1.053,1.0408,1.0243,0.9925,0.9649,0.9492,0.8947,0.8626,0.8709,0.8204,0.7874,0.7849,0.7232,0.6772,0.6546,0.6331,0.6139,0.6037,0.0,0.0,0.0,0.0,0.0,0.0,0.0,0.0,0.0,0.0,0.0,0.0,0.0,0.0,0.0,0.0,0.0,0.0,0.0,0.0,0.0,0.0,0.0,2.6548,2.8272,2.9115,2.7625,2.9303,3.015,2.8905,2.9379,2.9875,3.0062,2.9581,2.928,2.928,2.8787,2.851,2.851,2.851,2.8284,2.7801,2.6479,2.5594,2.513,2.4738,2.4303,2.3888,2.4334,2.4096,2.3276,2.3192,2.2752,2.2016,2.2438,2.2605,2.2634,2.2959,2.3081,2.3042,2.2643,2.2256,2.1758,2.0909,2.0605,2.0605,2.0586,2.0595,2.0439,1.9568,1.9901,2.0145,1.8032,1.7978,1.8178,1.6555,1.6396,1.6535,1.5871,1.5682,1.5563,1.5297,1.4964,1.4626,1.4317,1.3758,1.3433,1.3593,1.3286,1.2767,1.2054,1.1467,0.0,1.0684,1.0622,1.0455,0.9991,1.0523,1.0753,1.0285,1.0354,1.0346,1.0134,0.9637,0.9166,0.8769,0.8318,0.7887,0.7483,0.7378,0.7271,0.72,0.0,0.0,0.0,0.0,0.0,0.0,0.0,0.0,0.0,0.0,0.0,0.0,0.0,0.0,0.0,0.0,0.0,0.0,0.0,0.0,0.0,2.9123,2.996,2.9393,3.0326,3.1074,3.1085,3.0898,3.0842,3.0881,2.9983,2.9479,2.952,2.9027,2.8727,2.8727,2.8595,2.851,2.851,2.851,2.8118,2.738,2.6996,2.6396,2.5593,2.5506,2.5377,2.5259,2.5388,2.5313,2.5076,2.5083,2.4786,2.4317,2.4733,2.4733,2.4323,2.3128,2.2828,2.3081,2.2964,2.251,2.1758,2.0909,2.0605,2.0546,2.0195,2.0427,2.0592,1.9387,1.9624,1.9989,1.8493,1.7974,1.7685,1.6969,1.6644,1.6506,1.6317,1.6257,1.6218,1.6167,1.5601,1.5226,1.5528,1.5125,1.4638,1.4254,1.3637,1.3151,1.2949,1.2011,1.1277,1.118,1.1313,1.1298,1.1014,1.1243,1.1294,1.1038,1.0946,1.0871,1.084,1.0539,1.0295,1.0098,0.9939,0.9718,0.9352,0.9562,0.9531,0.0,0.0,0.0,0.0,0.0,0.0,0.0,0.0,0.0,0.0,0.0,0.0,0.0,0.0,0.0,0.0,0.0,0.0,0.0,0.0,0.0,0.0,3.092,3.1818,3.2187,3.2329,3.2332,3.2183,3.1793,3.1577,3.1705,3.0874,3.0194,2.9977,2.9677,2.9441,2.9294,2.9064,2.8996,2.9128,2.8818,2.8407,2.7995,2.747,2.6958,2.6524,2.6412,2.637,2.637,2.6483,2.6524,2.6483,2.6235,2.5793,2.5374,2.5691,2.5595,2.5253,0.0,0.0,0.0,0.0,2.2872,2.227,2.1027,2.0654,2.0663,2.0182,2.0491,2.0803,1.9657,1.9786,2.0015,1.8544,1.7945,1.7533,1.6736,1.6397,1.6256,1.6306,1.6194,1.6052,1.616,1.58,1.556,1.5871,1.5843,0.0,1.5287,1.4505,1.3811,1.3468,1.256,1.1852,1.1711,1.174,1.1819,1.1886,1.2048,1.2176,1.2228,1.2066,0.0,0.0,0.0,1.1196,1.0992,1.0876,0.0,0.0,0.0,1.0781,1.0696,1.068,0.0,0.0,1.004,1.0594,0.0,0.0,0.0,0.0,0.0,0.0,0.0,0.0,0.0,0.0,0.0,0.0,0.0,0.0,0.0,0.0,3.2625,3.3383,3.465,3.4144,3.3201,3.2062,3.2374,3.2426,3.1886,3.1777,3.1503,3.0958,3.0819,3.0664,3.0379,2.9905,0.0,0.0,0.0,2.8943,2.9013,2.7914,2.7458,2.7597,2.7418,2.7348,2.7348,2.7528,2.7637,2.7597,2.7017,2.6429,2.5931,2.6103,2.6029,2.5817,2.5774,2.5784,2.5581,2.3909,2.3259,2.2972,2.1386,0.0,0.0,2.0466,2.0685,2.0992,2.0066,2.004,1.9958,1.8334,1.7807,1.7505,1.6265,1.5943,1.5961,1.6024,1.5767,1.5549,1.5735,1.579,1.579,1.579,1.6122,1.6413,1.6413,1.5567,1.4643,1.3871,1.3205,1.2653,1.2301,1.2139,1.2193,1.2579,1.2833,0.0,1.3438,1.3347,1.3282,1.3252,1.2565,1.2024,1.1768,1.1509,1.1766,1.253,1.1737,1.1426,1.1561,1.1182,1.0858,1.0558,1.0718,1.122,0.0,0.0,0.0,0.0,0.0,0.0,0.0,0.0,0.0,0.0,0.0,0.0,0.0,0.0,0.0,3.3771,3.4268,3.462,3.5328,3.4847,3.4166,3.3428,3.3389,3.3199,3.255,3.2129,3.1595,3.0965,3.0482,3.0236,3.017,3.0073,2.982,2.9439,2.9428,2.9161,2.863,2.8526,2.8435,2.8299,2.8259,0.0,2.8259,2.8299,2.8407,2.8542,2.8422,2.8362,2.8397,2.8436,2.8183,2.7603,2.6194,2.5625,2.5502,2.4421,2.3699,2.3196,2.2517,2.1884,2.1356,2.1099,2.0927,2.0682,1.9573,1.9196,0.0,1.7868,1.7307,1.688,1.6219,1.6192,1.6195,1.5852,1.6004,1.6211,1.6249,1.6249,1.6249,1.6249,1.635,1.6413,1.6413,1.5918,1.5341,1.4801,1.4205,1.3661,1.3199,1.3037,1.2932,1.2865,1.322,1.3441,1.3353,1.364,1.3786,1.3618,1.3347,1.323,1.3275,1.323,1.3042,1.2737,1.2816,1.2575,1.1968,1.2166,1.2228,1.2133,1.123,1.1134,0.0,0.0,0.0,0.0,0.0,0.0,0.0,0.0,0.0,0.0,0.0,3.1884,3.2253,0.0,3.3292,3.4481,3.5006,3.5359,3.5612,3.5651,3.5171,3.3878,3.3713,3.3556,3.3215,3.2664,3.2203,3.1988,3.1369,3.1028,3.1003,3.0662,3.0272,2.9805,2.9431,2.9071,2.8776,2.8697,2.8657,2.8657,2.855,2.851,2.851,2.8709,2.8855,2.8961,2.9209,2.9287,2.9236,2.9236,2.9165,2.8944,2.7714,2.6963,2.6426,2.5266,2.4668,2.4226,2.3116,2.2501,2.2158,2.1565,2.1481,2.1482,2.0687,2.0369,2.0084,1.9084,1.8697,1.8425,1.7624,1.7539,1.7597,1.7345,1.7039,1.6786,1.6786,1.6581,1.634,1.6112,1.6247,1.633,1.6102,1.606,1.5877,1.5411,1.4697,1.4121,1.3885,1.3528,1.3365,1.3494,1.3646,1.3789,1.3902,1.411,1.4156,1.3967,1.3708,1.3538,1.3509,1.3275,1.3157,1.3213,1.3046,1.2831,1.2593,1.2511,1.2369,1.2175,1.1648,1.1689,0.0,0.0,0.0,0.0,0.0,0.0,0.0,3.3597,3.3387,3.4747,3.4371,3.3892,3.4328,3.4423,3.4626,3.5222,3.571,3.6022,3.59,3.6402,3.6136,3.4451,3.426,3.4257,3.4246,3.3515,3.3077,3.3151,3.2425,3.2017,3.2005,3.1304,3.0762,3.0409,2.9481,2.9019,2.9052,2.8736,2.8697,2.8791,2.8657,2.863,2.863,2.8934,2.9131,2.917,2.9624,2.9702,2.947,2.947,2.9537,2.9566,2.9001,2.8213,2.7348,2.625,2.5719,2.5301,2.3664,2.3097,2.2971,2.2097,2.2042,2.2296,2.1876,2.1627,2.1352,2.0419,2.0203,2.0064,1.9145,1.8978,1.9011,1.8803,1.8115,1.7479,1.7251,1.687,1.6401,1.5925,1.6153,1.6288,1.5887,1.6164,1.6247,1.5753,1.5059,1.4542,1.4449,1.4008,1.3812,1.4113,1.4119,1.4245,1.4572,1.4566,1.4493,1.4341,1.4016,1.377,1.3596,1.324,1.3276,1.3746,1.3202,1.3035,1.3192,1.2747,1.2409,1.2144,1.2261,1.2489,3.1494,3.2176,3.4064,3.5942,3.6269,3.6672,0.0,3.7864,3.6743,3.7462,3.6847,3.6225,3.6293,3.6307,3.651,3.7092,3.7241,3.7092,3.6578,3.7039,3.7118,3.6357,3.629,3.6228,3.6194,3.5098,3.4239,3.3847,3.2678,3.2101,3.2345,3.1773,3.122,3.0745,3.0098,2.949,2.8843,2.8973,2.8961,2.8791,2.8973,2.9013,2.9013,2.9091,2.9197,2.938,2.9663,2.9792,2.9753,2.9753,2.9452,2.8938,2.8411,2.7822,2.7297,2.7151,2.6467,2.5485,2.4801,2.4107,2.3472,2.304,2.2456,2.1822,2.1611,2.1089,2.0527,2.0396,2.012,1.9848,1.9701,1.9703,1.9454,1.849,1.8499,1.8436,1.7429,1.7146,1.695,1.6415,1.6371,1.6392,1.634,1.6381,1.6247,1.5753,1.5597,1.539,1.4976,1.4847,1.4682,1.432,1.4651,1.4893,1.4945,1.4829,1.4771,1.4732,1.4692,1.4665,1.4626,1.4692,1.4557,1.4235,1.415,1.3925,1.3549,1.3491,1.3447,1.3396,1.342,1.3196,3.611,3.5617,3.5619,3.7903,3.8299,3.8512,3.9909,3.8811,3.7915,3.939,3.8616,3.7663,3.7663,3.7663,3.7636,3.7512,3.777,3.7797,3.7229,3.7621,3.7783,3.7216,3.7446,3.7495,3.7131,3.593,3.5063,3.4719,3.3388,3.2339,3.1833,3.1346,3.0745,2.9992,2.9625,2.9285,2.8973,2.9052,2.9052,2.8961,2.9052,2.9091,2.9091,2.9236,2.9404,2.965,2.974,2.9792,2.9792,2.9792,2.9453,2.8863,2.8637,2.8047,2.7278,2.6952,2.6537,2.6047,2.5473,2.5062,2.4633,2.3854,2.3374,2.3001,2.256,2.2236,2.188,2.1514,2.1542,2.1626,2.1254,2.1206,2.1058,2.0292,1.9761,1.9199,1.8426,1.7984,1.7566,1.7081,1.7203,1.7313,1.7026,1.7214,1.7335,1.7126,1.6303,1.5618,1.5421,1.5163,1.4821,1.4355,1.448,1.449,1.4221,1.414,1.4229,1.4496,1.4234,1.4229,1.4507,1.431,1.4097,1.391,1.3876,1.3807,1.3597,1.3597,1.3597,1.361,1.3967,1.3849,3.8114,3.7696,3.7293,3.9426,4.0281,4.0716,4.1243,4.0322,3.9688,4.1,4.0069,3.8945,3.8697,3.879,3.8708,3.8068,3.8518,3.864,3.7851,3.8095,3.826,3.7783,3.8109,3.8315,3.8,3.685,3.5996,3.5766,3.4264,3.297,3.2095,3.1327,3.0642,2.997,2.9436,2.9157,2.9157,2.9157,2.9157,2.9157,2.9248,2.93,2.93,2.9443,2.9611,2.9792,2.9792,2.9792,2.9792,2.9792,2.9453,2.8875,2.8725,2.8122,2.7253,2.67,2.6499,2.6411,2.5799,2.5598,2.5448,2.4519,2.4117,2.3916,2.3471,2.3233,2.3005,2.2525,2.272,2.2975,2.2494,2.2454,2.2359,2.1656,2.0875,2.0037,1.9185,1.8655,1.8205,1.769,1.7867,1.8005,1.7663,1.7878,1.8093,1.8093,1.712,1.6368,1.6368,1.5818,1.5359,1.5171,1.4772,1.4438,1.4251,1.411,1.4161,1.4502,1.4204,1.4172,1.4513,1.4193,1.4012,1.4012,1.4012,1.4012,1.4012,1.4012,1.4035,1.4071,1.4514,1.456,3.5015,3.6754,3.8418,4.0373,4.2337,4.3826,4.4024,4.3579,4.2967,4.2283,4.1308,4.0289,3.9441,3.9739,3.9943,3.9346,3.9739,3.9726,3.8559,3.841,3.841,3.8383,3.841,3.864,3.9197,3.8078,3.7197,3.6884,3.5215,3.4074,3.3658,3.2225,3.1373,3.1336,3.0057,2.938,2.938,2.938,2.938,2.938,2.965,2.9792,2.9792,2.9792,2.9792,2.9792,2.9792,2.9792,2.9792,2.9792,2.9453,2.8838,2.8335,2.7783,2.7253,2.67,2.6499,2.6411,2.5799,2.5598,2.5511,2.4971,2.4431,2.4004,2.3979,2.3547,2.3108,2.3078,2.3065,2.3108,2.3078,2.3065,2.2807,2.1744,2.1481,2.0989,1.9349,1.8987,1.8789,1.819,1.8081,1.8093,1.807,1.8081,1.8093,1.8093,1.8054,1.8015,1.8015,1.7171,1.6761,1.7258,1.5968,1.528,1.5774,1.5349,1.5062,1.5085,1.5062,1.5062,1.5085,1.5062,1.5062,1.5062,1.5062,1.5062,1.5062,1.5062,1.5119,1.5243,1.5266,1.5366,3.6568,3.8278,4.0028,4.2579,4.366,4.4242,4.473,4.3652,4.2489,4.2231,4.0236,3.8317,3.7624,3.8016,3.8355,3.8122,3.8952,3.959,3.959,3.9251,3.8857,3.8464,3.8762,3.8925,3.8735,3.7949,3.7432,3.7315,3.5362,3.3933,3.3395,3.2872,3.1996,3.0658,3.089,3.0598,2.9663,2.9663,2.9663,2.9663,2.9753,2.9792,2.9792,2.9792,2.9792,2.9792,2.9792,2.9792,2.9792,2.9792,2.9227,2.836,2.8185,2.7544,2.6751,2.6562,2.6499,2.6461,2.6273,2.6197,2.6109,2.5523,2.5209,2.4921,2.4217,2.3866,2.3597,2.3208,2.3108,2.3108,2.3108,2.3108,2.2832,2.1757,2.1493,2.1124,1.9814,1.9526,1.9474,1.9267,1.924,1.924,1.924,1.924,1.924,1.924,1.8578,1.8093,1.8093,1.7794,1.7419,1.6913,1.6731,1.6293,1.5441,1.5533,1.5487,1.5131,1.5108,1.5108,1.5108,1.5108,1.5108,1.5108,1.5108,1.5108,1.5108,1.5187,1.5266,1.5311,1.5766,1.582,3.8138,3.994,4.1606,4.3922,4.46,4.4783,4.5311,4.4013,4.2611,4.2338,3.9864,3.7441,3.6714,3.6931,3.6957,3.632,3.7567,3.8722,3.8884,3.8776,3.8681,3.8735,3.9061,3.9156,3.8776,3.796,3.7485,3.7501,3.5998,3.4727,3.3916,3.3322,3.2468,3.1325,3.1306,3.0983,3.0216,2.9934,2.9792,2.9792,2.9792,2.9792,2.9792,2.9792,2.9792,2.9792,2.9792,2.9792,2.9779,2.9566,2.9051,2.836,2.7959,2.7381,2.6763,2.6562,2.6499,2.6499,2.6499,2.6499,2.6436,2.6059,2.5636,2.5197,2.4506,2.4004,2.3615,2.3208,2.3108,2.3108,2.3108,2.3108,2.2832,2.1757,2.1493,2.1179,2.0049,1.9798,1.9798,1.9798,1.9798,1.9798,1.9798,1.9798,1.9798,1.9798,1.9188,1.8641,1.8448,1.8258,1.7808,1.6978,1.7002,1.6693,1.5674,1.5921,1.5968,1.5614,1.5591,1.5591,1.5591,1.5591,1.5591,1.5591,1.5591,1.5613,1.5669,1.5768,1.5834,1.591,1.6346,1.6398,3.9595,4.16,4.3105,4.4433,4.5142,4.5552,4.5771,4.4655,4.3328,4.2529,3.9974,3.758,3.6552,3.6442,3.5981,3.4314,3.6035,3.739,3.6904,3.7284,3.8,3.9169,3.9305,3.9305,3.9305,3.8274,3.7567,3.7485,3.7061,3.6313,3.518,3.3674,3.2922,3.313,3.1472,3.071,3.097,3.0241,2.9869,2.9869,2.983,2.9792,2.9792,2.9792,2.9792,2.9792,2.9792,2.9779,2.9704,2.9151,2.8863,2.87,2.7695,2.7268,2.7216,2.6688,2.6499,2.6499,2.6499,2.6499,2.6487,2.6461,2.5711,2.4813,2.4763,2.3998,2.3145,2.3108,2.3108,2.3108,2.3108,2.3108,2.2832,2.1757,2.1493,2.1179,2.0049,1.9798,1.9798,1.9798,1.9798,1.9798,1.9798,1.9798,1.9798,1.9761,1.9761,1.9585,1.907,1.8568,1.8028,1.7473,1.6886,1.6513,1.645,1.6475,1.6488,1.645,1.6475,1.65,1.65,1.65,1.65,1.65,1.65,1.6577,1.6697,1.6697,1.6803,1.7002,1.7002,1.7073,4.0742,4.264,4.4417,4.5302,4.5629,4.5735,4.5771,4.451,4.2766,4.0929,3.8208,3.5571,3.3666,3.4394,3.5385,3.5859,3.7568,3.9115,3.9861,3.9319,3.8966,3.9264,3.9305,3.9305,3.9305,3.902,3.8491,3.7567,3.6283,3.5461,3.5264,3.4633,3.3684,3.2328,3.2603,3.2448,3.1783,3.102,3.062,3.062,3.0062,2.9792,2.9792,2.9792,2.9792,2.9792,2.9792,2.9553,2.9139,2.895,2.8448,2.767,2.7394,2.7065,2.6688,2.6549,2.6499,2.6499,2.6499,2.6499,2.6424,2.5996,2.5624,2.5247,2.4456,2.4004,2.369,2.3233,2.3108,2.3108,2.3108,2.3108,2.2832,2.1757,2.1493,2.1179,2.0049,1.9798,1.9798,1.9798,1.9798,1.9798,1.9798,1.9798,1.9673,1.9259,1.9196,1.9146,1.902,1.8882,1.8455,1.7511,1.725,1.6823,1.5982,1.6283,1.6325,1.5932,1.6283,1.65,1.65,1.65,1.65,1.65,1.65,1.6577,1.6697,1.6803,1.6897,1.7002,1.7094,1.7178,4.1772,4.3167,4.4437,4.484,4.4769,4.4417,4.3759,4.2221,4.0365,3.8502,3.5943,3.3581,3.2092,3.3457,3.4748,3.4679,3.6836,3.8762,3.941,3.9183,3.9007,3.9278,3.9522,3.959,3.9332,3.9061,3.864,3.7933,3.6801,3.5937,3.5494,3.479,3.4057,3.3379,3.3096,3.2682,3.2123,3.1636,3.1267,3.0895,3.0482,3.0101,2.9792,2.9792,2.9792,2.9792,2.9792,2.9616,2.9264,2.8775,2.8348,2.7934,2.7205,2.6914,2.6826,2.6587,2.6499,2.6499,2.6499,2.6499,2.6399,2.5787,2.5272,2.4782,2.418,2.3816,2.3521,2.3195,2.3108,2.3108,2.3108,2.3108,2.2832,2.1757,2.1493,2.1179,2.0049,1.9798,1.9798,1.9798,1.9798,1.9798,1.9798,1.9798,1.9623,1.9083,1.9008,1.8832,1.8367,1.8304,1.7877,1.676,1.6656,1.6384,1.5743,1.5982,1.6132,1.6057,1.6325,1.65,1.65,1.65,1.6522,1.6599,1.6599,1.6663,1.6825,1.6897,1.6981,1.7094,1.7157,1.7199,4.2335,4.3087,4.3654,4.3654,4.3191,4.2386,4.097,3.9247,3.7482,3.5755,3.3695,3.1964,3.1213,3.2861,3.3975,3.2942,3.5452,3.7594,3.7919,3.8383,3.8776,3.9142,3.9699,3.9807,3.9129,3.8667,3.8355,3.8193,3.7704,3.6835,3.5669,3.4504,3.4207,3.484,3.3256,3.2403,3.2412,3.2304,3.1856,3.1044,3.097,3.0507,2.9792,2.9792,2.9792,2.9792,2.9792,2.9741,2.9591,2.8549,2.8348,2.8561,2.709,2.6788,2.7153,2.6663,2.6499,2.6499,2.6499,2.6449,2.6285,2.5686,2.4858,2.4079,2.3929,2.354,2.3108,2.3108,2.3108,2.3108,2.3108,2.3045,2.2732,2.1732,2.1458,2.1091,2.0024,1.9798,1.9798,1.9798,1.9798,1.9798,1.9798,1.9798,1.9623,1.9083,1.9008,1.8607,1.7549,1.741,1.6996,1.5919,1.5731,1.5693,1.5693,1.5693,1.5906,1.635,1.645,1.65,1.65,1.65,1.6543,1.6697,1.6697,1.6803,1.7002,1.7002,1.7086,1.7199,1.7199,1.7199,4.1407,4.1827,4.2317,4.2317,4.1882,4.1146,4.006,3.8746,3.6929,3.4007,3.2672,3.1585,3.0099,3.0948,3.2766,3.5411,3.6782,3.819,4.0169,4.0146,3.9563,3.8667,3.9102,3.902,3.7905,3.8149,3.8003,3.6999,3.6822,3.6239,3.5005,3.4287,3.3823,3.3635,3.385,3.4011,3.4011,3.3346,3.2648,3.1892,3.123,3.0507,2.9792,2.9792,2.9792,2.9792,2.9792,2.9528,2.9026,2.8373,2.7896,2.7494,2.6788,2.6549,2.6625,2.6524,2.6499,2.6499,2.6499,2.6185,2.5661,2.5134,2.48,2.4474,2.3534,2.3183,2.3108,2.3108,2.3108,2.3108,2.3108,2.2769,2.2297,2.1644,2.1169,2.0654,1.9949,1.9798,1.9798,1.9798,1.9798,1.9798,1.9798,1.9798,1.9623,1.9083,1.9008,1.8607,1.7549,1.741,1.7124,1.6446,1.5969,1.5693,1.5693,1.5693,1.5731,1.5831,1.6237,1.65,1.65,1.65,1.6543,1.6697,1.6697,1.6803,1.7002,1.7002,1.7086,1.7199,1.7199,1.7199,4.0121,4.0395,4.0991,4.0991,4.0402,3.9313,3.7561,3.6114,3.4334,3.1519,3.0799,3.037,2.925,3.0806,3.2707,3.4068,3.6117,3.777,3.8654,3.9319,3.94,3.8532,3.8667,3.8613,3.8,3.7933,3.7582,3.6673,3.6605,3.6076,3.4856,3.4317,3.3913,3.3591,3.4128,3.4414,3.4414,3.4011,3.3451,3.2648,3.1892,3.1132,3.0343,2.9972,2.9792,2.9792,2.9792,2.9641,2.934,2.8762,2.821,2.7657,2.714,2.6751,2.6499,2.6499,2.6499,2.6499,2.6499,2.6311,2.5946,2.5096,2.4619,2.423,2.3358,2.3108,2.3108,2.3108,2.3108,2.3108,2.3108,2.2907,2.2493,2.1681,2.0867,2.0137,1.9861,1.9798,1.9798,1.9798,1.9798,1.9798,1.9798,1.9798,1.9623,1.9083,1.9008,1.8607,1.7549,1.741,1.7162,1.655,1.6019,1.5806,1.6095,1.5856,1.5819,1.6107,1.635,1.65,1.65,1.65,1.6599,1.6803,1.6803,1.6897,1.7094,1.7094,1.7136,1.7199,1.7199,1.7199,3.8392,3.8557,3.9143,3.9143,3.841,3.7074,3.4816,3.3302,3.1749,2.9439,2.9149,2.9176,2.8682,3.0548,3.2151,3.2205,3.4543,3.6442,3.6578,3.7935,3.8749,3.8274,3.845,3.845,3.807,3.7689,3.7187,3.6469,3.6171,3.5669,3.477,3.4247,3.3945,3.3785,3.4196,3.4414,3.4414,3.4414,3.4011,3.3178,3.2613,3.1842,3.0895,3.0305,2.9934,2.9792,2.9792,2.9792,2.9741,2.9126,2.8562,2.8047,2.7494,2.6977,2.6499,2.6499,2.6499,2.6499,2.6499,2.6499,2.6311,2.5172,2.4519,2.4042,2.3321,2.3108,2.3108,2.3108,2.3108,2.3108,2.3108,2.3007,2.2681,2.1719,2.0815,2.0125,2.0012,1.9987,1.9949,1.9823,1.9798,1.9798,1.9798,1.9798,1.966,1.9221,1.9171,1.877,1.7725,1.7574,1.7287,1.6575,1.6132,1.6045,1.6463,1.612,1.6057,1.6475,1.65,1.65,1.65,1.65,1.6607,1.6846,1.6876,1.6981,1.7157,1.7199,1.7199,1.7199,1.7199,1.7199,3.5911,3.5938,3.6019,3.6019,3.5356,3.4277,3.2727,3.1627,3.054,2.8967,2.8673,2.8655,2.86,2.8817,2.9699,3.1865,3.2453,3.3593,3.6225,3.7229,3.7634,3.758,3.8559,3.8572,3.6931,3.7187,3.7011,3.5886,3.4761,3.4251,3.4524,3.379,3.3515,3.3805,3.4196,3.4414,3.4414,3.4414,3.4011,3.3178,3.3108,3.2313,3.0895,3.082,3.0444,2.9792,2.9792,2.9792,2.9741,2.9126,2.8562,2.8047,2.7494,2.6977,2.6499,2.6499,2.6499,2.6499,2.6499,2.6499,2.6311,2.5172,2.4763,2.4512,2.3434,2.3108,2.3108,2.3108,2.3108,2.3108,2.3108,2.2732,2.2234,2.1631,2.1405,2.1192,2.0717,2.0616,2.0465,1.9911,1.9798,1.9798,1.9798,1.9798,1.9786,1.9736,1.9736,1.9346,1.8267,1.8129,1.7714,1.6613,1.645,1.6437,1.6488,1.645,1.6437,1.65,1.65,1.65,1.65,1.65,1.6565,1.6718,1.6846,1.6939,1.7023,1.7136,1.7199,1.7199,1.7199,1.7199,3.399,3.4577,3.5224,3.5224,3.422,3.2882,3.1646,3.0603,2.9556,2.8319,2.8346,2.8587,2.8587,2.8587,2.8899,2.9862,3.1232,3.2467,3.3295,3.4841,3.613,3.689,3.6754,3.6754,3.7121,3.6686,3.6049,3.5209,3.4601,3.4276,3.4325,3.3676,3.3563,3.4128,3.4312,3.4414,3.4414,3.4414,3.423,3.3928,3.3437,3.2897,3.2241,3.1328,3.0758,3.0444,2.9998,2.9792,2.9779,2.9541,2.9114,2.8549,2.836,2.7934,2.7406,2.7115,2.6989,2.6939,2.6612,2.6499,2.6361,2.5548,2.5039,2.4575,2.3446,2.3108,2.3108,2.3108,2.3108,2.3108,2.3108,2.2694,2.2171,2.1619,2.1493,2.1343,2.0817,2.0691,2.0629,2.039,2.0037,1.9798,1.9798,1.9798,1.9798,1.9798,1.9535,1.9033,1.8304,1.7915,1.74,1.6588,1.65,1.65,1.65,1.65,1.65,1.65,1.65,1.65,1.65,1.65,1.6543,1.6697,1.6825,1.6918,1.7002,1.7136,1.7199,1.7199,1.7199,1.7199,3.2145,3.3206,3.422,3.422,3.3021,3.1596,3.0675,2.9531,2.846,2.7773,2.7993,2.8346,2.8554,2.8587,2.8587,0.0,3.0011,3.1097,3.1042,3.2616,3.4217,3.5411,3.4963,3.51,3.655,3.5913,3.5249,3.4816,3.4339,3.4061,3.4022,3.355,3.3632,3.438,3.4414,3.4414,3.4414,3.4414,3.4414,3.438,3.3825,3.3437,3.3143,3.2096,3.1328,3.0857,3.0343,2.9998,2.9792,2.9792,2.9453,2.8888,2.8888,2.8549,2.8047,2.7494,2.7281,2.7241,2.6688,2.6499,2.6399,2.5787,2.5247,2.4612,2.3647,2.3246,2.3108,2.3108,2.3108,2.3108,2.3108,2.2819,2.2431,2.2071,2.1845,2.1581,2.1056,2.0805,2.0641,2.0465,2.0075,1.9798,1.9798,1.9798,1.9798,1.9798,1.9334,1.8807,1.8279,1.7714,1.7162,1.655,1.65,1.65,1.65,1.65,1.65,1.65,1.65,1.65,1.65,1.6543,1.6599,1.6697,1.6846,1.6939,1.7002,1.7136,1.7261,1.7372,1.7261,1.7199,3.0328,3.1437,3.2431,3.2431,3.1308,3.0087,2.9549,2.827,2.7286,2.7449,2.7517,2.7716,2.8457,2.8587,2.8587,2.8587,2.8614,2.9048,3.0242,3.0948,3.1775,3.2993,3.3607,3.4151,3.4761,3.4816,3.4802,3.4788,3.3729,3.3274,3.3601,3.3415,3.3632,3.438,3.4414,3.4414,3.4414,3.4414,3.4414,3.4414,3.438,3.3962,3.3178,3.3178,3.2349,3.0895,3.0895,3.0482,2.9792,2.9792,2.9453,2.8888,2.8888,2.8549,2.8047,2.7494,2.7281,2.7241,2.6688,2.6499,2.6399,2.5787,2.5247,2.4687,2.4167,2.3559,2.3108,2.3108,2.3108,2.3108,2.3108,2.3095,2.3095,2.3083,2.2669,2.2146,2.1594,2.1081,2.0515,1.9924,1.9798,1.9798,1.9798,1.9798,1.9798,1.9798,1.9334,1.8807,1.8279,1.7714,1.7162,1.655,1.65,1.65,1.65,1.65,1.65,1.65,1.65,1.65,1.65,1.6633,1.6697,1.6697,1.6897,1.7002,1.7002,1.7136,1.7393,1.7767,1.7393,1.7199,2.7949,2.8631,2.9112,2.9112,2.8045,2.699,2.6936,2.6302,2.578,2.6144,2.6879,2.7617,2.7973,2.836,2.8587,2.8587,2.894,2.9333,2.9713,3.0649,3.1884,3.3447,3.4909,3.5683,3.5425,3.5032,3.4626,3.4219,3.3697,3.3326,3.3007,3.3191,3.3514,3.3991,3.4264,3.4414,3.4414,3.4414,3.4414,3.4414,3.4414,3.4264,3.4011,3.3451,3.2648,3.1683,3.0761,2.9915,2.9176,2.88,2.8536,2.836,2.836,2.826,2.8047,2.7494,2.7281,2.7241,2.6688,2.6499,2.6461,2.6285,2.5799,2.5322,2.5146,2.4167,2.3108,2.3108,2.3108,2.3108,2.3108,2.3108,2.3007,2.2631,2.2694,2.2694,2.2171,2.1619,2.1207,2.0991,2.0326,1.9798,1.9798,1.9798,1.9798,1.9798,1.9045,1.8405,1.8229,1.7375,1.6873,1.7087,1.676,1.65,1.65,1.65,1.65,1.65,1.65,1.65,1.65,1.6543,1.6599,1.6697,1.7115,1.724,1.7002,1.774,1.7988,1.7787,1.7679,1.7618,2.6279,2.7056,2.7499,2.758,2.6586,2.5654,2.5781,2.5446,2.5194,2.5535,2.6607,2.755,2.7776,2.8249,2.8587,2.8587,2.8912,2.9306,2.9767,3.0486,3.1531,3.3091,3.4612,3.5412,3.5046,3.468,3.4395,3.4246,3.3618,3.3201,3.3049,3.3219,3.3444,3.3805,3.4059,3.4162,3.4162,3.4312,3.4414,3.4414,3.4414,3.4414,3.438,3.3894,3.3241,3.2442,3.1142,3.0108,0.0,2.8446,2.8109,2.8109,2.8109,2.8109,2.8047,2.7494,2.7281,2.7241,2.6688,2.6499,2.6499,2.6499,2.5971,2.5222,2.4795,2.4104,2.3384,2.3158,2.3108,2.3108,2.3108,2.3108,2.302,2.2681,2.2543,2.2393,2.2071,2.1393,2.0853,2.0853,2.0288,1.9798,1.9798,1.9798,1.9798,1.9798,1.907,1.8494,1.8494,1.7704,1.7212,1.7385,1.7204,1.6986,1.6769,1.6765,1.6765,1.6795,1.6795,1.6879,1.7047,1.6985,1.7039,1.7214,1.7666,1.7767,1.7578,1.8344,1.85,1.8068,1.8226,1.8206,0.0,2.6295,2.7077,2.725,2.6463,2.5628,2.5628,2.5399,0.0,2.55,2.6539,2.7484,2.7709,2.8216,2.8587,2.8587,2.8587,2.9021,3.0242,3.0554,3.1083,3.2236,3.3335,3.3962,3.3946,3.3867,3.4109,3.4704,3.3477,3.2938,3.3541,3.3401,3.3444,3.3736,3.3805,3.3805,3.3839,3.4196,3.4414,3.4414,3.4414,3.4414,3.4414,3.4414,3.3962,3.3115,3.1908,3.086,2.9944,2.8662,2.8058,2.7996,2.7996,2.7996,2.7921,2.7419,2.7218,2.719,2.6675,2.6461,2.6424,2.6386,2.5649,2.4587,2.3496,2.354,2.3828,2.3258,2.3108,2.3108,2.3108,2.3108,2.3108,2.3108,2.2322,2.1543,2.1543,2.0665,1.9861,1.9861,1.9823,1.9798,1.9798,1.9798,1.9798,1.9798,1.9334,1.9008,1.9008,1.8505,1.7965,1.7511,1.7731,1.7722,1.7303,1.7267,1.7289,1.7353,1.7353,1.7537,1.7988,1.7828,1.7854,1.8106,1.8369,1.8519,1.8592,1.8917,1.8898,1.8553,1.8917,1.8898,2.3958,0.0,2.4238,2.4314,2.4108,2.394,0.0,2.4166,2.437,2.4885,2.5873,2.6756,2.7142,2.7954,2.8587,2.8587,2.8587,2.9021,3.0242,3.1942,3.3352,3.4122,3.4423,3.4526,3.4369,3.3728,3.3584,3.4293,3.3323,3.2901,3.3339,3.3319,3.3339,3.3409,3.3667,3.3942,3.4264,3.4346,3.4414,3.4414,3.4414,3.4414,3.4414,3.4414,3.3962,3.315,3.2464,3.1143,2.9428,2.8651,2.7754,2.6889,2.6889,2.6889,2.6864,2.6738,2.6688,2.6663,2.6537,2.6197,2.5737,2.5335,2.5034,2.4662,2.4004,2.359,2.3283,2.3145,2.3108,2.3108,2.3108,2.3108,2.3108,2.3108,2.2581,2.2121,2.2121,2.1242,2.049,2.049,2.0138,1.9798,1.9798,1.9798,1.9798,1.9798,1.9334,1.9008,1.9008,1.8179,1.7712,1.7978,1.7314,1.7149,1.7912,1.7873,1.7828,1.7834,1.7867,1.7967,1.8066,1.8027,1.808,1.8266,1.8422,1.8808,1.942,1.9199,1.9045,1.8969,1.9064,1.9045,2.3556,2.3372,2.3224,2.3372,2.3446,2.3556,2.402,2.4515,2.5016,2.5371,2.6414,2.7263,2.7242,2.8213,2.8912,2.8641,2.9292,3.0161,3.1097,3.2368,3.3462,3.4162,3.4306,3.4496,3.4742,3.4076,3.3767,3.4167,3.3564,3.3304,3.3514,3.3514,3.3632,3.3805,3.3805,3.3908,3.4128,3.4312,3.4414,3.4414,3.4414,3.4414,3.4414,3.4414,3.4147,3.3679,3.2443,3.1096,2.9696,2.8408,2.7347,2.6499,2.6499,2.6499,2.6499,2.6499,2.6499,2.6499,2.6499,2.6109,2.5473,2.4695,2.4443,2.4343,2.3766,2.3358,2.3108,2.3108,2.3108,2.3108,2.3108,2.3108,2.3108,2.3108,2.2681,2.2246,2.1995,2.1295,2.0616,2.0352,2.0012,1.9875,2.0131,1.9952,1.9978,2.0459,2.0076,1.9722,1.9722,1.9222,1.8774,1.8486,1.8125,1.8016,1.835,1.854,1.8577,1.8428,1.8452,1.8554,1.8774,1.864,1.8679,1.894,1.9016,1.9258,1.9708,1.9475,1.938,1.938,1.938,1.938,2.374,2.3657,2.3549,2.3601,2.3666,2.3911,2.4432,2.5346,2.6057,2.6047,2.7162,2.802,2.7708,2.8585,2.9244,2.8804,3.0242,3.1702,3.2454,3.2741,3.3093,3.3758,3.3904,3.4189,3.4829,3.4393,3.412,3.4242,3.3979,3.3839,3.3874,3.3874,3.4059,3.438,3.4059,3.3874,3.3874,3.423,3.4414,3.4414,3.4414,3.4414,3.4414,3.4414,3.4356,3.4172,3.2263,3.1006,3.0133,2.8256,2.7094,2.6499,2.6499,2.6499,2.6499,2.6499,2.6499,2.6487,2.6386,2.595,2.531,2.4318,2.4004,2.3891,2.3283,2.3108,2.3108,2.3108,2.3108,2.3108,2.3108,2.3108,2.3108,2.3108,2.2681,2.2159,2.1606,2.1136,2.0595,1.9937,1.9927,2.0144,2.0535,2.0295,2.0333,2.1272,2.1017,2.0734,2.0734,2.0552,2.0066,1.9048,1.9133,1.9097,1.8682,1.9049,1.9236,1.9024,1.9024,1.9203,1.9611,1.9343,1.9362,1.969,1.9708,1.9708,1.9708,1.9708,1.9708,1.9708,1.9708,1.9708,2.4407,2.5232,2.5564,2.4016,2.4093,2.4432,2.4093,2.5016,2.5826,2.5523,2.6471,2.754,2.815,2.8532,2.8872,2.9298,3.0901,3.2573,3.4052,3.4644,3.4896,3.4864,3.4461,3.4092,3.4008,3.3656,3.3704,3.432,3.4,3.3942,3.4312,3.4312,3.4346,3.4414,3.4346,3.4312,3.4312,3.438,3.4414,3.4414,3.4414,3.4414,3.4414,3.4414,3.4124,3.3568,3.2642,3.1251,2.955,2.8612,2.7541,2.6499,2.6499,2.6499,2.6499,2.6499,2.6499,2.6424,2.5933,2.5385,2.4833,2.4205,2.4004,2.3891,2.3283,2.3108,2.3108,2.3108,2.3108,2.3108,2.3108,2.3108,2.3108,2.3108,2.2681,2.2159,2.1606,2.1382,2.0991,1.9976,2.0534,2.1028,2.0646,2.0919,2.1199,2.1369,2.1321,2.1272,2.1272,2.0384,1.9741,1.9641,1.8801,1.84,1.8812,1.8926,1.9151,1.9548,1.9584,1.9603,1.969,1.9636,1.9654,1.9708,1.9708,1.9708,1.9708,1.9708,1.9708,1.9708,1.9708,1.9708,2.4791,2.5493,2.613,2.5959,2.6661,2.736,2.7164,2.7612,2.7926,2.7398,2.7832,2.8431,2.8912,2.9767,3.0972,3.2761,3.2921,3.3215,3.425,3.4114,3.3958,3.398,3.378,3.3762,3.4094,3.3991,3.4025,3.438,3.423,3.4196,3.438,3.4414,3.4414,3.4414,3.4414,3.4414,3.4414,3.4414,3.4414,3.4414,3.4414,3.4414,3.4399,3.4051,3.3779,3.3441,3.2312,3.0937,2.9461,2.8675,2.761,2.6499,2.6499,2.6499,2.6521,2.6905,2.6814,2.6506,2.6667,2.592,2.4838,2.46,2.4073,2.3446,2.3183,2.3335,2.3632,2.3632,2.3365,2.3108,2.3108,2.3108,2.3108,2.3108,2.2681,2.2216,2.1997,2.1651,2.1238,2.0776,2.1053,2.1393,2.1468,2.1431,2.1585,2.2133,2.1992,2.1827,2.1827,2.1384,2.0809,2.0199,1.9677,1.9359,1.9294,1.9273,1.9402,1.969,1.9708,1.9708,1.9708,1.9708,1.9708,1.9708,1.9708,1.9708,1.9708,1.9708,1.9708,1.9708,1.9708,1.9708,2.5158,2.5787,2.671,2.8037,2.8683,2.9151,2.9786,2.9863,2.9764,2.9595,2.9678,2.9822,3.0024,3.1103,3.266,3.4812,3.4275,3.3811,3.4467,3.3747,3.3286,3.3523,3.3494,3.3729,3.4337,3.4414,3.4414,3.4414,3.4414,3.4414,3.4414,3.4414,3.4414,3.4414,3.4414,3.4414,3.4414,3.4414,3.4414,3.4414,3.4414,3.4414,3.4385,3.3906,3.3561,3.3177,3.1924,3.0637,2.9441,2.8497,2.755,2.6714,2.6714,2.685,2.7007,2.7196,2.7052,2.6846,2.7278,2.6423,2.5105,2.4992,2.4214,2.3314,2.3326,2.3691,2.4118,2.4263,2.3943,2.3501,2.3365,2.3454,2.3471,2.3155,2.29,2.2598,2.2188,2.2046,2.189,2.1513,2.1732,2.2082,2.2371,2.2042,2.2002,2.2775,2.2592,2.237,2.237,2.2298,2.1802,2.0727,2.0718,2.0532,1.9901,1.9867,1.9811,1.9723,1.9708,1.9708,1.9708,1.9708,1.9708,1.9708,1.9708,1.9708,1.9708,1.9708,1.9708,1.9708,1.9708,1.9708,2.5546,2.6788,2.8079,2.9421,2.8317,2.7452,2.9517,2.9816,2.9945,3.1017,3.1321,3.1495,3.1702,3.1909,3.2138,3.234,3.336,3.4482,3.5445,3.4982,3.471,3.5192,3.467,3.4337,3.438,3.4414,3.4414,3.4414,3.4414,3.4414,3.4414,3.4414,3.4414,3.4414,3.4414,3.4414,3.4414,3.4414,3.4414,3.4414,3.4414,3.4414,3.4414,3.437,3.3703,3.2521,3.1786,3.0787,2.9491,2.8131,2.7523,2.7417,2.7417,2.7802,2.8214,2.7007,2.7019,2.7516,2.6846,2.6229,2.5659,2.5092,2.4466,2.3965,2.4007,2.406,2.4205,2.4794,2.4908,2.4724,2.4176,2.4452,2.4553,2.3382,2.3547,2.3534,2.1916,2.2754,2.3366,2.189,2.2734,2.3569,2.31,2.2894,2.282,2.2888,2.2865,2.2843,2.2843,2.2359,2.1829,2.1295,2.1292,2.1148,2.0669,2.0628,2.0359,1.9753,1.9708,1.9708,1.9708,1.9708,1.9708,1.9708,1.9708,1.9708,1.9708,1.9708,1.9708,1.9708,1.9708,1.9708,2.5779,2.6954,2.8225,2.9683,2.913,2.8902,3.1384,3.1843,3.1878,3.216,3.2247,3.2318,3.2392,3.3265,3.3964,3.3964,3.4832,3.5525,3.5523,3.5293,3.5039,3.482,3.4559,3.4414,3.4414,3.4414,3.4414,3.4414,3.4414,3.4414,3.4414,3.4414,3.4414,3.4414,3.4414,3.4414,3.4414,3.4414,3.4211,3.3819,3.3819,3.3819,3.3819,3.3412,3.2745,3.1857,3.1605,3.0774,2.956,2.9044,2.8551,2.8117,2.8117,2.8019,2.788,2.7825,2.7458,2.7098,2.7656,2.6989,2.5814,2.5601,2.4853,2.3987,2.3607,2.4031,2.4624,2.4481,2.4978,2.5425,2.4823,2.4538,2.4394,2.4308,2.3903,2.3458,2.3084,2.3233,2.337,2.3084,2.3498,2.3844,2.364,2.3571,2.3374,2.2946,2.2888,2.2888,2.2888,2.2774,2.2491,2.198,2.1732,2.1362,2.0748,2.0703,2.0423,1.9753,2.0094,2.0124,1.9723,1.9708,1.9708,1.9708,1.9708,1.9708,1.9708,1.9708,1.9708,1.9708,1.9708,1.9708,2.5836,2.6713,2.7734,2.9419,2.9658,3.0131,3.2695,3.2987,3.2905,3.3614,3.3428,3.3122,3.289,3.3953,3.4738,3.4537,3.5354,3.5793,3.5189,3.5101,3.4893,3.4457,3.4414,3.4414,3.4414,3.4414,3.4414,3.4414,3.4414,3.4414,3.4414,3.4414,3.4312,3.4124,3.4312,3.4225,3.3786,3.4008,3.379,3.3166,3.298,3.2995,3.3184,3.2716,3.2118,3.1495,3.1495,3.0902,2.9901,2.9685,2.9282,2.8794,2.8376,2.8182,2.8147,2.798,2.7656,2.7305,2.7854,2.7116,2.5869,2.5666,2.48,2.3767,2.3708,2.4295,2.4979,2.4964,2.555,2.6084,2.5674,2.4968,2.4453,2.491,2.4351,2.3744,2.3699,2.3663,2.366,2.3641,2.3797,2.3891,2.3891,2.3717,2.3418,2.296,2.2888,2.2888,2.2888,2.2992,2.2929,2.2649,2.2025,2.1476,2.1047,2.1216,2.0857,1.9768,2.0528,2.0617,1.9738,1.9708,1.9708,1.9708,1.9708,1.9708,1.9708,1.9708,1.9708,1.9708,1.9708,1.9708,2.5744,2.6126,2.6643,2.8718,2.9672,3.0748,3.3156,3.2725,3.2616,3.5419,3.506,3.4008,3.3307,3.3744,3.3994,3.3293,3.4414,3.5174,3.4501,3.4414,3.4414,3.4414,3.4414,3.4414,3.4399,3.4414,3.4414,3.4399,3.4414,3.4414,3.4399,3.4399,3.4109,3.3518,3.4066,3.379,3.2495,3.3151,3.3137,3.2466,3.1814,3.1828,3.2481,3.2481,3.2104,3.148,3.1495,3.1163,3.0538,2.987,2.9608,2.9453,2.8051,2.8376,2.9338,2.7269,2.7404,2.839,2.7142,2.6352,2.5825,2.5197,2.4163,2.3365,2.461,2.5007,2.5273,2.6433,2.6779,2.6779,2.6779,2.584,2.4919,2.501,2.4969,2.4612,2.3466,2.4098,2.4533,2.3336,2.3545,2.3891,2.3891,2.3345,2.2902,2.2888,2.2888,2.2888,2.2888,2.2888,2.3,2.3275,2.2245,2.1575,2.171,2.2313,2.1834,1.9842,2.0946,2.1081,1.9753,1.9708,1.9708,1.9708,1.9708,1.9708,1.9708,1.9708,1.9708,1.9708,1.9708,1.9708,2.6124,2.7485,2.8781,2.9742,3.1271,3.2702,3.3297,3.3251,3.3451,3.4822,3.4679,3.411,3.334,3.3845,3.4095,3.3326,3.4052,3.4632,3.4443,3.4414,3.4414,3.4414,3.4414,3.424,3.379,3.4153,3.4225,3.3823,3.4167,3.4211,3.3808,3.3779,3.3456,3.2817,3.2977,3.2872,3.2481,3.2701,3.2469,3.177,3.1582,3.1582,3.1785,3.1785,3.1467,3.0872,3.1322,3.1163,3.0539,2.9881,2.9893,3.0165,2.8875,2.8551,2.8788,2.7734,2.7312,2.7213,2.6897,2.6666,2.6365,2.5328,2.5021,2.4978,2.4523,2.4978,2.5508,2.4982,2.5488,2.6065,2.5584,2.4845,2.4556,2.5948,2.5928,2.5371,2.4504,2.4647,2.4646,2.3822,2.3797,2.3891,2.3891,2.3731,2.3432,2.296,2.2888,2.2925,2.3037,2.3037,2.3135,2.3422,2.3124,2.2772,2.2428,2.2164,2.153,2.0483,2.0333,2.0112,1.9723,1.9708,1.9708,1.9708,1.9708,1.9708,1.9708,1.9708,1.9708,1.9708,1.9708,1.9708,2.6835,2.826,2.9684,3.1132,3.2672,3.3917,3.4193,3.4134,3.4148,3.4489,3.449,3.4264,3.3772,3.4085,3.425,3.3772,3.4085,3.4414,3.4414,3.4414,3.4414,3.4414,3.4196,3.3891,3.3547,3.3587,3.3601,3.3518,3.3587,3.3601,3.3518,3.3256,3.2788,3.2104,3.235,3.2266,3.1758,3.199,3.1787,3.1134,3.1134,3.1134,3.1134,3.1134,3.093,3.0627,3.0974,3.0785,3.0161,2.9784,2.9697,2.974,2.8685,2.8237,2.8141,2.7527,2.7046,2.6722,2.6784,2.6647,2.634,2.5591,2.526,2.5094,2.4882,2.5149,2.5403,2.4878,2.5258,2.5775,2.5351,2.4767,2.4629,2.6049,2.5724,2.4972,2.4534,2.4471,2.4297,2.363,2.3514,2.3514,2.3514,2.3514,2.336,2.2946,2.2888,2.2925,2.3015,2.3015,2.3112,2.34,2.3422,2.322,2.2727,2.2553,2.1949,2.0763,2.0572,2.0382,2.0109,1.9824,1.9708,1.9708,1.9708,1.9708,1.9708,1.9708,1.9708,1.9708,1.9708,1.9708,2.7601,2.8612,2.9821,3.2681,3.3839,3.4568,3.5517,3.5182,3.463,3.4428,3.4414,3.4414,3.4414,3.4414,3.4414,3.4414,3.4414,3.4385,3.4341,3.4327,3.4312,3.424,3.3732,3.3387,3.3329,3.2817,3.273,3.3285,3.2803,3.2745,3.33,3.2745,3.2089,3.1422,3.2019,3.1772,3.0612,3.1134,3.1134,3.0598,3.0598,3.0598,3.0598,3.0598,3.0598,3.0598,3.0539,3.0161,2.9581,2.9465,2.9145,2.8638,2.7839,2.7551,2.7523,2.6947,2.6694,2.6736,2.6782,2.6447,2.5975,2.5921,2.5107,2.4368,2.5464,2.5428,2.5067,2.5521,2.5716,2.5763,2.5672,2.5183,2.4868,2.5473,2.4776,2.3963,2.3905,2.3891,2.3702,2.3041,2.2888,2.2888,2.2888,2.2888,2.2888,2.2888,2.2946,2.2983,2.2925,2.2925,2.3023,2.3297,2.3319,2.317,2.2817,2.3242,2.2757,2.0987,2.1395,2.1425,2.0808,2.0094,1.9738,1.9798,1.9738,1.9708,1.9708,1.9708,1.9708,1.9708,1.9708,1.9708,2.776,2.9504,3.1433,3.3508,3.4568,3.5307,3.6013,3.529,3.4437,3.4409,3.4414,3.4414,3.4414,3.4414,3.4414,3.4414,3.4414,3.424,3.3779,3.3707,3.3485,3.2959,3.2803,3.2513,3.199,3.2295,3.2353,3.1961,3.2263,3.2338,3.1961,3.177,3.1438,3.083,3.0916,3.0888,3.0598,3.0743,3.0743,3.0598,3.0598,3.0598,3.0598,3.0598,3.0598,3.0583,3.0045,2.9726,2.9523,2.8522,2.8347,2.8579,2.7427,2.7259,2.7619,2.7,2.6796,2.6767,2.6796,2.6727,2.6527,2.6056,2.5671,2.5383,2.5172,2.5365,2.5423,2.4549,2.5048,2.5585,2.4559,2.4196,2.4123,2.4268,2.4471,2.4476,2.3992,2.3891,2.3702,2.3041,2.2888,2.2888,2.2888,2.2888,2.2888,2.2888,2.3345,2.3537,2.3096,2.306,2.3171,2.3422,2.3466,2.3435,2.3415,2.3092,2.2718,2.2298,2.1904,2.1635,2.1485,2.0352,1.9962,2.0464,1.9959,1.9708,1.9708,1.9708,1.9708,1.9708,1.9708,1.9708,2.7963,2.9739,3.1716,3.4154,3.5308,3.5822,3.5851,3.5343,3.4777,3.4472,3.4414,3.4414,3.4414,3.4414,3.4414,3.4414,3.4167,3.3848,3.3547,3.3209,3.289,3.2556,3.2237,3.1872,3.1524,3.1555,3.1569,3.1495,3.1555,3.1569,3.1495,3.1235,3.0771,3.0147,3.0422,3.0467,3.0118,3.0118,3.0277,3.0598,2.9987,2.9697,2.9711,3.0322,3.0438,3.0103,2.974,2.9247,2.8638,2.7971,2.7752,2.7735,2.7067,2.6982,2.7229,2.691,2.6806,2.6806,2.6806,2.6806,2.6709,2.6048,2.5621,2.5253,2.4962,2.5063,2.5183,2.453,2.4834,2.527,2.4917,2.4123,2.3563,2.4196,2.4114,2.3809,2.3476,2.3418,2.3316,2.2983,2.3171,2.3273,2.2968,2.3171,2.3374,2.3374,2.3673,2.372,2.317,2.3105,2.3194,2.3466,2.3509,2.3516,2.3595,2.3295,2.3017,2.2718,2.2373,2.2179,2.2179,2.1186,2.0662,2.0703,2.0034,1.9708,1.9708,1.9708,1.9708,1.9708,1.9708,1.9708,2.7919,2.9829,3.1888,3.4522,3.5679,3.5996,3.5508,3.5319,3.5087,3.4516,3.4414,3.4414,3.4414,3.4414,3.4414,3.4414,3.3877,3.346,3.3344,3.2745,3.2278,3.2193,3.17,3.1351,3.1351,3.0872,3.083,3.1322,3.0872,3.083,3.1322,3.0756,3.0161,2.961,3.0031,3.0045,2.9595,2.9494,2.9842,3.0598,2.9421,2.8811,2.8738,2.9798,2.9958,2.9421,2.932,2.8667,2.7695,2.7579,2.7258,2.6806,2.6806,2.6806,2.6806,2.6806,2.6806,2.6806,2.6806,2.6806,2.6718,2.6141,2.5517,2.4969,2.4969,2.4897,2.481,2.481,2.4752,2.4863,2.5458,2.4346,2.3345,2.4389,2.3838,2.3055,2.2917,2.2888,2.2888,2.2888,2.3345,2.3601,2.3157,2.363,2.4022,2.3905,2.3992,2.3836,2.3162,2.3105,2.3223,2.3444,2.3509,2.3538,2.361,2.3595,2.3385,2.2897,2.2868,2.2808,2.2703,2.2179,2.15,2.0718,2.0154,1.9828,1.9708,1.9708,1.9708,1.9708,1.9708,1.9708,2.6994,3.0423,3.3617,3.422,3.4945,3.5508,3.5421,3.4936,3.4516,3.4428,3.4414,3.4414,3.4414,3.4414,3.4414,3.4414,3.3877,3.3314,3.273,3.2046,3.1453,3.0932,3.0786,3.0728,3.0728,3.0656,3.0641,3.0714,3.0656,3.0641,3.0728,3.0089,2.9682,2.9595,2.9174,2.9145,2.9595,2.9073,2.9435,3.0598,2.9842,2.9218,2.8723,2.8883,2.8912,2.8796,2.8203,2.7855,2.7666,2.7142,2.6852,2.6806,2.6806,2.6806,2.6806,2.6806,2.6806,2.6806,2.6806,2.6806,2.6806,2.6704,2.6199,2.5662,2.5662,2.5299,2.4878,2.4824,2.4442,2.4167,2.4781,2.4331,2.3804,2.3978,2.3891,2.3615,2.3041,2.2888,2.2888,2.2888,2.296,2.3186,2.3688,2.4259,2.4491,2.3978,2.4384,2.4312,2.3093,2.3135,2.3297,2.3319,2.348,2.3588,2.3595,2.3595,2.3565,2.3475,2.3475,2.3257,2.2718,2.2613,2.1984,2.0718,2.0598,2.0288,1.9708,1.9708,1.9708,1.9708,1.9708,1.9708,2.6859,2.9581,3.1924,3.3302,3.3896,3.4309,3.4752,3.4617,3.4414,3.4414,3.4414,3.4414,3.4414,3.4414,3.4414,3.4414,3.3587,3.2846,3.2556,3.1642,3.0887,3.0641,3.0598,3.0598,3.0598,3.0598,3.0598,3.0598,3.0598,3.0452,3.006,2.9755,2.9436,2.9116,2.8826,2.884,2.9087,2.884,2.8985,2.9537,2.8869,2.8391,2.8129,2.7781,2.781,2.8129,2.7826,2.7289,2.6649,2.6736,2.6588,2.6283,2.6634,2.6806,2.6806,2.6806,2.6806,2.6806,2.6806,2.6806,2.6747,2.6344,2.605,2.5672,2.496,2.4791,2.4752,2.4413,2.4094,2.4123,2.511,2.437,2.3519,2.4215,2.3853,2.3258,2.2946,2.2888,2.3105,2.3815,2.3693,2.3905,2.5284,2.5429,2.527,2.4994,2.4946,2.4568,2.3693,2.3422,2.3319,2.3385,2.3523,2.3595,2.3595,2.3595,2.3595,2.3595,2.3266,2.3137,2.3191,2.2523,2.1859,2.1276,2.0882,2.0378,1.9708,1.9708,1.9708,1.9708,1.9708,1.9708,2.6335,2.8244,2.9745,3.1852,3.2514,3.2919,3.3951,3.4148,3.4147,3.4346,3.4414,3.4414,3.4414,3.4414,3.4356,3.4196,3.3238,3.2423,3.2249,3.1293,3.0598,3.0598,3.0598,3.0539,3.035,3.051,3.0539,3.035,3.051,3.0364,2.9885,2.9566,2.9247,2.8927,2.8476,2.8462,2.8913,2.8927,2.8681,2.8215,2.7882,2.7623,2.7449,2.7012,2.7041,2.7463,2.7463,2.6939,2.6094,2.6602,2.6515,2.6108,2.6617,2.6806,2.6806,2.6806,2.6806,2.6806,2.6806,2.6806,2.6733,2.6224,2.6039,2.5861,2.4718,2.4588,2.4723,2.4268,2.4022,2.4152,2.527,2.4476,2.3569,2.4389,2.3853,2.3113,2.2931,2.2888,2.3221,2.436,2.421,2.4442,2.6253,2.5981,2.5589,2.5763,2.5149,2.4505,2.4104,2.362,2.3341,2.3444,2.3545,2.3595,2.3595,2.3595,2.3595,2.3595,2.3182,2.3062,2.3355,2.2607,2.2024,2.171,2.1216,2.0543,1.9708,1.9708,1.9708,1.9708,1.9708,1.9708,2.4966,2.6611,2.809,2.9768,3.0637,3.1527,3.3154,3.3397,3.3485,3.423,3.4414,3.4414,3.4414,3.4414,3.4211,3.3649,3.2962,3.2263,3.1625,3.0988,3.0598,3.0598,3.0598,3.0335,2.9697,3.0219,3.0321,2.9697,3.0234,3.0583,3.0554,2.9406,2.8985,2.9537,2.7824,2.7752,2.9537,2.9537,2.8666,2.6922,2.7434,2.7391,2.6837,2.682,2.6835,2.6837,2.6837,2.682,2.6736,2.6806,2.6791,2.6736,2.6806,2.6806,2.6806,2.6806,2.6806,2.6806,2.6806,2.6806,2.6806,2.6762,2.6762,2.6631,2.5919,2.5284,2.4795,2.4766,2.4331,2.4051,2.4747,2.481,2.4578,2.4065,2.3891,2.3673,2.3055,2.2888,2.3113,2.3804,2.3905,2.4336,2.5643,2.5313,2.5056,2.5691,2.4757,2.3958,2.3914,2.3538,2.3297,2.3319,2.348,2.3595,2.3595,2.3595,2.3595,2.3595,2.3565,2.3295,2.2763,2.3221,2.2936,2.1724,2.1665,2.1006,1.9708,1.9708,1.9708,1.9708,1.9708,1.9708,2.3186,2.4649,2.6138,2.8092,2.9158,3.0134,3.1657,3.2371,3.2891,3.3657,3.4124,3.4414,3.4414,3.4414,3.4196,3.3605,3.2933,3.2249,3.1582,3.0974,3.0598,3.0598,3.0598,3.051,3.0263,3.0467,3.051,3.0248,3.0467,3.0423,2.9987,2.9537,2.9203,2.9029,2.8361,2.8332,2.9015,2.8216,2.7868,2.8011,2.7403,2.7215,2.7374,2.6968,2.6806,2.6806,2.6806,2.6573,2.6195,2.6631,2.6559,2.621,2.6646,2.6806,2.6806,2.6806,2.6806,2.6806,2.6806,2.6806,2.6806,2.6806,2.6806,2.6617,2.5556,2.5038,2.4636,2.38,2.3432,2.3403,2.408,2.3911,2.3534,2.3316,2.3601,2.3833,2.3601,2.3891,2.437,2.4994,2.5135,2.5411,2.6297,2.6242,2.617,2.6428,2.5328,2.4476,2.453,2.3816,2.3297,2.3297,2.348,2.3595,2.3595,2.3595,2.3595,2.3595,2.3236,2.3107,2.3266,2.2697,2.2353,2.2343,2.1919,2.1246,2.0348,1.9899,1.9914,2.0348,2.0348,2.0572,2.1516,2.2769,2.4213,2.6442,2.7438,2.8369,3.0344,3.1041,3.166,3.3111,3.3571,3.3869,3.4337,3.4414,3.4138,3.3282,3.2788,3.2208,3.1322,3.0843,3.0598,3.0598,3.0598,3.0525,3.0277,3.0481,3.0525,3.0277,3.0481,3.0423,2.9972,2.9711,2.9204,2.839,2.8768,2.8695,2.8084,2.7418,2.7418,2.8055,2.7212,2.7012,2.7389,2.6968,2.6806,2.6806,2.6806,2.6559,2.6181,2.6631,2.6544,2.6195,2.6631,2.6806,2.6806,2.6806,2.6806,2.6806,2.6806,2.6806,2.6806,2.6806,2.6806,2.6617,2.5542,2.5023,2.4636,2.3795,2.3525,2.365,2.4109,2.3746,2.3244,2.3244,2.3586,2.3949,2.4181,2.4573,2.5052,2.5662,2.5803,2.6021,2.6663,2.6416,2.6199,2.6442,2.5342,2.4505,2.4559,2.4007,2.3533,2.3312,2.348,2.3595,2.3595,2.3595,2.3595,2.3595,2.3206,2.3176,2.358,2.2787,2.2553,2.3002,2.2373,2.1814,2.138,2.0711,2.0602,2.1051,2.1051,2.1276,0.0,0.0,0.0,2.4822,2.5493,2.6324,2.924,2.9412,2.9755,3.252,3.2707,3.2769,3.4086,3.4366,3.396,3.2698,3.2481,3.2063,3.0816,3.0612,3.0598,3.0598,3.0598,3.0335,2.9682,3.0205,3.0321,2.9668,3.0219,3.0598,3.0598,2.9972,2.9029,2.7797,2.8913,2.8681,2.6849,2.7376,2.7362,2.6806,2.6753,2.6779,2.6806,2.6779,2.6779,2.6806,2.6806,2.6806,2.6806,2.6806,2.6806,2.6806,2.6806,2.6806,2.6806,2.6806,2.6806,2.6806,2.6806,2.6806,2.6806,2.6806,2.6806,2.6663,2.6006,2.5342,2.481,2.481,2.4795,2.4795,2.4849,2.437,2.3862,2.3862,2.3876,2.4065,2.4718,2.4824,2.5013,2.5691,2.5847,2.6036,2.6649,2.568,2.5042,2.5662,2.4689,2.3905,2.3943,2.4072,2.396,2.3386,2.3494,2.3595,2.3595,2.3595,2.3595,2.3595,2.3595,2.3595,2.3595,2.3595,2.3595,2.3595,2.3032,2.2718,2.2718,2.2044,2.171,2.1724,2.1759,2.1774,1.8653,0.0,0.0,0.0,0.0,0.0,2.7172,2.7911,2.8717,3.0504,3.1163,3.1702,3.271,3.3257,3.3309,3.2619,3.2481,3.2222,3.138,3.0872,3.0598,3.0598,3.0598,3.0539,3.0321,3.0496,3.0525,3.0321,3.051,3.0598,3.0598,2.9972,2.9436,2.9087,2.8522,2.7971,2.7449,2.674,2.6538,2.6779,2.5934,2.5961,2.6779,2.634,2.6394,2.6806,2.6806,2.6806,2.6806,2.6806,2.6806,2.6806,2.6806,2.6806,2.6806,2.6806,2.6806,2.6806,2.6806,2.6806,2.6806,2.6806,2.6806,2.6663,2.6006,2.5342,2.481,2.4863,2.453,2.4152,2.4167,2.3688,2.3186,2.3186,2.3557,2.3949,2.4147,2.4544,2.5197,2.6326,2.653,2.6442,2.6137,2.5763,2.5444,2.5183,2.4452,2.4065,2.4544,2.3992,2.3644,2.3916,2.374,2.3595,2.3595,2.3595,2.3595,2.3595,2.3595,2.3595,2.3595,2.3595,2.3595,2.3595,2.343,2.334,2.334,2.2233,2.1934,2.2433,2.3229,2.3565,1.7317,1.8589,1.9834,2.1449,0.0,0.0,2.553,2.6374,2.7314,2.9323,2.9824,3.025,3.1323,3.2241,3.2696,3.2172,3.2537,3.2687,3.2002,3.138,3.0974,3.0974,3.0974,3.0872,3.0627,3.0814,3.0858,3.0627,3.0598,3.0481,3.019,3.0074,2.9653,2.8826,2.8376,2.7868,2.7345,2.6376,2.6084,2.642,2.5701,2.5729,2.642,2.6313,2.6474,2.6806,2.6806,2.6806,2.6806,2.6806,2.6806,2.6806,2.6806,2.6806,2.6806,2.6806,2.6806,2.6806,2.6806,2.6806,2.6806,2.6806,2.6806,2.6733,2.6341,2.5749,2.5241,2.5255,2.4791,2.4283,2.4312,2.3833,2.3339,2.3385,2.3435,2.3557,2.3903,2.4243,2.4776,2.5778,2.6006,2.5926,2.5498,2.5267,2.4985,2.4626,2.4442,2.4334,2.4244,2.4141,2.405,2.3918,2.3725,2.3595,2.3595,2.3595,2.3595,2.3595,2.3595,2.3595,2.3595,2.3595,2.3595,2.3595,2.3595,2.3595,2.3595,2.2847,2.2786,2.3364,2.4009,2.4385,1.608,1.726,1.8531,1.9824,2.0716,0.0,2.4108,2.4713,2.558,2.8267,2.8486,2.8559,2.9833,3.1137,3.1822,3.1282,3.2283,3.2988,3.2568,3.1973,3.1596,3.1596,3.1596,3.138,3.0772,3.1192,3.125,3.0656,3.0598,3.0321,2.9726,3.0263,2.9726,2.7869,2.832,2.7974,2.6715,2.6029,2.5729,2.5811,2.5729,2.5784,2.5921,2.6447,2.6727,2.6806,2.6806,2.6806,2.6806,2.6806,2.6806,2.6806,2.6806,2.6806,2.6806,2.6806,2.6806,2.6806,2.6806,2.6806,2.6806,2.6806,2.6806,2.6806,2.6806,2.6271,2.5662,2.5614,2.5168,2.4723,2.4801,2.4307,2.3836,2.3975,2.3445,2.313,2.3835,2.3906,2.3972,2.4515,2.482,2.4956,2.4839,2.4482,2.4149,2.4013,2.4458,2.4482,2.3606,2.4454,2.4766,2.3814,2.3709,2.3684,2.361,2.3595,2.3595,2.3595,2.3595,2.3595,2.3595,2.3595,2.3595,2.3595,2.3595,2.3595,2.3595,2.3595,2.3846,2.4302,2.4343,2.4574,1.5529,1.6499,1.7605,1.9294,1.9598,0.0,2.2228,2.2914,2.3627,2.5525,2.6321,2.6924,2.7886,2.8807,2.9412,2.943,3.0215,3.1241,3.2335,3.2379,3.2292,3.2292,3.2292,3.2031,3.1395,3.1438,3.125,3.0656,3.0598,3.0539,3.0423,3.0539,2.9973,2.8536,2.8169,2.7371,2.6071,2.5006,2.4681,2.5161,2.4694,2.495,2.5893,2.6029,2.634,2.6806,2.6806,2.6806,2.6806,2.6806,2.6806,2.6806,2.6806,2.6806,2.6806,2.6806,2.6806,2.6806,2.6806,2.6806,2.6806,2.6806,2.6806,2.6806,2.6806,2.5952,2.4882,2.4399,2.4181,2.4103,2.4236,2.3754,2.3295,2.3422,2.3245,2.3089,2.3265,2.3272,2.3279,2.341,2.4294,2.4834,2.4347,2.4221,2.3988,2.339,2.3495,2.3908,2.4655,2.4678,2.4735,2.4995,2.4641,2.4186,2.3655,2.3595,2.3595,2.3595,2.3595,2.3595,2.3595,2.3595,2.3595,2.3595,2.3595,2.3595,2.3595,2.3595,2.3846,2.4302,2.4619,2.4823,1.4339,1.522,1.6119,1.7083,1.7827,0.0,0.0,2.1139,2.1969,2.3283,2.3839,2.4249,2.4751,2.6032,2.6985,2.6997,2.8809,3.0303,3.0656,3.1447,3.2259,3.2916,3.2991,3.2745,3.2046,3.2309,3.2092,3.1119,3.0786,3.0467,3.0118,3.0423,3.0031,2.8752,2.8111,2.7485,2.6811,2.5283,2.4851,2.5453,2.4823,2.4879,2.5453,2.577,2.6056,2.6367,2.6674,2.6621,2.6367,2.6674,2.6621,2.6367,2.6674,2.6806,2.6806,2.6806,2.6806,2.6806,2.6806,2.6806,2.6806,2.6806,2.6806,2.6806,2.6806,2.6097,2.5183,2.4616,2.4232,2.3958,2.3737,2.3436,2.3223,2.3378,2.3312,2.3223,2.3282,2.3246,2.3201,2.3201,2.3775,2.4137,2.3753,2.3814,2.3755,2.3371,2.36,2.397,2.4318,2.44,2.4469,2.4507,2.4268,2.3984,2.3625,2.3595,2.3595,2.3595,2.3595,2.3595,2.3595,2.3595,2.3595,2.3595,2.3595,2.3595,2.3595,2.3595,2.3937,2.4599,2.4819,2.5134,1.305,1.3823,1.4537,1.4739,1.574,1.6917,0.0,0.0,0.0,2.0805,2.1285,2.1578,2.1593,2.3208,2.4478,2.4389,2.6726,2.8441,2.8132,2.9423,3.1004,3.2673,3.3006,3.2867,3.2346,3.288,3.2756,3.1582,3.1016,3.0451,2.9813,3.0322,3.0075,2.8898,2.8052,2.7554,2.7352,2.5659,2.5077,2.555,2.5189,2.5007,2.5007,2.5619,2.5839,2.577,2.6367,2.634,2.5948,2.642,2.642,2.6111,2.6621,2.6806,2.6806,2.6806,2.6806,2.6806,2.6806,2.6806,2.6806,2.6806,2.6806,2.6791,2.666,2.6239,2.5708,2.5024,2.4487,2.4001,2.3474,2.3341,2.3363,2.3494,2.3429,2.3363,2.3487,2.3407,2.3341,2.3341,2.3429,2.3473,2.3363,2.348,2.3588,2.3509,2.3933,2.4134,2.3805,2.4171,2.4268,2.3842,2.3789,2.3744,2.361,2.3595,2.3595,2.3595,2.3595,2.3595,2.3595,2.3595,2.3595,2.3595,2.3595,2.3638,2.3724,2.3638,2.3964,2.4664,2.4823,2.5269,1.238,1.2657,1.3135,1.3936,1.3648,1.3591,1.5187,0.0,1.6549,1.7267,0.0,1.9879,1.9575,0.0,0.0,2.179,2.2294,2.3236,2.4861,2.5884,2.749,3.0235,3.1158,3.1564,3.1599,3.2054,3.2118,3.1538,3.1312,3.1009,3.0495,3.0569,3.0248,2.9508,2.7853,2.6708,2.6108,2.4831,2.4234,2.4321,2.4766,2.5007,2.5007,2.5619,2.5605,2.5133,2.5743,2.5948,2.5921,2.5975,2.6286,2.67,2.6779,2.6806,2.6806,2.6806,2.6806,2.6806,2.6806,2.6806,2.6806,2.6806,2.6806,2.6704,2.6094,2.5952,2.572,2.4546,2.4244,2.4153,2.3622,2.3487,2.3509,2.3566,2.3538,2.3487,2.3509,2.3487,2.3487,2.3487,2.3538,2.3566,2.3487,2.356,2.3588,2.3509,2.3619,2.3865,2.4343,2.4507,2.4552,2.45,2.4485,2.4246,2.3655,2.3595,2.3595,2.3595,2.3595,2.3595,2.3595,2.3595,2.3595,2.3595,2.3595,2.3803,2.4219,2.3803,2.3659,2.3767,2.4542,2.4942,1.1444,1.1848,1.2297,1.2368,1.2611,1.2979,1.3556,1.4026,1.4393,1.4807,0.0,0.0,0.0,0.0,0.0,0.0,1.9586,2.0546,2.1589,2.2891,2.5099,2.8886,3.0197,3.1029,3.1623,3.1516,3.1356,3.1274,3.0474,3.0122,3.0455,3.0192,3.0076,3.0176,2.8351,2.7245,2.7008,2.5381,2.4593,2.4624,2.4509,2.4481,2.4481,2.4751,2.4723,2.4509,2.5105,2.5175,2.4893,2.5605,2.5852,2.5838,2.6527,2.6806,2.6806,2.6806,2.6806,2.6806,2.6806,2.6806,2.6806,2.6806,2.6806,2.6689,2.6097,2.5969,2.5755,2.4593,2.4309,2.4214,2.3702,2.3545,2.3566,2.3595,2.3588,2.3545,2.3545,2.3545,2.3545,2.3545,2.3588,2.3588,2.3566,2.3588,2.3588,2.3545,2.3588,2.3678,2.3948,2.3985,2.4007,2.4007,2.4007,2.3924,2.3625,2.3595,2.3595,2.3595,2.3595,2.3595,2.3595,2.3962,2.4014,2.361,2.4245,2.4496,2.4302,2.4114,2.4141,2.4343,2.4744,2.504,1.085,1.1168,1.1462,1.1086,1.1611,1.2191,1.2103,1.2302,1.2511,1.2626,1.3084,0.0,0.0,0.0,1.5477,0.0,0.0,1.7951,1.8476,1.9773,2.2233,2.638,2.849,3.0003,3.0963,3.0947,3.0949,3.1015,3.0019,2.9605,3.0086,2.9752,2.976,3.0326,2.8622,2.7646,2.7558,2.598,2.5125,2.4979,2.4567,2.435,2.435,2.435,2.4147,2.3855,2.4481,2.4595,2.4394,2.508,2.5411,2.5563,2.6273,2.6646,2.6806,2.6806,2.6806,2.6806,2.6806,2.6806,2.6806,2.6806,2.6689,2.6442,2.6115,2.5902,2.5595,2.465,2.4431,2.4313,2.3752,2.3595,2.3595,2.3595,2.3595,2.3595,2.3595,2.3595,2.3595,2.3595,2.3595,2.3595,2.3595,2.3595,2.3595,2.3595,2.3595,2.3595,2.3595,2.3595,2.3595,2.3595,2.3759,2.3879,2.3879,2.4044,2.4148,2.4148,2.4148,2.4148,2.4148,2.4619,2.4634,2.4163,2.4911,2.5114,2.473,2.4544,2.4679,2.5059,2.4962,2.5118,1.085,1.0625,1.0453,1.0507,1.035,1.0266,1.0507,1.0564,1.0569,1.0527,1.1446,1.2226,1.2184,1.2993,0.0,0.0,0.0,0.0,0.0,1.6332,1.8203,2.1783,2.5394,2.8026,2.9086,3.0405,3.11,3.0851,3.0592,3.0121,2.9375,2.9327,2.9429,2.9637,2.8374,2.7462,2.6933,2.6204,2.5576,2.5007,2.4979,2.4951,2.4951,2.4951,2.4308,2.3168,2.3826,2.4452,2.491,2.4313,2.5117,2.668,2.6068,2.6239,2.6806,2.6806,2.6806,2.6806,2.6806,2.6806,2.6806,2.6806,2.637,2.5832,2.5983,2.5654,2.5112,2.4555,2.4476,2.4455,2.3774,2.3595,2.3595,2.3595,2.3595,2.3595,2.3595,2.3595,2.3595,2.3595,2.3595,2.3595,2.3595,2.3595,2.3595,2.3595,2.3595,2.3595,2.3595,2.3595,2.3595,2.3595,2.4171,2.4575,2.4575,2.5158,2.5555,2.5555,2.5555,2.5555,2.5555,2.557,2.557,2.5555,2.5377,2.548,2.5852,2.5194,2.5098,2.5484,2.5079,2.5118,1.0663,1.0711,1.0781,1.0383,1.0424,1.0502,1.0351,1.0126,1.0018,1.0185,1.0296,1.0472,1.0748,0.0,0.0,0.0,0.0,0.0,0.0,1.4951,1.6933,1.9153,2.275,2.5723,2.7403,2.8086,2.8621,2.9112,2.8551,2.8476,2.9126,2.8503,2.8505,2.9383,2.8228,2.7112,2.6188,2.5915,2.5302,2.4408,2.4823,2.4794,2.4408,2.4408,2.3943,2.3113,2.3322,2.3806,2.4412,2.4532,2.5223,2.6204,2.6387,2.6617,2.6806,2.6806,2.6806,2.6806,2.6806,2.6515,2.6224,2.6675,2.6355,2.573,2.5447,2.5204,2.4905,2.4044,2.3837,2.3821,2.3648,2.3595,2.3595,2.3595,2.3595,2.3595,2.3595,2.3595,2.3595,2.3595,2.3595,2.3595,2.3595,2.3595,2.3595,2.3595,2.3984,2.4096,2.3655,2.4373,2.4762,2.4306,2.4859,2.5247,2.5247,2.5457,2.5615,2.5615,2.5615,2.5615,2.5615,2.5615,2.5382,2.4948,2.5432,2.5394,2.4834,2.5151,2.537,2.5503,2.5351,2.537,1.064,1.0748,1.0775,1.0421,1.0487,1.0605,1.0293,0.9986,0.9817,0.9902,0.9705,0.9559,0.9673,0.9941,0.0,0.0,0.0,0.0,0.0,1.3814,1.5626,1.6931,2.0609,2.3684,2.5278,2.6211,2.6818,2.7126,2.7199,2.7468,2.7979,2.7653,2.7795,2.8645,2.7901,2.6968,2.5816,2.5772,2.5197,2.4102,2.4481,2.4481,2.4089,2.388,2.3544,2.307,2.2898,2.3308,2.4137,2.445,2.5089,2.5934,2.6294,2.6602,2.6806,2.6806,2.6806,2.6806,2.6806,2.637,2.5876,2.6312,2.5861,2.5062,2.4776,2.4522,2.4203,2.3659,2.3509,2.3531,2.3573,2.3595,2.3595,2.3595,2.3595,2.3595,2.3595,2.3595,2.3595,2.3595,2.3595,2.3595,2.3595,2.3595,2.3595,2.3595,2.3984,2.4171,2.3984,2.4694,2.5173,2.4978,2.557,2.6048,2.6288,2.6303,2.6303,2.6303,2.6303,2.6303,2.6303,2.6479,2.6363,2.5924,2.6156,2.5958,2.5264,2.5278,2.5351,2.5503,2.5351,2.5462]}]]